<?xml version="1.0" encoding="UTF-8" standalone="no" ?><gpx xmlns="http://www.topografix.com/GPX/1/1" xmlns:gpxx="http://www.garmin.com/xmlschemas/WaypointExtension/v1" xmlns:gpxtrx="http://www.garmin.com/xmlschemas/GpxExtensions/v3" xmlns:gpxtpx="http://www.garmin.com/xmlschemas/TrackPointExtension/v1" creator="Dakota 20" version="1.1" xmlns:xsi="http://www.w3.org/2001/XMLSchema-instance" xsi:schemaLocation="http://www.topografix.com/GPX/1/1 http://www.topografix.com/GPX/1/1/gpx.xsd http://www.garmin.com/xmlschemas/WaypointExtension/v1 http://www8.garmin.com/xmlschemas/WaypointExtensionv1.xsd http://www.garmin.com/xmlschemas/TrackPointExtension/v1 http://www.garmin.com/xmlschemas/TrackPointExtensionv1.xsd"><metadata><link href="http://www.garmin.com"><text>Garmin International</text></link><time>2012-09-10T15:51:40Z</time></metadata><trk><name>REFUGIO ALTAVISTA</name><extensions><gpxtrx:TrackExtension><gpxtrx:DisplayColor>Black</gpxtrx:DisplayColor></gpxtrx:TrackExtension></extensions><trkseg><trkpt lat="28.259302" lon="-16.604033"><ele>2211.17</ele><time>2012-09-08T22:30:58Z</time></trkpt><trkpt lat="28.259304" lon="-16.604025"><ele>2211.17</ele><time>2012-09-08T22:30:59Z</time></trkpt><trkpt lat="28.259262" lon="-16.603933"><ele>2211.17</ele><time>2012-09-08T22:31:19Z</time></trkpt><trkpt lat="28.259272" lon="-16.603943"><ele>2215.98</ele><time>2012-09-08T22:31:23Z</time></trkpt><trkpt lat="28.259266" lon="-16.603943"><ele>2221.26</ele><time>2012-09-08T22:31:24Z</time></trkpt><trkpt lat="28.259258" lon="-16.603945"><ele>2225.59</ele><time>2012-09-08T22:31:25Z</time></trkpt><trkpt lat="28.259253" lon="-16.603945"><ele>2230.40</ele><time>2012-09-08T22:31:26Z</time></trkpt><trkpt lat="28.259235" lon="-16.603947"><ele>2234.24</ele><time>2012-09-08T22:31:27Z</time></trkpt><trkpt lat="28.259232" lon="-16.603949"><ele>2240.49</ele><time>2012-09-08T22:31:28Z</time></trkpt><trkpt lat="28.259230" lon="-16.603949"><ele>2243.85</ele><time>2012-09-08T22:31:29Z</time></trkpt><trkpt lat="28.259232" lon="-16.603945"><ele>2247.22</ele><time>2012-09-08T22:31:30Z</time></trkpt><trkpt lat="28.259237" lon="-16.603943"><ele>2252.51</ele><time>2012-09-08T22:31:31Z</time></trkpt><trkpt lat="28.259239" lon="-16.603941"><ele>2255.87</ele><time>2012-09-08T22:31:32Z</time></trkpt><trkpt lat="28.259243" lon="-16.603939"><ele>2259.24</ele><time>2012-09-08T22:31:33Z</time></trkpt><trkpt lat="28.259243" lon="-16.603939"><ele>2263.08</ele><time>2012-09-08T22:31:34Z</time></trkpt><trkpt lat="28.259241" lon="-16.603941"><ele>2266.45</ele><time>2012-09-08T22:31:35Z</time></trkpt><trkpt lat="28.259241" lon="-16.603939"><ele>2272.21</ele><time>2012-09-08T22:31:37Z</time></trkpt><trkpt lat="28.259241" lon="-16.603937"><ele>2280.38</ele><time>2012-09-08T22:31:39Z</time></trkpt><trkpt lat="28.259241" lon="-16.603941"><ele>2284.23</ele><time>2012-09-08T22:31:41Z</time></trkpt><trkpt lat="28.259239" lon="-16.603945"><ele>2287.59</ele><time>2012-09-08T22:31:42Z</time></trkpt><trkpt lat="28.259239" lon="-16.603949"><ele>2292.88</ele><time>2012-09-08T22:31:44Z</time></trkpt><trkpt lat="28.259239" lon="-16.603951"><ele>2296.73</ele><time>2012-09-08T22:31:46Z</time></trkpt><trkpt lat="28.259237" lon="-16.603952"><ele>2301.53</ele><time>2012-09-08T22:31:48Z</time></trkpt><trkpt lat="28.259241" lon="-16.603952"><ele>2305.38</ele><time>2012-09-08T22:31:50Z</time></trkpt><trkpt lat="28.259239" lon="-16.603941"><ele>2310.67</ele><time>2012-09-08T22:31:53Z</time></trkpt><trkpt lat="28.259241" lon="-16.603937"><ele>2314.99</ele><time>2012-09-08T22:31:55Z</time></trkpt><trkpt lat="28.259241" lon="-16.603941"><ele>2318.36</ele><time>2012-09-08T22:31:57Z</time></trkpt><trkpt lat="28.259239" lon="-16.603952"><ele>2322.68</ele><time>2012-09-08T22:32:00Z</time></trkpt><trkpt lat="28.259233" lon="-16.603952"><ele>2326.05</ele><time>2012-09-08T22:32:03Z</time></trkpt><trkpt lat="28.259228" lon="-16.603956"><ele>2331.33</ele><time>2012-09-08T22:32:06Z</time></trkpt><trkpt lat="28.259226" lon="-16.603962"><ele>2330.37</ele><time>2012-09-08T22:32:07Z</time></trkpt><trkpt lat="28.259224" lon="-16.603962"><ele>2335.66</ele><time>2012-09-08T22:32:10Z</time></trkpt><trkpt lat="28.259226" lon="-16.603960"><ele>2336.14</ele><time>2012-09-08T22:32:12Z</time></trkpt><trkpt lat="28.259232" lon="-16.603973"><ele>2340.47</ele><time>2012-09-08T22:32:18Z</time></trkpt><trkpt lat="28.259235" lon="-16.603971"><ele>2343.83</ele><time>2012-09-08T22:32:22Z</time></trkpt><trkpt lat="28.259209" lon="-16.603971"><ele>2347.68</ele><time>2012-09-08T22:32:29Z</time></trkpt><trkpt lat="28.259205" lon="-16.603977"><ele>2351.04</ele><time>2012-09-08T22:32:33Z</time></trkpt><trkpt lat="28.259205" lon="-16.603977"><ele>2351.04</ele><time>2012-09-08T22:32:34Z</time></trkpt><trkpt lat="28.259209" lon="-16.603983"><ele>2353.93</ele><time>2012-09-08T22:32:44Z</time></trkpt><trkpt lat="28.259209" lon="-16.603983"><ele>2356.81</ele><time>2012-09-08T22:32:49Z</time></trkpt><trkpt lat="28.259195" lon="-16.604025"><ele>2360.17</ele><time>2012-09-08T22:32:59Z</time></trkpt><trkpt lat="28.259193" lon="-16.604031"><ele>2363.06</ele><time>2012-09-08T22:33:14Z</time></trkpt><trkpt lat="28.259193" lon="-16.604031"><ele>2364.02</ele><time>2012-09-08T22:33:34Z</time></trkpt><trkpt lat="28.259197" lon="-16.604029"><ele>2364.02</ele><time>2012-09-08T22:33:55Z</time></trkpt><trkpt lat="28.259193" lon="-16.604036"><ele>2363.54</ele><time>2012-09-08T22:34:12Z</time></trkpt><trkpt lat="28.259192" lon="-16.604044"><ele>2364.50</ele><time>2012-09-08T22:34:32Z</time></trkpt><trkpt lat="28.259186" lon="-16.604053"><ele>2364.50</ele><time>2012-09-08T22:34:46Z</time></trkpt><trkpt lat="28.259186" lon="-16.604055"><ele>2364.50</ele><time>2012-09-08T22:34:47Z</time></trkpt><trkpt lat="28.259188" lon="-16.604078"><ele>2364.50</ele><time>2012-09-08T22:34:59Z</time></trkpt><trkpt lat="28.259193" lon="-16.604088"><ele>2364.02</ele><time>2012-09-08T22:35:13Z</time></trkpt><trkpt lat="28.259193" lon="-16.604088"><ele>2365.46</ele><time>2012-09-08T22:35:16Z</time></trkpt><trkpt lat="28.259190" lon="-16.604095"><ele>2364.50</ele><time>2012-09-08T22:35:26Z</time></trkpt><trkpt lat="28.259190" lon="-16.604088"><ele>2363.54</ele><time>2012-09-08T22:35:37Z</time></trkpt><trkpt lat="28.259190" lon="-16.604088"><ele>2364.02</ele><time>2012-09-08T22:35:57Z</time></trkpt><trkpt lat="28.259192" lon="-16.604084"><ele>2364.02</ele><time>2012-09-08T22:36:19Z</time></trkpt><trkpt lat="28.259188" lon="-16.604099"><ele>2364.98</ele><time>2012-09-08T22:36:28Z</time></trkpt><trkpt lat="28.259197" lon="-16.604095"><ele>2364.50</ele><time>2012-09-08T22:36:42Z</time></trkpt><trkpt lat="28.259212" lon="-16.604092"><ele>2364.98</ele><time>2012-09-08T22:36:57Z</time></trkpt><trkpt lat="28.259277" lon="-16.603981"><ele>2364.50</ele><time>2012-09-08T22:37:11Z</time></trkpt><trkpt lat="28.259298" lon="-16.603928"><ele>2364.50</ele><time>2012-09-08T22:37:17Z</time></trkpt><trkpt lat="28.259323" lon="-16.603741"><ele>2364.02</ele><time>2012-09-08T22:37:32Z</time></trkpt><trkpt lat="28.259329" lon="-16.603712"><ele>2364.02</ele><time>2012-09-08T22:37:34Z</time></trkpt><trkpt lat="28.259346" lon="-16.603664"><ele>2364.02</ele><time>2012-09-08T22:37:37Z</time></trkpt><trkpt lat="28.259361" lon="-16.603613"><ele>2363.54</ele><time>2012-09-08T22:37:41Z</time></trkpt><trkpt lat="28.259439" lon="-16.603481"><ele>2363.54</ele><time>2012-09-08T22:37:53Z</time></trkpt><trkpt lat="28.259539" lon="-16.603430"><ele>2364.02</ele><time>2012-09-08T22:38:06Z</time></trkpt><trkpt lat="28.259598" lon="-16.603392"><ele>2364.98</ele><time>2012-09-08T22:38:20Z</time></trkpt><trkpt lat="28.259695" lon="-16.603336"><ele>2366.42</ele><time>2012-09-08T22:38:33Z</time></trkpt><trkpt lat="28.259787" lon="-16.603252"><ele>2367.86</ele><time>2012-09-08T22:38:48Z</time></trkpt><trkpt lat="28.259859" lon="-16.603106"><ele>2369.31</ele><time>2012-09-08T22:39:03Z</time></trkpt><trkpt lat="28.259901" lon="-16.602983"><ele>2370.75</ele><time>2012-09-08T22:39:16Z</time></trkpt><trkpt lat="28.259930" lon="-16.602867"><ele>2371.71</ele><time>2012-09-08T22:39:29Z</time></trkpt><trkpt lat="28.259954" lon="-16.602701"><ele>2373.15</ele><time>2012-09-08T22:39:43Z</time></trkpt><trkpt lat="28.259956" lon="-16.602692"><ele>2373.63</ele><time>2012-09-08T22:39:44Z</time></trkpt><trkpt lat="28.259996" lon="-16.602545"><ele>2374.59</ele><time>2012-09-08T22:39:58Z</time></trkpt><trkpt lat="28.260035" lon="-16.602480"><ele>2375.55</ele><time>2012-09-08T22:40:04Z</time></trkpt><trkpt lat="28.260151" lon="-16.602427"><ele>2377.00</ele><time>2012-09-08T22:40:18Z</time></trkpt><trkpt lat="28.260214" lon="-16.602516"><ele>2379.40</ele><time>2012-09-08T22:40:34Z</time></trkpt><trkpt lat="28.260212" lon="-16.602526"><ele>2379.40</ele><time>2012-09-08T22:40:35Z</time></trkpt><trkpt lat="28.260212" lon="-16.602549"><ele>2379.40</ele><time>2012-09-08T22:40:37Z</time></trkpt><trkpt lat="28.260218" lon="-16.602602"><ele>2379.40</ele><time>2012-09-08T22:40:41Z</time></trkpt><trkpt lat="28.260229" lon="-16.602663"><ele>2379.88</ele><time>2012-09-08T22:40:46Z</time></trkpt><trkpt lat="28.260273" lon="-16.602791"><ele>2380.84</ele><time>2012-09-08T22:41:00Z</time></trkpt><trkpt lat="28.260347" lon="-16.602940"><ele>2382.28</ele><time>2012-09-08T22:41:15Z</time></trkpt><trkpt lat="28.260437" lon="-16.603062"><ele>2384.21</ele><time>2012-09-08T22:41:30Z</time></trkpt><trkpt lat="28.260448" lon="-16.603081"><ele>2384.69</ele><time>2012-09-08T22:41:32Z</time></trkpt><trkpt lat="28.260487" lon="-16.603106"><ele>2384.21</ele><time>2012-09-08T22:41:36Z</time></trkpt><trkpt lat="28.260582" lon="-16.603123"><ele>2386.13</ele><time>2012-09-08T22:41:49Z</time></trkpt><trkpt lat="28.260653" lon="-16.603081"><ele>2387.09</ele><time>2012-09-08T22:42:01Z</time></trkpt><trkpt lat="28.260715" lon="-16.602982"><ele>2389.01</ele><time>2012-09-08T22:42:18Z</time></trkpt><trkpt lat="28.260818" lon="-16.602865"><ele>2389.97</ele><time>2012-09-08T22:42:31Z</time></trkpt><trkpt lat="28.260981" lon="-16.602877"><ele>2391.42</ele><time>2012-09-08T22:42:48Z</time></trkpt><trkpt lat="28.261106" lon="-16.602896"><ele>2393.34</ele><time>2012-09-08T22:43:04Z</time></trkpt><trkpt lat="28.261227" lon="-16.602911"><ele>2393.82</ele><time>2012-09-08T22:43:18Z</time></trkpt><trkpt lat="28.261322" lon="-16.602903"><ele>2395.26</ele><time>2012-09-08T22:43:31Z</time></trkpt><trkpt lat="28.261414" lon="-16.602867"><ele>2397.67</ele><time>2012-09-08T22:43:45Z</time></trkpt><trkpt lat="28.261511" lon="-16.602829"><ele>2398.63</ele><time>2012-09-08T22:43:56Z</time></trkpt><trkpt lat="28.261644" lon="-16.602764"><ele>2400.07</ele><time>2012-09-08T22:44:11Z</time></trkpt><trkpt lat="28.261759" lon="-16.602701"><ele>2401.99</ele><time>2012-09-08T22:44:26Z</time></trkpt><trkpt lat="28.261774" lon="-16.602695"><ele>2401.99</ele><time>2012-09-08T22:44:28Z</time></trkpt><trkpt lat="28.261923" lon="-16.602642"><ele>2403.91</ele><time>2012-09-08T22:44:45Z</time></trkpt><trkpt lat="28.262028" lon="-16.602594"><ele>2405.36</ele><time>2012-09-08T22:44:58Z</time></trkpt><trkpt lat="28.262142" lon="-16.602560"><ele>2406.32</ele><time>2012-09-08T22:45:12Z</time></trkpt><trkpt lat="28.262281" lon="-16.602577"><ele>2407.76</ele><time>2012-09-08T22:45:27Z</time></trkpt><trkpt lat="28.262388" lon="-16.602556"><ele>2408.72</ele><time>2012-09-08T22:45:40Z</time></trkpt><trkpt lat="28.262486" lon="-16.602495"><ele>2410.16</ele><time>2012-09-08T22:45:56Z</time></trkpt><trkpt lat="28.262545" lon="-16.602419"><ele>2411.60</ele><time>2012-09-08T22:46:08Z</time></trkpt><trkpt lat="28.262632" lon="-16.602318"><ele>2413.53</ele><time>2012-09-08T22:46:22Z</time></trkpt><trkpt lat="28.262650" lon="-16.602308"><ele>2413.53</ele><time>2012-09-08T22:46:24Z</time></trkpt><trkpt lat="28.262753" lon="-16.602205"><ele>2415.45</ele><time>2012-09-08T22:46:39Z</time></trkpt><trkpt lat="28.262865" lon="-16.602112"><ele>2415.93</ele><time>2012-09-08T22:46:53Z</time></trkpt><trkpt lat="28.262955" lon="-16.602020"><ele>2416.41</ele><time>2012-09-08T22:47:06Z</time></trkpt><trkpt lat="28.263025" lon="-16.601908"><ele>2418.33</ele><time>2012-09-08T22:47:19Z</time></trkpt><trkpt lat="28.263115" lon="-16.601807"><ele>2417.85</ele><time>2012-09-08T22:47:32Z</time></trkpt><trkpt lat="28.263220" lon="-16.601723"><ele>2418.33</ele><time>2012-09-08T22:47:45Z</time></trkpt><trkpt lat="28.263309" lon="-16.601650"><ele>2418.33</ele><time>2012-09-08T22:47:57Z</time></trkpt><trkpt lat="28.263451" lon="-16.601562"><ele>2418.81</ele><time>2012-09-08T22:48:12Z</time></trkpt><trkpt lat="28.263584" lon="-16.601511"><ele>2420.26</ele><time>2012-09-08T22:48:25Z</time></trkpt><trkpt lat="28.263700" lon="-16.601433"><ele>2419.78</ele><time>2012-09-08T22:48:39Z</time></trkpt><trkpt lat="28.263762" lon="-16.601381"><ele>2419.78</ele><time>2012-09-08T22:48:46Z</time></trkpt><trkpt lat="28.263779" lon="-16.601370"><ele>2419.78</ele><time>2012-09-08T22:48:48Z</time></trkpt><trkpt lat="28.263840" lon="-16.601313"><ele>2421.70</ele><time>2012-09-08T22:48:56Z</time></trkpt><trkpt lat="28.263941" lon="-16.601219"><ele>2423.14</ele><time>2012-09-08T22:49:09Z</time></trkpt><trkpt lat="28.263987" lon="-16.601183"><ele>2421.22</ele><time>2012-09-08T22:49:14Z</time></trkpt><trkpt lat="28.263994" lon="-16.601179"><ele>2421.22</ele><time>2012-09-08T22:49:15Z</time></trkpt><trkpt lat="28.264101" lon="-16.601105"><ele>2421.22</ele><time>2012-09-08T22:49:28Z</time></trkpt><trkpt lat="28.264225" lon="-16.601030"><ele>2421.70</ele><time>2012-09-08T22:49:40Z</time></trkpt><trkpt lat="28.264265" lon="-16.601021"><ele>2421.70</ele><time>2012-09-08T22:49:43Z</time></trkpt><trkpt lat="28.264322" lon="-16.601000"><ele>2422.18</ele><time>2012-09-08T22:49:49Z</time></trkpt><trkpt lat="28.264482" lon="-16.600986"><ele>2423.14</ele><time>2012-09-08T22:50:04Z</time></trkpt><trkpt lat="28.264654" lon="-16.601013"><ele>2424.58</ele><time>2012-09-08T22:50:20Z</time></trkpt><trkpt lat="28.264790" lon="-16.601095"><ele>2424.10</ele><time>2012-09-08T22:50:35Z</time></trkpt><trkpt lat="28.264843" lon="-16.601126"><ele>2425.06</ele><time>2012-09-08T22:50:42Z</time></trkpt><trkpt lat="28.264868" lon="-16.601130"><ele>2425.54</ele><time>2012-09-08T22:50:44Z</time></trkpt><trkpt lat="28.264975" lon="-16.601198"><ele>2427.47</ele><time>2012-09-08T22:50:58Z</time></trkpt><trkpt lat="28.265072" lon="-16.601311"><ele>2427.95</ele><time>2012-09-08T22:51:14Z</time></trkpt><trkpt lat="28.265181" lon="-16.601433"><ele>2428.91</ele><time>2012-09-08T22:51:30Z</time></trkpt><trkpt lat="28.265268" lon="-16.601555"><ele>2429.87</ele><time>2012-09-08T22:51:44Z</time></trkpt><trkpt lat="28.265364" lon="-16.601671"><ele>2430.35</ele><time>2012-09-08T22:51:59Z</time></trkpt><trkpt lat="28.265442" lon="-16.601765"><ele>2432.27</ele><time>2012-09-08T22:52:12Z</time></trkpt><trkpt lat="28.265545" lon="-16.601864"><ele>2433.23</ele><time>2012-09-08T22:52:27Z</time></trkpt><trkpt lat="28.265642" lon="-16.601957"><ele>2434.68</ele><time>2012-09-08T22:52:40Z</time></trkpt><trkpt lat="28.265745" lon="-16.602047"><ele>2436.12</ele><time>2012-09-08T22:52:56Z</time></trkpt><trkpt lat="28.265823" lon="-16.602152"><ele>2436.60</ele><time>2012-09-08T22:53:09Z</time></trkpt><trkpt lat="28.265900" lon="-16.602236"><ele>2437.08</ele><time>2012-09-08T22:53:21Z</time></trkpt><trkpt lat="28.266008" lon="-16.602354"><ele>2439.00</ele><time>2012-09-08T22:53:38Z</time></trkpt><trkpt lat="28.266113" lon="-16.602488"><ele>2440.44</ele><time>2012-09-08T22:53:54Z</time></trkpt><trkpt lat="28.266203" lon="-16.602602"><ele>2442.37</ele><time>2012-09-08T22:54:07Z</time></trkpt><trkpt lat="28.266277" lon="-16.602688"><ele>2441.89</ele><time>2012-09-08T22:54:19Z</time></trkpt><trkpt lat="28.266314" lon="-16.602726"><ele>2441.89</ele><time>2012-09-08T22:54:26Z</time></trkpt><trkpt lat="28.266361" lon="-16.602772"><ele>2442.37</ele><time>2012-09-08T22:54:35Z</time></trkpt><trkpt lat="28.266478" lon="-16.602867"><ele>2442.85</ele><time>2012-09-08T22:54:50Z</time></trkpt><trkpt lat="28.266617" lon="-16.602926"><ele>2443.81</ele><time>2012-09-08T22:55:03Z</time></trkpt><trkpt lat="28.266729" lon="-16.603024"><ele>2445.73</ele><time>2012-09-08T22:55:18Z</time></trkpt><trkpt lat="28.266752" lon="-16.603064"><ele>2446.21</ele><time>2012-09-08T22:55:23Z</time></trkpt><trkpt lat="28.266825" lon="-16.603205"><ele>2447.17</ele><time>2012-09-08T22:55:40Z</time></trkpt><trkpt lat="28.266893" lon="-16.603321"><ele>2448.13</ele><time>2012-09-08T22:55:54Z</time></trkpt><trkpt lat="28.266954" lon="-16.603458"><ele>2447.65</ele><time>2012-09-08T22:56:08Z</time></trkpt><trkpt lat="28.267035" lon="-16.603592"><ele>2449.10</ele><time>2012-09-08T22:56:23Z</time></trkpt><trkpt lat="28.267092" lon="-16.603668"><ele>2449.10</ele><time>2012-09-08T22:56:31Z</time></trkpt><trkpt lat="28.267204" lon="-16.603703"><ele>2448.13</ele><time>2012-09-08T22:56:44Z</time></trkpt><trkpt lat="28.267242" lon="-16.603695"><ele>2448.62</ele><time>2012-09-08T22:56:48Z</time></trkpt><trkpt lat="28.267288" lon="-16.603685"><ele>2449.10</ele><time>2012-09-08T22:56:52Z</time></trkpt><trkpt lat="28.267363" lon="-16.603659"><ele>2450.54</ele><time>2012-09-08T22:56:59Z</time></trkpt><trkpt lat="28.267469" lon="-16.603657"><ele>2451.02</ele><time>2012-09-08T22:57:09Z</time></trkpt><trkpt lat="28.267616" lon="-16.603735"><ele>2452.46</ele><time>2012-09-08T22:57:24Z</time></trkpt><trkpt lat="28.267668" lon="-16.603821"><ele>2451.98</ele><time>2012-09-08T22:57:34Z</time></trkpt><trkpt lat="28.267691" lon="-16.603848"><ele>2452.46</ele><time>2012-09-08T22:57:37Z</time></trkpt><trkpt lat="28.267746" lon="-16.603968"><ele>2451.50</ele><time>2012-09-08T22:57:50Z</time></trkpt><trkpt lat="28.267818" lon="-16.604057"><ele>2451.98</ele><time>2012-09-08T22:58:02Z</time></trkpt><trkpt lat="28.267923" lon="-16.604174"><ele>2452.46</ele><time>2012-09-08T22:58:15Z</time></trkpt><trkpt lat="28.268045" lon="-16.604265"><ele>2453.90</ele><time>2012-09-08T22:58:29Z</time></trkpt><trkpt lat="28.268135" lon="-16.604342"><ele>2454.86</ele><time>2012-09-08T22:58:40Z</time></trkpt><trkpt lat="28.268154" lon="-16.604349"><ele>2455.34</ele><time>2012-09-08T22:58:42Z</time></trkpt><trkpt lat="28.268282" lon="-16.604462"><ele>2456.79</ele><time>2012-09-08T22:58:57Z</time></trkpt><trkpt lat="28.268431" lon="-16.604544"><ele>2458.23</ele><time>2012-09-08T22:59:12Z</time></trkpt><trkpt lat="28.268482" lon="-16.604551"><ele>2458.23</ele><time>2012-09-08T22:59:17Z</time></trkpt><trkpt lat="28.268503" lon="-16.604561"><ele>2458.71</ele><time>2012-09-08T22:59:19Z</time></trkpt><trkpt lat="28.268669" lon="-16.604597"><ele>2458.71</ele><time>2012-09-08T22:59:36Z</time></trkpt><trkpt lat="28.268761" lon="-16.604622"><ele>2460.15</ele><time>2012-09-08T22:59:48Z</time></trkpt><trkpt lat="28.268816" lon="-16.604637"><ele>2461.11</ele><time>2012-09-08T22:59:56Z</time></trkpt><trkpt lat="28.268847" lon="-16.604643"><ele>2461.59</ele><time>2012-09-08T23:00:00Z</time></trkpt><trkpt lat="28.268867" lon="-16.604649"><ele>2462.07</ele><time>2012-09-08T23:00:02Z</time></trkpt><trkpt lat="28.268942" lon="-16.604666"><ele>2462.55</ele><time>2012-09-08T23:00:12Z</time></trkpt><trkpt lat="28.268961" lon="-16.604670"><ele>2462.55</ele><time>2012-09-08T23:00:14Z</time></trkpt><trkpt lat="28.269032" lon="-16.604689"><ele>2464.96</ele><time>2012-09-08T23:00:22Z</time></trkpt><trkpt lat="28.269171" lon="-16.604734"><ele>2464.48</ele><time>2012-09-08T23:00:38Z</time></trkpt><trkpt lat="28.269285" lon="-16.604759"><ele>2466.40</ele><time>2012-09-08T23:00:51Z</time></trkpt><trkpt lat="28.269434" lon="-16.604797"><ele>2466.88</ele><time>2012-09-08T23:01:07Z</time></trkpt><trkpt lat="28.269464" lon="-16.604797"><ele>2467.36</ele><time>2012-09-08T23:01:10Z</time></trkpt><trkpt lat="28.269621" lon="-16.604856"><ele>2467.84</ele><time>2012-09-08T23:01:26Z</time></trkpt><trkpt lat="28.269762" lon="-16.604893"><ele>2469.28</ele><time>2012-09-08T23:01:40Z</time></trkpt><trkpt lat="28.269821" lon="-16.604918"><ele>2469.76</ele><time>2012-09-08T23:01:47Z</time></trkpt><trkpt lat="28.269934" lon="-16.604946"><ele>2471.69</ele><time>2012-09-08T23:01:59Z</time></trkpt><trkpt lat="28.269951" lon="-16.604952"><ele>2473.61</ele><time>2012-09-08T23:02:01Z</time></trkpt><trkpt lat="28.270107" lon="-16.605040"><ele>2474.09</ele><time>2012-09-08T23:02:16Z</time></trkpt><trkpt lat="28.270224" lon="-16.605145"><ele>2474.57</ele><time>2012-09-08T23:02:29Z</time></trkpt><trkpt lat="28.270327" lon="-16.605246"><ele>2475.05</ele><time>2012-09-08T23:02:44Z</time></trkpt><trkpt lat="28.270439" lon="-16.605341"><ele>2476.49</ele><time>2012-09-08T23:02:58Z</time></trkpt><trkpt lat="28.270565" lon="-16.605431"><ele>2477.45</ele><time>2012-09-08T23:03:13Z</time></trkpt><trkpt lat="28.270636" lon="-16.605471"><ele>2477.45</ele><time>2012-09-08T23:03:21Z</time></trkpt><trkpt lat="28.270657" lon="-16.605480"><ele>2477.94</ele><time>2012-09-08T23:03:23Z</time></trkpt><trkpt lat="28.270767" lon="-16.605539"><ele>2480.82</ele><time>2012-09-08T23:03:35Z</time></trkpt><trkpt lat="28.270893" lon="-16.605568"><ele>2482.74</ele><time>2012-09-08T23:03:48Z</time></trkpt><trkpt lat="28.271025" lon="-16.605612"><ele>2482.26</ele><time>2012-09-08T23:04:03Z</time></trkpt><trkpt lat="28.271154" lon="-16.605696"><ele>2483.70</ele><time>2012-09-08T23:04:18Z</time></trkpt><trkpt lat="28.271235" lon="-16.605734"><ele>2484.66</ele><time>2012-09-08T23:04:27Z</time></trkpt><trkpt lat="28.271381" lon="-16.605785"><ele>2485.15</ele><time>2012-09-08T23:04:42Z</time></trkpt><trkpt lat="28.271442" lon="-16.605776"><ele>2487.07</ele><time>2012-09-08T23:04:48Z</time></trkpt><trkpt lat="28.271557" lon="-16.605743"><ele>2488.03</ele><time>2012-09-08T23:05:01Z</time></trkpt><trkpt lat="28.271673" lon="-16.605726"><ele>2489.47</ele><time>2012-09-08T23:05:15Z</time></trkpt><trkpt lat="28.271820" lon="-16.605730"><ele>2490.43</ele><time>2012-09-08T23:05:30Z</time></trkpt><trkpt lat="28.271883" lon="-16.605743"><ele>2492.36</ele><time>2012-09-08T23:05:36Z</time></trkpt><trkpt lat="28.272041" lon="-16.605846"><ele>2491.87</ele><time>2012-09-08T23:05:53Z</time></trkpt><trkpt lat="28.272163" lon="-16.605944"><ele>2493.80</ele><time>2012-09-08T23:06:08Z</time></trkpt><trkpt lat="28.272230" lon="-16.606010"><ele>2494.76</ele><time>2012-09-08T23:06:17Z</time></trkpt><trkpt lat="28.272247" lon="-16.606022"><ele>2494.76</ele><time>2012-09-08T23:06:19Z</time></trkpt><trkpt lat="28.272379" lon="-16.606113"><ele>2495.72</ele><time>2012-09-08T23:06:35Z</time></trkpt><trkpt lat="28.272467" lon="-16.606171"><ele>2497.64</ele><time>2012-09-08T23:06:46Z</time></trkpt><trkpt lat="28.272583" lon="-16.606253"><ele>2496.20</ele><time>2012-09-08T23:07:00Z</time></trkpt><trkpt lat="28.272608" lon="-16.606277"><ele>2497.16</ele><time>2012-09-08T23:07:03Z</time></trkpt><trkpt lat="28.272663" lon="-16.606321"><ele>2499.57</ele><time>2012-09-08T23:07:10Z</time></trkpt><trkpt lat="28.272774" lon="-16.606415"><ele>2500.53</ele><time>2012-09-08T23:07:25Z</time></trkpt><trkpt lat="28.272827" lon="-16.606451"><ele>2501.01</ele><time>2012-09-08T23:07:32Z</time></trkpt><trkpt lat="28.272919" lon="-16.606491"><ele>2501.01</ele><time>2012-09-08T23:07:42Z</time></trkpt><trkpt lat="28.272934" lon="-16.606508"><ele>2501.97</ele><time>2012-09-08T23:07:44Z</time></trkpt><trkpt lat="28.272949" lon="-16.606516"><ele>2501.01</ele><time>2012-09-08T23:07:46Z</time></trkpt><trkpt lat="28.273012" lon="-16.606598"><ele>2502.45</ele><time>2012-09-08T23:07:57Z</time></trkpt><trkpt lat="28.273020" lon="-16.606619"><ele>2501.97</ele><time>2012-09-08T23:07:59Z</time></trkpt><trkpt lat="28.273069" lon="-16.606747"><ele>2503.89</ele><time>2012-09-08T23:08:14Z</time></trkpt><trkpt lat="28.273123" lon="-16.606865"><ele>2504.37</ele><time>2012-09-08T23:08:28Z</time></trkpt><trkpt lat="28.273159" lon="-16.606905"><ele>2504.37</ele><time>2012-09-08T23:08:34Z</time></trkpt><trkpt lat="28.273302" lon="-16.606997"><ele>2505.33</ele><time>2012-09-08T23:08:49Z</time></trkpt><trkpt lat="28.273422" lon="-16.607016"><ele>2506.77</ele><time>2012-09-08T23:09:03Z</time></trkpt><trkpt lat="28.273535" lon="-16.607002"><ele>2508.22</ele><time>2012-09-08T23:09:16Z</time></trkpt><trkpt lat="28.273615" lon="-16.606970"><ele>2508.22</ele><time>2012-09-08T23:09:25Z</time></trkpt><trkpt lat="28.273748" lon="-16.606956"><ele>2509.18</ele><time>2012-09-08T23:09:40Z</time></trkpt><trkpt lat="28.273838" lon="-16.606974"><ele>2510.62</ele><time>2012-09-08T23:09:51Z</time></trkpt><trkpt lat="28.273874" lon="-16.606979"><ele>2511.10</ele><time>2012-09-08T23:09:55Z</time></trkpt><trkpt lat="28.273905" lon="-16.606987"><ele>2511.10</ele><time>2012-09-08T23:09:58Z</time></trkpt><trkpt lat="28.273998" lon="-16.607029"><ele>2512.54</ele><time>2012-09-08T23:10:10Z</time></trkpt><trkpt lat="28.274078" lon="-16.607136"><ele>2514.47</ele><time>2012-09-08T23:10:25Z</time></trkpt><trkpt lat="28.274170" lon="-16.607260"><ele>2515.43</ele><time>2012-09-08T23:10:39Z</time></trkpt><trkpt lat="28.274250" lon="-16.607389"><ele>2516.39</ele><time>2012-09-08T23:10:53Z</time></trkpt><trkpt lat="28.274319" lon="-16.607561"><ele>2517.83</ele><time>2012-09-08T23:11:09Z</time></trkpt><trkpt lat="28.274401" lon="-16.607698"><ele>2518.79</ele><time>2012-09-08T23:11:25Z</time></trkpt><trkpt lat="28.274488" lon="-16.607838"><ele>2520.23</ele><time>2012-09-08T23:11:39Z</time></trkpt><trkpt lat="28.274578" lon="-16.607952"><ele>2521.68</ele><time>2012-09-08T23:11:52Z</time></trkpt><trkpt lat="28.274683" lon="-16.608067"><ele>2522.64</ele><time>2012-09-08T23:12:06Z</time></trkpt><trkpt lat="28.274759" lon="-16.608187"><ele>2524.56</ele><time>2012-09-08T23:12:19Z</time></trkpt><trkpt lat="28.274797" lon="-16.608244"><ele>2524.08</ele><time>2012-09-08T23:12:25Z</time></trkpt><trkpt lat="28.274876" lon="-16.608360"><ele>2525.52</ele><time>2012-09-08T23:12:38Z</time></trkpt><trkpt lat="28.274950" lon="-16.608467"><ele>2526.48</ele><time>2012-09-08T23:12:51Z</time></trkpt><trkpt lat="28.275013" lon="-16.608562"><ele>2528.40</ele><time>2012-09-08T23:13:04Z</time></trkpt><trkpt lat="28.275053" lon="-16.608644"><ele>2528.89</ele><time>2012-09-08T23:13:12Z</time></trkpt><trkpt lat="28.275173" lon="-16.608778"><ele>2530.33</ele><time>2012-09-08T23:13:30Z</time></trkpt><trkpt lat="28.275293" lon="-16.608883"><ele>2531.77</ele><time>2012-09-08T23:13:46Z</time></trkpt><trkpt lat="28.275394" lon="-16.608974"><ele>2532.73</ele><time>2012-09-08T23:13:59Z</time></trkpt><trkpt lat="28.275482" lon="-16.609081"><ele>2534.65</ele><time>2012-09-08T23:14:13Z</time></trkpt><trkpt lat="28.275581" lon="-16.609196"><ele>2535.61</ele><time>2012-09-08T23:14:27Z</time></trkpt><trkpt lat="28.275679" lon="-16.609316"><ele>2536.58</ele><time>2012-09-08T23:14:42Z</time></trkpt><trkpt lat="28.275726" lon="-16.609407"><ele>2537.54</ele><time>2012-09-08T23:14:52Z</time></trkpt><trkpt lat="28.275784" lon="-16.609531"><ele>2538.98</ele><time>2012-09-08T23:15:07Z</time></trkpt><trkpt lat="28.275831" lon="-16.609684"><ele>2541.38</ele><time>2012-09-08T23:15:22Z</time></trkpt><trkpt lat="28.275862" lon="-16.609831"><ele>2541.38</ele><time>2012-09-08T23:15:37Z</time></trkpt><trkpt lat="28.275902" lon="-16.609961"><ele>2542.34</ele><time>2012-09-08T23:15:51Z</time></trkpt><trkpt lat="28.275911" lon="-16.609980"><ele>2542.34</ele><time>2012-09-08T23:15:54Z</time></trkpt><trkpt lat="28.276020" lon="-16.610115"><ele>2543.79</ele><time>2012-09-08T23:16:09Z</time></trkpt><trkpt lat="28.276127" lon="-16.610195"><ele>2544.75</ele><time>2012-09-08T23:16:21Z</time></trkpt><trkpt lat="28.276245" lon="-16.610287"><ele>2545.71</ele><time>2012-09-08T23:16:35Z</time></trkpt><trkpt lat="28.276367" lon="-16.610386"><ele>2547.15</ele><time>2012-09-08T23:16:50Z</time></trkpt><trkpt lat="28.276495" lon="-16.610483"><ele>2548.59</ele><time>2012-09-08T23:17:06Z</time></trkpt><trkpt lat="28.276583" lon="-16.610567"><ele>2549.55</ele><time>2012-09-08T23:17:18Z</time></trkpt><trkpt lat="28.276594" lon="-16.610590"><ele>2549.55</ele><time>2012-09-08T23:17:32Z</time></trkpt><trkpt lat="28.276592" lon="-16.610620"><ele>2549.07</ele><time>2012-09-08T23:17:45Z</time></trkpt><trkpt lat="28.276596" lon="-16.610619"><ele>2549.07</ele><time>2012-09-08T23:17:55Z</time></trkpt><trkpt lat="28.276596" lon="-16.610619"><ele>2549.55</ele><time>2012-09-08T23:18:23Z</time></trkpt><trkpt lat="28.276594" lon="-16.610617"><ele>2549.55</ele><time>2012-09-08T23:18:50Z</time></trkpt><trkpt lat="28.276594" lon="-16.610615"><ele>2549.07</ele><time>2012-09-08T23:19:17Z</time></trkpt><trkpt lat="28.276594" lon="-16.610615"><ele>2549.55</ele><time>2012-09-08T23:19:51Z</time></trkpt><trkpt lat="28.276594" lon="-16.610615"><ele>2549.07</ele><time>2012-09-08T23:20:22Z</time></trkpt><trkpt lat="28.276594" lon="-16.610613"><ele>2549.55</ele><time>2012-09-08T23:20:46Z</time></trkpt><trkpt lat="28.276592" lon="-16.610611"><ele>2549.07</ele><time>2012-09-08T23:21:21Z</time></trkpt><trkpt lat="28.276590" lon="-16.610607"><ele>2550.03</ele><time>2012-09-08T23:21:55Z</time></trkpt><trkpt lat="28.276590" lon="-16.610607"><ele>2549.55</ele><time>2012-09-08T23:22:32Z</time></trkpt><trkpt lat="28.276587" lon="-16.610615"><ele>2550.51</ele><time>2012-09-08T23:22:40Z</time></trkpt><trkpt lat="28.276594" lon="-16.610619"><ele>2550.51</ele><time>2012-09-08T23:22:53Z</time></trkpt><trkpt lat="28.276588" lon="-16.610619"><ele>2550.03</ele><time>2012-09-08T23:23:07Z</time></trkpt><trkpt lat="28.276617" lon="-16.610739"><ele>2551.48</ele><time>2012-09-08T23:23:21Z</time></trkpt><trkpt lat="28.276665" lon="-16.610882"><ele>2552.44</ele><time>2012-09-08T23:23:35Z</time></trkpt><trkpt lat="28.276691" lon="-16.611042"><ele>2552.92</ele><time>2012-09-08T23:23:49Z</time></trkpt><trkpt lat="28.276693" lon="-16.611067"><ele>2553.40</ele><time>2012-09-08T23:23:51Z</time></trkpt><trkpt lat="28.276707" lon="-16.611206"><ele>2555.32</ele><time>2012-09-08T23:24:05Z</time></trkpt><trkpt lat="28.276735" lon="-16.611347"><ele>2556.28</ele><time>2012-09-08T23:24:20Z</time></trkpt><trkpt lat="28.276739" lon="-16.611458"><ele>2557.73</ele><time>2012-09-08T23:24:33Z</time></trkpt><trkpt lat="28.276699" lon="-16.611591"><ele>2559.17</ele><time>2012-09-08T23:24:48Z</time></trkpt><trkpt lat="28.276615" lon="-16.611700"><ele>2560.61</ele><time>2012-09-08T23:25:02Z</time></trkpt><trkpt lat="28.276539" lon="-16.611826"><ele>2561.57</ele><time>2012-09-08T23:25:17Z</time></trkpt><trkpt lat="28.276537" lon="-16.611835"><ele>2561.57</ele><time>2012-09-08T23:25:18Z</time></trkpt><trkpt lat="28.276505" lon="-16.611990"><ele>2562.53</ele><time>2012-09-08T23:25:35Z</time></trkpt><trkpt lat="28.276459" lon="-16.612112"><ele>2563.01</ele><time>2012-09-08T23:25:47Z</time></trkpt><trkpt lat="28.276438" lon="-16.612234"><ele>2563.97</ele><time>2012-09-08T23:26:00Z</time></trkpt><trkpt lat="28.276423" lon="-16.612356"><ele>2564.93</ele><time>2012-09-08T23:26:12Z</time></trkpt><trkpt lat="28.276409" lon="-16.612474"><ele>2566.38</ele><time>2012-09-08T23:26:25Z</time></trkpt><trkpt lat="28.276426" lon="-16.612522"><ele>2566.38</ele><time>2012-09-08T23:26:39Z</time></trkpt><trkpt lat="28.276428" lon="-16.612616"><ele>2566.86</ele><time>2012-09-08T23:26:48Z</time></trkpt><trkpt lat="28.276440" lon="-16.612743"><ele>2568.78</ele><time>2012-09-08T23:27:03Z</time></trkpt><trkpt lat="28.276470" lon="-16.612883"><ele>2569.74</ele><time>2012-09-08T23:27:20Z</time></trkpt><trkpt lat="28.276478" lon="-16.612907"><ele>2569.74</ele><time>2012-09-08T23:27:23Z</time></trkpt><trkpt lat="28.276493" lon="-16.613094"><ele>2570.22</ele><time>2012-09-08T23:27:39Z</time></trkpt><trkpt lat="28.276445" lon="-16.613167"><ele>2570.22</ele><time>2012-09-08T23:27:48Z</time></trkpt><trkpt lat="28.276415" lon="-16.613173"><ele>2571.66</ele><time>2012-09-08T23:27:59Z</time></trkpt><trkpt lat="28.276367" lon="-16.613161"><ele>2572.14</ele><time>2012-09-08T23:28:06Z</time></trkpt><trkpt lat="28.276310" lon="-16.613115"><ele>2573.59</ele><time>2012-09-08T23:28:14Z</time></trkpt><trkpt lat="28.276253" lon="-16.612997"><ele>2575.51</ele><time>2012-09-08T23:28:27Z</time></trkpt><trkpt lat="28.276182" lon="-16.612875"><ele>2576.47</ele><time>2012-09-08T23:28:40Z</time></trkpt><trkpt lat="28.276178" lon="-16.612860"><ele>2576.47</ele><time>2012-09-08T23:28:41Z</time></trkpt><trkpt lat="28.276112" lon="-16.612745"><ele>2577.43</ele><time>2012-09-08T23:28:53Z</time></trkpt><trkpt lat="28.276056" lon="-16.612663"><ele>2577.43</ele><time>2012-09-08T23:28:59Z</time></trkpt><trkpt lat="28.275999" lon="-16.612534"><ele>2578.39</ele><time>2012-09-08T23:29:11Z</time></trkpt><trkpt lat="28.275946" lon="-16.612444"><ele>2580.80</ele><time>2012-09-08T23:29:25Z</time></trkpt><trkpt lat="28.275944" lon="-16.612434"><ele>2580.80</ele><time>2012-09-08T23:29:26Z</time></trkpt><trkpt lat="28.275927" lon="-16.612295"><ele>2581.28</ele><time>2012-09-08T23:29:37Z</time></trkpt><trkpt lat="28.275913" lon="-16.612141"><ele>2581.76</ele><time>2012-09-08T23:29:50Z</time></trkpt><trkpt lat="28.275860" lon="-16.612036"><ele>2582.24</ele><time>2012-09-08T23:30:02Z</time></trkpt><trkpt lat="28.275763" lon="-16.611923"><ele>2584.64</ele><time>2012-09-08T23:30:15Z</time></trkpt><trkpt lat="28.275751" lon="-16.611912"><ele>2584.64</ele><time>2012-09-08T23:30:17Z</time></trkpt><trkpt lat="28.275654" lon="-16.611814"><ele>2586.08</ele><time>2012-09-08T23:30:31Z</time></trkpt><trkpt lat="28.275560" lon="-16.611706"><ele>2587.53</ele><time>2012-09-08T23:30:44Z</time></trkpt><trkpt lat="28.275490" lon="-16.611586"><ele>2588.49</ele><time>2012-09-08T23:30:56Z</time></trkpt><trkpt lat="28.275410" lon="-16.611496"><ele>2590.89</ele><time>2012-09-08T23:31:10Z</time></trkpt><trkpt lat="28.275322" lon="-16.611460"><ele>2591.37</ele><time>2012-09-08T23:31:20Z</time></trkpt><trkpt lat="28.275257" lon="-16.611467"><ele>2592.81</ele><time>2012-09-08T23:31:28Z</time></trkpt><trkpt lat="28.275146" lon="-16.611551"><ele>2594.74</ele><time>2012-09-08T23:31:43Z</time></trkpt><trkpt lat="28.275122" lon="-16.611609"><ele>2595.22</ele><time>2012-09-08T23:31:49Z</time></trkpt><trkpt lat="28.275112" lon="-16.611753"><ele>2596.18</ele><time>2012-09-08T23:32:04Z</time></trkpt><trkpt lat="28.275129" lon="-16.611881"><ele>2597.14</ele><time>2012-09-08T23:32:18Z</time></trkpt><trkpt lat="28.275146" lon="-16.612022"><ele>2598.58</ele><time>2012-09-08T23:32:32Z</time></trkpt><trkpt lat="28.275146" lon="-16.612032"><ele>2598.58</ele><time>2012-09-08T23:32:33Z</time></trkpt><trkpt lat="28.275135" lon="-16.612076"><ele>2599.54</ele><time>2012-09-08T23:32:37Z</time></trkpt><trkpt lat="28.275105" lon="-16.612209"><ele>2600.50</ele><time>2012-09-08T23:32:51Z</time></trkpt><trkpt lat="28.275049" lon="-16.612295"><ele>2601.95</ele><time>2012-09-08T23:33:03Z</time></trkpt><trkpt lat="28.274979" lon="-16.612349"><ele>2602.91</ele><time>2012-09-08T23:33:13Z</time></trkpt><trkpt lat="28.274891" lon="-16.612326"><ele>2602.91</ele><time>2012-09-08T23:33:23Z</time></trkpt><trkpt lat="28.274775" lon="-16.612192"><ele>2606.27</ele><time>2012-09-08T23:33:37Z</time></trkpt><trkpt lat="28.274694" lon="-16.612070"><ele>2605.31</ele><time>2012-09-08T23:33:51Z</time></trkpt><trkpt lat="28.274666" lon="-16.612030"><ele>2606.27</ele><time>2012-09-08T23:33:56Z</time></trkpt><trkpt lat="28.274559" lon="-16.611866"><ele>2607.23</ele><time>2012-09-08T23:34:10Z</time></trkpt><trkpt lat="28.274460" lon="-16.611712"><ele>2608.67</ele><time>2012-09-08T23:34:22Z</time></trkpt><trkpt lat="28.274412" lon="-16.611649"><ele>2609.16</ele><time>2012-09-08T23:34:34Z</time></trkpt><trkpt lat="28.274315" lon="-16.611532"><ele>2611.08</ele><time>2012-09-08T23:34:48Z</time></trkpt><trkpt lat="28.274250" lon="-16.611464"><ele>2612.04</ele><time>2012-09-08T23:35:01Z</time></trkpt><trkpt lat="28.274244" lon="-16.611458"><ele>2612.04</ele><time>2012-09-08T23:35:02Z</time></trkpt><trkpt lat="28.274174" lon="-16.611341"><ele>2611.08</ele><time>2012-09-08T23:35:15Z</time></trkpt><trkpt lat="28.274168" lon="-16.611334"><ele>2612.04</ele><time>2012-09-08T23:35:16Z</time></trkpt><trkpt lat="28.274076" lon="-16.611214"><ele>2613.00</ele><time>2012-09-08T23:35:30Z</time></trkpt><trkpt lat="28.273994" lon="-16.611195"><ele>2613.96</ele><time>2012-09-08T23:35:41Z</time></trkpt><trkpt lat="28.273966" lon="-16.611193"><ele>2615.88</ele><time>2012-09-08T23:35:44Z</time></trkpt><trkpt lat="28.273874" lon="-16.611233"><ele>2616.85</ele><time>2012-09-08T23:35:58Z</time></trkpt><trkpt lat="28.273829" lon="-16.611311"><ele>2619.25</ele><time>2012-09-08T23:36:08Z</time></trkpt><trkpt lat="28.273823" lon="-16.611322"><ele>2619.25</ele><time>2012-09-08T23:36:09Z</time></trkpt><trkpt lat="28.273802" lon="-16.611473"><ele>2620.69</ele><time>2012-09-08T23:36:24Z</time></trkpt><trkpt lat="28.273806" lon="-16.611488"><ele>2619.73</ele><time>2012-09-08T23:36:26Z</time></trkpt><trkpt lat="28.273804" lon="-16.611593"><ele>2622.13</ele><time>2012-09-08T23:36:38Z</time></trkpt><trkpt lat="28.273796" lon="-16.611698"><ele>2622.13</ele><time>2012-09-08T23:36:50Z</time></trkpt><trkpt lat="28.273794" lon="-16.611725"><ele>2623.58</ele><time>2012-09-08T23:36:53Z</time></trkpt><trkpt lat="28.273796" lon="-16.611744"><ele>2622.61</ele><time>2012-09-08T23:36:55Z</time></trkpt><trkpt lat="28.273796" lon="-16.611868"><ele>2623.09</ele><time>2012-09-08T23:37:07Z</time></trkpt><trkpt lat="28.273823" lon="-16.612032"><ele>2624.06</ele><time>2012-09-08T23:37:23Z</time></trkpt><trkpt lat="28.273848" lon="-16.612135"><ele>2625.02</ele><time>2012-09-08T23:37:35Z</time></trkpt><trkpt lat="28.273870" lon="-16.612268"><ele>2626.94</ele><time>2012-09-08T23:37:48Z</time></trkpt><trkpt lat="28.273890" lon="-16.612391"><ele>2628.38</ele><time>2012-09-08T23:38:01Z</time></trkpt><trkpt lat="28.273890" lon="-16.612400"><ele>2628.38</ele><time>2012-09-08T23:38:02Z</time></trkpt><trkpt lat="28.273922" lon="-16.612537"><ele>2629.82</ele><time>2012-09-08T23:38:16Z</time></trkpt><trkpt lat="28.273941" lon="-16.612663"><ele>2630.30</ele><time>2012-09-08T23:38:30Z</time></trkpt><trkpt lat="28.273943" lon="-16.612690"><ele>2630.79</ele><time>2012-09-08T23:38:34Z</time></trkpt><trkpt lat="28.273922" lon="-16.612768"><ele>2631.27</ele><time>2012-09-08T23:38:41Z</time></trkpt><trkpt lat="28.273819" lon="-16.612812"><ele>2631.27</ele><time>2012-09-08T23:38:54Z</time></trkpt><trkpt lat="28.273678" lon="-16.612810"><ele>2633.19</ele><time>2012-09-08T23:39:09Z</time></trkpt><trkpt lat="28.273563" lon="-16.612797"><ele>2633.67</ele><time>2012-09-08T23:39:23Z</time></trkpt><trkpt lat="28.273476" lon="-16.612778"><ele>2635.11</ele><time>2012-09-08T23:39:33Z</time></trkpt><trkpt lat="28.273357" lon="-16.612738"><ele>2636.07</ele><time>2012-09-08T23:39:46Z</time></trkpt><trkpt lat="28.273249" lon="-16.612692"><ele>2638.48</ele><time>2012-09-08T23:39:59Z</time></trkpt><trkpt lat="28.273134" lon="-16.612669"><ele>2638.48</ele><time>2012-09-08T23:40:12Z</time></trkpt><trkpt lat="28.273115" lon="-16.612665"><ele>2639.44</ele><time>2012-09-08T23:40:14Z</time></trkpt><trkpt lat="28.273003" lon="-16.612703"><ele>2641.84</ele><time>2012-09-08T23:40:28Z</time></trkpt><trkpt lat="28.272938" lon="-16.612757"><ele>2642.32</ele><time>2012-09-08T23:40:38Z</time></trkpt><trkpt lat="28.272865" lon="-16.612883"><ele>2643.28</ele><time>2012-09-08T23:40:51Z</time></trkpt><trkpt lat="28.272810" lon="-16.612982"><ele>2643.76</ele><time>2012-09-08T23:41:02Z</time></trkpt><trkpt lat="28.272779" lon="-16.613085"><ele>2644.24</ele><time>2012-09-08T23:41:12Z</time></trkpt><trkpt lat="28.272785" lon="-16.613216"><ele>2644.72</ele><time>2012-09-08T23:41:26Z</time></trkpt><trkpt lat="28.272810" lon="-16.613335"><ele>2645.69</ele><time>2012-09-08T23:41:40Z</time></trkpt><trkpt lat="28.272850" lon="-16.613459"><ele>2646.65</ele><time>2012-09-08T23:41:53Z</time></trkpt><trkpt lat="28.272917" lon="-16.613581"><ele>2647.61</ele><time>2012-09-08T23:42:07Z</time></trkpt><trkpt lat="28.273001" lon="-16.613646"><ele>2649.05</ele><time>2012-09-08T23:42:20Z</time></trkpt><trkpt lat="28.273100" lon="-16.613770"><ele>2650.01</ele><time>2012-09-08T23:42:35Z</time></trkpt><trkpt lat="28.273125" lon="-16.613817"><ele>2650.01</ele><time>2012-09-08T23:42:39Z</time></trkpt><trkpt lat="28.273212" lon="-16.613964"><ele>2651.45</ele><time>2012-09-08T23:42:53Z</time></trkpt><trkpt lat="28.273239" lon="-16.613991"><ele>2651.93</ele><time>2012-09-08T23:42:57Z</time></trkpt><trkpt lat="28.273306" lon="-16.614071"><ele>2652.90</ele><time>2012-09-08T23:43:09Z</time></trkpt><trkpt lat="28.273342" lon="-16.614107"><ele>2654.34</ele><time>2012-09-08T23:43:15Z</time></trkpt><trkpt lat="28.273443" lon="-16.614202"><ele>2655.30</ele><time>2012-09-08T23:43:28Z</time></trkpt><trkpt lat="28.273474" lon="-16.614307"><ele>2657.70</ele><time>2012-09-08T23:43:42Z</time></trkpt><trkpt lat="28.273438" lon="-16.614408"><ele>2659.62</ele><time>2012-09-08T23:43:55Z</time></trkpt><trkpt lat="28.273350" lon="-16.614452"><ele>2660.59</ele><time>2012-09-08T23:44:09Z</time></trkpt><trkpt lat="28.273272" lon="-16.614435"><ele>2661.07</ele><time>2012-09-08T23:44:21Z</time></trkpt><trkpt lat="28.273241" lon="-16.614424"><ele>2662.03</ele><time>2012-09-08T23:44:25Z</time></trkpt><trkpt lat="28.273119" lon="-16.614359"><ele>2662.03</ele><time>2012-09-08T23:44:39Z</time></trkpt><trkpt lat="28.273033" lon="-16.614290"><ele>2662.99</ele><time>2012-09-08T23:44:52Z</time></trkpt><trkpt lat="28.272917" lon="-16.614243"><ele>2663.95</ele><time>2012-09-08T23:45:04Z</time></trkpt><trkpt lat="28.272802" lon="-16.614199"><ele>2665.39</ele><time>2012-09-08T23:45:16Z</time></trkpt><trkpt lat="28.272741" lon="-16.614159"><ele>2665.87</ele><time>2012-09-08T23:45:24Z</time></trkpt><trkpt lat="28.272720" lon="-16.614145"><ele>2665.87</ele><time>2012-09-08T23:45:26Z</time></trkpt><trkpt lat="28.272598" lon="-16.614063"><ele>2666.35</ele><time>2012-09-08T23:45:41Z</time></trkpt><trkpt lat="28.272541" lon="-16.614016"><ele>2667.31</ele><time>2012-09-08T23:45:49Z</time></trkpt><trkpt lat="28.272440" lon="-16.613913"><ele>2668.28</ele><time>2012-09-08T23:46:03Z</time></trkpt><trkpt lat="28.272367" lon="-16.613823"><ele>2668.76</ele><time>2012-09-08T23:46:15Z</time></trkpt><trkpt lat="28.272285" lon="-16.613712"><ele>2670.20</ele><time>2012-09-08T23:46:28Z</time></trkpt><trkpt lat="28.272238" lon="-16.613600"><ele>2671.64</ele><time>2012-09-08T23:46:40Z</time></trkpt><trkpt lat="28.272200" lon="-16.613478"><ele>2669.72</ele><time>2012-09-08T23:46:51Z</time></trkpt><trkpt lat="28.272188" lon="-16.613405"><ele>2673.56</ele><time>2012-09-08T23:46:59Z</time></trkpt><trkpt lat="28.272184" lon="-16.613394"><ele>2673.56</ele><time>2012-09-08T23:47:00Z</time></trkpt><trkpt lat="28.272175" lon="-16.613350"><ele>2673.08</ele><time>2012-09-08T23:47:04Z</time></trkpt><trkpt lat="28.272139" lon="-16.613234"><ele>2670.68</ele><time>2012-09-08T23:47:17Z</time></trkpt><trkpt lat="28.272135" lon="-16.613216"><ele>2671.16</ele><time>2012-09-08T23:47:18Z</time></trkpt><trkpt lat="28.272123" lon="-16.613186"><ele>2673.08</ele><time>2012-09-08T23:47:21Z</time></trkpt><trkpt lat="28.272093" lon="-16.613066"><ele>2673.56</ele><time>2012-09-08T23:47:34Z</time></trkpt><trkpt lat="28.272095" lon="-16.613056"><ele>2673.56</ele><time>2012-09-08T23:47:35Z</time></trkpt><trkpt lat="28.272079" lon="-16.613008"><ele>2676.45</ele><time>2012-09-08T23:47:39Z</time></trkpt><trkpt lat="28.272030" lon="-16.612862"><ele>2678.37</ele><time>2012-09-08T23:47:52Z</time></trkpt><trkpt lat="28.272026" lon="-16.612854"><ele>2678.37</ele><time>2012-09-08T23:47:53Z</time></trkpt><trkpt lat="28.271961" lon="-16.612734"><ele>2679.81</ele><time>2012-09-08T23:48:07Z</time></trkpt><trkpt lat="28.271902" lon="-16.612652"><ele>2681.73</ele><time>2012-09-08T23:48:16Z</time></trkpt><trkpt lat="28.271776" lon="-16.612553"><ele>2683.66</ele><time>2012-09-08T23:48:32Z</time></trkpt><trkpt lat="28.271637" lon="-16.612484"><ele>2686.06</ele><time>2012-09-08T23:48:48Z</time></trkpt><trkpt lat="28.271528" lon="-16.612442"><ele>2687.98</ele><time>2012-09-08T23:49:00Z</time></trkpt><trkpt lat="28.271414" lon="-16.612438"><ele>2689.43</ele><time>2012-09-08T23:49:12Z</time></trkpt><trkpt lat="28.271313" lon="-16.612473"><ele>2690.87</ele><time>2012-09-08T23:49:24Z</time></trkpt><trkpt lat="28.271294" lon="-16.612494"><ele>2691.35</ele><time>2012-09-08T23:49:28Z</time></trkpt><trkpt lat="28.271269" lon="-16.612511"><ele>2692.79</ele><time>2012-09-08T23:49:31Z</time></trkpt><trkpt lat="28.271168" lon="-16.612598"><ele>2693.75</ele><time>2012-09-08T23:49:45Z</time></trkpt><trkpt lat="28.271145" lon="-16.612629"><ele>2692.79</ele><time>2012-09-08T23:49:49Z</time></trkpt><trkpt lat="28.271082" lon="-16.612730"><ele>2693.75</ele><time>2012-09-08T23:50:01Z</time></trkpt><trkpt lat="28.271057" lon="-16.612856"><ele>2693.27</ele><time>2012-09-08T23:50:16Z</time></trkpt><trkpt lat="28.271074" lon="-16.612883"><ele>2694.23</ele><time>2012-09-08T23:50:20Z</time></trkpt><trkpt lat="28.271198" lon="-16.612974"><ele>2695.67</ele><time>2012-09-08T23:50:37Z</time></trkpt><trkpt lat="28.271286" lon="-16.613007"><ele>2699.04</ele><time>2012-09-08T23:50:49Z</time></trkpt><trkpt lat="28.271376" lon="-16.613098"><ele>2699.52</ele><time>2012-09-08T23:51:02Z</time></trkpt><trkpt lat="28.271429" lon="-16.613192"><ele>2701.44</ele><time>2012-09-08T23:51:16Z</time></trkpt><trkpt lat="28.271494" lon="-16.613289"><ele>2702.40</ele><time>2012-09-08T23:51:29Z</time></trkpt><trkpt lat="28.271561" lon="-16.613407"><ele>2704.81</ele><time>2012-09-08T23:51:44Z</time></trkpt><trkpt lat="28.271595" lon="-16.613533"><ele>2707.21</ele><time>2012-09-08T23:51:58Z</time></trkpt><trkpt lat="28.271610" lon="-16.613655"><ele>2707.69</ele><time>2012-09-08T23:52:11Z</time></trkpt><trkpt lat="28.271618" lon="-16.613729"><ele>2707.21</ele><time>2012-09-08T23:52:20Z</time></trkpt><trkpt lat="28.271624" lon="-16.613831"><ele>2708.65</ele><time>2012-09-08T23:52:32Z</time></trkpt><trkpt lat="28.271646" lon="-16.613966"><ele>2710.57</ele><time>2012-09-08T23:52:46Z</time></trkpt><trkpt lat="28.271648" lon="-16.614056"><ele>2712.02</ele><time>2012-09-08T23:52:54Z</time></trkpt><trkpt lat="28.271645" lon="-16.614185"><ele>2712.02</ele><time>2012-09-08T23:53:07Z</time></trkpt><trkpt lat="28.271610" lon="-16.614304"><ele>2711.54</ele><time>2012-09-08T23:53:20Z</time></trkpt><trkpt lat="28.271564" lon="-16.614462"><ele>2712.02</ele><time>2012-09-08T23:53:35Z</time></trkpt><trkpt lat="28.271523" lon="-16.614599"><ele>2712.98</ele><time>2012-09-08T23:53:50Z</time></trkpt><trkpt lat="28.271492" lon="-16.614731"><ele>2713.94</ele><time>2012-09-08T23:54:02Z</time></trkpt><trkpt lat="28.271481" lon="-16.614815"><ele>2714.90</ele><time>2012-09-08T23:54:10Z</time></trkpt><trkpt lat="28.271458" lon="-16.614935"><ele>2716.34</ele><time>2012-09-08T23:54:22Z</time></trkpt><trkpt lat="28.271423" lon="-16.615059"><ele>2718.75</ele><time>2012-09-08T23:54:35Z</time></trkpt><trkpt lat="28.271387" lon="-16.615185"><ele>2718.27</ele><time>2012-09-08T23:54:48Z</time></trkpt><trkpt lat="28.271347" lon="-16.615314"><ele>2719.23</ele><time>2012-09-08T23:55:01Z</time></trkpt><trkpt lat="28.271318" lon="-16.615429"><ele>2719.23</ele><time>2012-09-08T23:55:14Z</time></trkpt><trkpt lat="28.271276" lon="-16.615583"><ele>2719.71</ele><time>2012-09-08T23:55:30Z</time></trkpt><trkpt lat="28.271259" lon="-16.615665"><ele>2719.71</ele><time>2012-09-08T23:55:38Z</time></trkpt><trkpt lat="28.271233" lon="-16.615812"><ele>2720.67</ele><time>2012-09-08T23:55:53Z</time></trkpt><trkpt lat="28.271227" lon="-16.615910"><ele>2722.11</ele><time>2012-09-08T23:56:04Z</time></trkpt><trkpt lat="28.271225" lon="-16.616007"><ele>2723.55</ele><time>2012-09-08T23:56:14Z</time></trkpt><trkpt lat="28.271227" lon="-16.616053"><ele>2722.11</ele><time>2012-09-08T23:56:18Z</time></trkpt><trkpt lat="28.271215" lon="-16.616169"><ele>2723.55</ele><time>2012-09-08T23:56:30Z</time></trkpt><trkpt lat="28.271208" lon="-16.616262"><ele>2724.03</ele><time>2012-09-08T23:56:39Z</time></trkpt><trkpt lat="28.271175" lon="-16.616404"><ele>2724.99</ele><time>2012-09-08T23:56:52Z</time></trkpt><trkpt lat="28.271112" lon="-16.616522"><ele>2726.92</ele><time>2012-09-08T23:57:06Z</time></trkpt><trkpt lat="28.271030" lon="-16.616638"><ele>2727.40</ele><time>2012-09-08T23:57:20Z</time></trkpt><trkpt lat="28.270950" lon="-16.616749"><ele>2729.32</ele><time>2012-09-08T23:57:34Z</time></trkpt><trkpt lat="28.270941" lon="-16.616766"><ele>2728.36</ele><time>2012-09-08T23:57:36Z</time></trkpt><trkpt lat="28.270939" lon="-16.616901"><ele>2728.36</ele><time>2012-09-08T23:57:48Z</time></trkpt><trkpt lat="28.270943" lon="-16.617035"><ele>2729.32</ele><time>2012-09-08T23:58:00Z</time></trkpt><trkpt lat="28.270889" lon="-16.617165"><ele>2728.84</ele><time>2012-09-08T23:58:14Z</time></trkpt><trkpt lat="28.270847" lon="-16.617220"><ele>2729.32</ele><time>2012-09-08T23:58:21Z</time></trkpt><trkpt lat="28.270771" lon="-16.617306"><ele>2730.76</ele><time>2012-09-08T23:58:32Z</time></trkpt><trkpt lat="28.270733" lon="-16.617386"><ele>2731.72</ele><time>2012-09-08T23:58:40Z</time></trkpt><trkpt lat="28.270704" lon="-16.617500"><ele>2731.72</ele><time>2012-09-08T23:58:52Z</time></trkpt><trkpt lat="28.270695" lon="-16.617586"><ele>2731.72</ele><time>2012-09-08T23:59:07Z</time></trkpt><trkpt lat="28.270699" lon="-16.617586"><ele>2732.20</ele><time>2012-09-08T23:59:27Z</time></trkpt><trkpt lat="28.270697" lon="-16.617592"><ele>2733.65</ele><time>2012-09-08T23:59:46Z</time></trkpt><trkpt lat="28.270697" lon="-16.617598"><ele>2732.68</ele><time>2012-09-08T23:59:57Z</time></trkpt><trkpt lat="28.270693" lon="-16.617607"><ele>2732.68</ele><time>2012-09-09T00:00:12Z</time></trkpt><trkpt lat="28.270693" lon="-16.617607"><ele>2733.65</ele><time>2012-09-09T00:00:19Z</time></trkpt><trkpt lat="28.270714" lon="-16.617599"><ele>2730.76</ele><time>2012-09-09T00:00:25Z</time></trkpt><trkpt lat="28.270714" lon="-16.617599"><ele>2730.76</ele><time>2012-09-09T00:00:36Z</time></trkpt><trkpt lat="28.270714" lon="-16.617599"><ele>2732.20</ele><time>2012-09-09T00:01:11Z</time></trkpt><trkpt lat="28.270716" lon="-16.617603"><ele>2732.68</ele><time>2012-09-09T00:01:45Z</time></trkpt><trkpt lat="28.270716" lon="-16.617603"><ele>2732.68</ele><time>2012-09-09T00:02:19Z</time></trkpt><trkpt lat="28.270716" lon="-16.617603"><ele>2733.65</ele><time>2012-09-09T00:02:45Z</time></trkpt><trkpt lat="28.270714" lon="-16.617601"><ele>2733.17</ele><time>2012-09-09T00:03:00Z</time></trkpt><trkpt lat="28.270712" lon="-16.617599"><ele>2734.61</ele><time>2012-09-09T00:03:18Z</time></trkpt><trkpt lat="28.270712" lon="-16.617599"><ele>2733.17</ele><time>2012-09-09T00:03:40Z</time></trkpt><trkpt lat="28.270708" lon="-16.617598"><ele>2733.17</ele><time>2012-09-09T00:04:00Z</time></trkpt><trkpt lat="28.270708" lon="-16.617598"><ele>2735.09</ele><time>2012-09-09T00:04:13Z</time></trkpt><trkpt lat="28.270699" lon="-16.617596"><ele>2733.65</ele><time>2012-09-09T00:04:37Z</time></trkpt><trkpt lat="28.270697" lon="-16.617596"><ele>2733.65</ele><time>2012-09-09T00:05:13Z</time></trkpt><trkpt lat="28.270697" lon="-16.617596"><ele>2733.65</ele><time>2012-09-09T00:05:51Z</time></trkpt><trkpt lat="28.270695" lon="-16.617598"><ele>2734.61</ele><time>2012-09-09T00:06:27Z</time></trkpt><trkpt lat="28.270691" lon="-16.617598"><ele>2733.17</ele><time>2012-09-09T00:07:04Z</time></trkpt><trkpt lat="28.270685" lon="-16.617601"><ele>2734.61</ele><time>2012-09-09T00:07:39Z</time></trkpt><trkpt lat="28.270683" lon="-16.617601"><ele>2734.61</ele><time>2012-09-09T00:08:13Z</time></trkpt><trkpt lat="28.270683" lon="-16.617603"><ele>2734.13</ele><time>2012-09-09T00:08:44Z</time></trkpt><trkpt lat="28.270683" lon="-16.617603"><ele>2734.61</ele><time>2012-09-09T00:09:04Z</time></trkpt><trkpt lat="28.270685" lon="-16.617601"><ele>2735.09</ele><time>2012-09-09T00:09:20Z</time></trkpt><trkpt lat="28.270685" lon="-16.617601"><ele>2735.09</ele><time>2012-09-09T00:09:37Z</time></trkpt><trkpt lat="28.270687" lon="-16.617599"><ele>2735.09</ele><time>2012-09-09T00:09:56Z</time></trkpt><trkpt lat="28.270687" lon="-16.617599"><ele>2734.61</ele><time>2012-09-09T00:10:15Z</time></trkpt><trkpt lat="28.270687" lon="-16.617599"><ele>2736.53</ele><time>2012-09-09T00:10:41Z</time></trkpt><trkpt lat="28.270687" lon="-16.617599"><ele>2735.57</ele><time>2012-09-09T00:10:59Z</time></trkpt><trkpt lat="28.270695" lon="-16.617628"><ele>2735.57</ele><time>2012-09-09T00:11:14Z</time></trkpt><trkpt lat="28.270712" lon="-16.617668"><ele>2737.97</ele><time>2012-09-09T00:11:28Z</time></trkpt><trkpt lat="28.270727" lon="-16.617687"><ele>2737.97</ele><time>2012-09-09T00:11:41Z</time></trkpt><trkpt lat="28.270796" lon="-16.617741"><ele>2740.38</ele><time>2012-09-09T00:11:55Z</time></trkpt><trkpt lat="28.270817" lon="-16.617794"><ele>2741.34</ele><time>2012-09-09T00:12:08Z</time></trkpt><trkpt lat="28.270817" lon="-16.617882"><ele>2744.22</ele><time>2012-09-09T00:12:22Z</time></trkpt><trkpt lat="28.270821" lon="-16.617935"><ele>2744.70</ele><time>2012-09-09T00:12:33Z</time></trkpt><trkpt lat="28.270836" lon="-16.617952"><ele>2747.10</ele><time>2012-09-09T00:12:46Z</time></trkpt><trkpt lat="28.270861" lon="-16.618011"><ele>2748.55</ele><time>2012-09-09T00:13:00Z</time></trkpt><trkpt lat="28.270897" lon="-16.618036"><ele>2749.51</ele><time>2012-09-09T00:13:13Z</time></trkpt><trkpt lat="28.270924" lon="-16.618076"><ele>2750.47</ele><time>2012-09-09T00:13:26Z</time></trkpt><trkpt lat="28.270935" lon="-16.618120"><ele>2752.87</ele><time>2012-09-09T00:13:35Z</time></trkpt><trkpt lat="28.270941" lon="-16.618170"><ele>2754.31</ele><time>2012-09-09T00:13:48Z</time></trkpt><trkpt lat="28.270922" lon="-16.618235"><ele>2755.76</ele><time>2012-09-09T00:14:05Z</time></trkpt><trkpt lat="28.270889" lon="-16.618311"><ele>2756.72</ele><time>2012-09-09T00:14:18Z</time></trkpt><trkpt lat="28.270901" lon="-16.618343"><ele>2758.64</ele><time>2012-09-09T00:14:30Z</time></trkpt><trkpt lat="28.270895" lon="-16.618382"><ele>2760.56</ele><time>2012-09-09T00:14:42Z</time></trkpt><trkpt lat="28.270908" lon="-16.618427"><ele>2760.56</ele><time>2012-09-09T00:14:54Z</time></trkpt><trkpt lat="28.270910" lon="-16.618454"><ele>2763.45</ele><time>2012-09-09T00:15:10Z</time></trkpt><trkpt lat="28.270903" lon="-16.618494"><ele>2764.89</ele><time>2012-09-09T00:15:22Z</time></trkpt><trkpt lat="28.270901" lon="-16.618547"><ele>2766.33</ele><time>2012-09-09T00:15:35Z</time></trkpt><trkpt lat="28.270922" lon="-16.618591"><ele>2768.25</ele><time>2012-09-09T00:15:46Z</time></trkpt><trkpt lat="28.270939" lon="-16.618614"><ele>2769.70</ele><time>2012-09-09T00:15:54Z</time></trkpt><trkpt lat="28.271000" lon="-16.618668"><ele>2769.70</ele><time>2012-09-09T00:16:06Z</time></trkpt><trkpt lat="28.271030" lon="-16.618681"><ele>2771.62</ele><time>2012-09-09T00:16:19Z</time></trkpt><trkpt lat="28.271030" lon="-16.618710"><ele>2773.54</ele><time>2012-09-09T00:16:32Z</time></trkpt><trkpt lat="28.271074" lon="-16.618742"><ele>2773.54</ele><time>2012-09-09T00:16:43Z</time></trkpt><trkpt lat="28.271095" lon="-16.618734"><ele>2774.98</ele><time>2012-09-09T00:16:50Z</time></trkpt><trkpt lat="28.271147" lon="-16.618725"><ele>2775.46</ele><time>2012-09-09T00:17:03Z</time></trkpt><trkpt lat="28.271154" lon="-16.618736"><ele>2777.87</ele><time>2012-09-09T00:17:18Z</time></trkpt><trkpt lat="28.271172" lon="-16.618755"><ele>2779.31</ele><time>2012-09-09T00:17:30Z</time></trkpt><trkpt lat="28.271177" lon="-16.618773"><ele>2780.27</ele><time>2012-09-09T00:17:43Z</time></trkpt><trkpt lat="28.271185" lon="-16.618803"><ele>2782.19</ele><time>2012-09-09T00:17:56Z</time></trkpt><trkpt lat="28.271177" lon="-16.618826"><ele>2783.63</ele><time>2012-09-09T00:18:08Z</time></trkpt><trkpt lat="28.271166" lon="-16.618860"><ele>2787.00</ele><time>2012-09-09T00:18:14Z</time></trkpt><trkpt lat="28.271166" lon="-16.618860"><ele>2787.00</ele><time>2012-09-09T00:18:15Z</time></trkpt><trkpt lat="28.271162" lon="-16.618862"><ele>2786.04</ele><time>2012-09-09T00:18:17Z</time></trkpt><trkpt lat="28.271158" lon="-16.618967"><ele>2786.04</ele><time>2012-09-09T00:18:31Z</time></trkpt><trkpt lat="28.271135" lon="-16.618998"><ele>2787.48</ele><time>2012-09-09T00:18:42Z</time></trkpt><trkpt lat="28.271130" lon="-16.619051"><ele>2788.44</ele><time>2012-09-09T00:18:53Z</time></trkpt><trkpt lat="28.271112" lon="-16.619104"><ele>2789.88</ele><time>2012-09-09T00:19:06Z</time></trkpt><trkpt lat="28.271158" lon="-16.619179"><ele>2791.33</ele><time>2012-09-09T00:19:20Z</time></trkpt><trkpt lat="28.271166" lon="-16.619171"><ele>2792.29</ele><time>2012-09-09T00:19:32Z</time></trkpt><trkpt lat="28.271194" lon="-16.619200"><ele>2795.17</ele><time>2012-09-09T00:19:45Z</time></trkpt><trkpt lat="28.271208" lon="-16.619156"><ele>2794.69</ele><time>2012-09-09T00:19:58Z</time></trkpt><trkpt lat="28.271244" lon="-16.619228"><ele>2796.13</ele><time>2012-09-09T00:20:10Z</time></trkpt><trkpt lat="28.271313" lon="-16.619249"><ele>2796.61</ele><time>2012-09-09T00:20:23Z</time></trkpt><trkpt lat="28.271347" lon="-16.619242"><ele>2799.98</ele><time>2012-09-09T00:20:34Z</time></trkpt><trkpt lat="28.271339" lon="-16.619280"><ele>2801.42</ele><time>2012-09-09T00:20:50Z</time></trkpt><trkpt lat="28.271343" lon="-16.619282"><ele>2802.86</ele><time>2012-09-09T00:20:59Z</time></trkpt><trkpt lat="28.271376" lon="-16.619310"><ele>2803.82</ele><time>2012-09-09T00:21:12Z</time></trkpt><trkpt lat="28.271358" lon="-16.619335"><ele>2805.75</ele><time>2012-09-09T00:21:27Z</time></trkpt><trkpt lat="28.271353" lon="-16.619385"><ele>2808.15</ele><time>2012-09-09T00:21:41Z</time></trkpt><trkpt lat="28.271364" lon="-16.619425"><ele>2808.63</ele><time>2012-09-09T00:21:56Z</time></trkpt><trkpt lat="28.271362" lon="-16.619440"><ele>2811.03</ele><time>2012-09-09T00:22:10Z</time></trkpt><trkpt lat="28.271362" lon="-16.619440"><ele>2812.47</ele><time>2012-09-09T00:22:23Z</time></trkpt><trkpt lat="28.271362" lon="-16.619440"><ele>2813.92</ele><time>2012-09-09T00:22:36Z</time></trkpt><trkpt lat="28.271357" lon="-16.619444"><ele>2816.80</ele><time>2012-09-09T00:22:50Z</time></trkpt><trkpt lat="28.271324" lon="-16.619514"><ele>2816.80</ele><time>2012-09-09T00:23:02Z</time></trkpt><trkpt lat="28.271324" lon="-16.619514"><ele>2818.24</ele><time>2012-09-09T00:23:14Z</time></trkpt><trkpt lat="28.271286" lon="-16.619627"><ele>2819.20</ele><time>2012-09-09T00:23:26Z</time></trkpt><trkpt lat="28.271286" lon="-16.619627"><ele>2822.09</ele><time>2012-09-09T00:23:39Z</time></trkpt><trkpt lat="28.271286" lon="-16.619627"><ele>2824.01</ele><time>2012-09-09T00:23:48Z</time></trkpt><trkpt lat="28.271276" lon="-16.619654"><ele>2823.53</ele><time>2012-09-09T00:23:59Z</time></trkpt><trkpt lat="28.271276" lon="-16.619654"><ele>2824.49</ele><time>2012-09-09T00:24:10Z</time></trkpt><trkpt lat="28.271276" lon="-16.619654"><ele>2826.41</ele><time>2012-09-09T00:24:24Z</time></trkpt><trkpt lat="28.271276" lon="-16.619659"><ele>2827.37</ele><time>2012-09-09T00:24:35Z</time></trkpt><trkpt lat="28.271259" lon="-16.619825"><ele>2829.30</ele><time>2012-09-09T00:24:46Z</time></trkpt><trkpt lat="28.271273" lon="-16.619978"><ele>2830.74</ele><time>2012-09-09T00:24:58Z</time></trkpt><trkpt lat="28.271280" lon="-16.619995"><ele>2831.70</ele><time>2012-09-09T00:25:10Z</time></trkpt><trkpt lat="28.271280" lon="-16.619995"><ele>2833.14</ele><time>2012-09-09T00:25:22Z</time></trkpt><trkpt lat="28.271282" lon="-16.620125"><ele>2834.10</ele><time>2012-09-09T00:25:35Z</time></trkpt><trkpt lat="28.271250" lon="-16.620256"><ele>2836.51</ele><time>2012-09-09T00:25:48Z</time></trkpt><trkpt lat="28.271250" lon="-16.620256"><ele>2838.91</ele><time>2012-09-09T00:26:02Z</time></trkpt><trkpt lat="28.271246" lon="-16.620287"><ele>2836.03</ele><time>2012-09-09T00:26:10Z</time></trkpt><trkpt lat="28.271246" lon="-16.620287"><ele>2839.39</ele><time>2012-09-09T00:26:24Z</time></trkpt><trkpt lat="28.271246" lon="-16.620287"><ele>2839.87</ele><time>2012-09-09T00:26:39Z</time></trkpt><trkpt lat="28.271246" lon="-16.620289"><ele>2840.83</ele><time>2012-09-09T00:26:53Z</time></trkpt><trkpt lat="28.271246" lon="-16.620289"><ele>2841.31</ele><time>2012-09-09T00:27:04Z</time></trkpt><trkpt lat="28.271242" lon="-16.620291"><ele>2841.31</ele><time>2012-09-09T00:27:29Z</time></trkpt><trkpt lat="28.271254" lon="-16.620306"><ele>2842.28</ele><time>2012-09-09T00:27:49Z</time></trkpt><trkpt lat="28.271357" lon="-16.620575"><ele>2843.24</ele><time>2012-09-09T00:28:02Z</time></trkpt><trkpt lat="28.271374" lon="-16.620665"><ele>2845.64</ele><time>2012-09-09T00:28:15Z</time></trkpt><trkpt lat="28.271408" lon="-16.620710"><ele>2847.08</ele><time>2012-09-09T00:28:28Z</time></trkpt><trkpt lat="28.271437" lon="-16.620733"><ele>2847.56</ele><time>2012-09-09T00:28:39Z</time></trkpt><trkpt lat="28.271467" lon="-16.620781"><ele>2846.60</ele><time>2012-09-09T00:28:49Z</time></trkpt><trkpt lat="28.271475" lon="-16.620781"><ele>2850.45</ele><time>2012-09-09T00:28:50Z</time></trkpt><trkpt lat="28.271479" lon="-16.620783"><ele>2849.97</ele><time>2012-09-09T00:28:51Z</time></trkpt><trkpt lat="28.271526" lon="-16.620804"><ele>2849.48</ele><time>2012-09-09T00:29:03Z</time></trkpt><trkpt lat="28.271568" lon="-16.620770"><ele>2851.41</ele><time>2012-09-09T00:29:18Z</time></trkpt><trkpt lat="28.271614" lon="-16.620773"><ele>2852.85</ele><time>2012-09-09T00:29:31Z</time></trkpt><trkpt lat="28.271626" lon="-16.620777"><ele>2854.29</ele><time>2012-09-09T00:29:44Z</time></trkpt><trkpt lat="28.271626" lon="-16.620777"><ele>2855.73</ele><time>2012-09-09T00:29:58Z</time></trkpt><trkpt lat="28.271648" lon="-16.620770"><ele>2858.14</ele><time>2012-09-09T00:30:11Z</time></trkpt><trkpt lat="28.271734" lon="-16.620749"><ele>2858.62</ele><time>2012-09-09T00:30:23Z</time></trkpt><trkpt lat="28.271807" lon="-16.620695"><ele>2860.54</ele><time>2012-09-09T00:30:31Z</time></trkpt><trkpt lat="28.271826" lon="-16.620687"><ele>2861.02</ele><time>2012-09-09T00:30:44Z</time></trkpt><trkpt lat="28.271841" lon="-16.620689"><ele>2861.98</ele><time>2012-09-09T00:30:50Z</time></trkpt><trkpt lat="28.271883" lon="-16.620674"><ele>2862.94</ele><time>2012-09-09T00:31:00Z</time></trkpt><trkpt lat="28.271927" lon="-16.620632"><ele>2863.42</ele><time>2012-09-09T00:31:14Z</time></trkpt><trkpt lat="28.271961" lon="-16.620605"><ele>2866.31</ele><time>2012-09-09T00:31:18Z</time></trkpt><trkpt lat="28.271967" lon="-16.620602"><ele>2868.23</ele><time>2012-09-09T00:31:20Z</time></trkpt><trkpt lat="28.272011" lon="-16.620569"><ele>2868.71</ele><time>2012-09-09T00:31:36Z</time></trkpt><trkpt lat="28.272051" lon="-16.620586"><ele>2867.75</ele><time>2012-09-09T00:31:41Z</time></trkpt><trkpt lat="28.272127" lon="-16.620560"><ele>2869.67</ele><time>2012-09-09T00:31:56Z</time></trkpt><trkpt lat="28.272175" lon="-16.620541"><ele>2871.11</ele><time>2012-09-09T00:32:09Z</time></trkpt><trkpt lat="28.272230" lon="-16.620573"><ele>2871.60</ele><time>2012-09-09T00:32:23Z</time></trkpt><trkpt lat="28.272219" lon="-16.620598"><ele>2874.00</ele><time>2012-09-09T00:32:36Z</time></trkpt><trkpt lat="28.272211" lon="-16.620625"><ele>2875.44</ele><time>2012-09-09T00:32:48Z</time></trkpt><trkpt lat="28.272217" lon="-16.620670"><ele>2877.36</ele><time>2012-09-09T00:33:03Z</time></trkpt><trkpt lat="28.272278" lon="-16.620729"><ele>2877.84</ele><time>2012-09-09T00:33:18Z</time></trkpt><trkpt lat="28.272316" lon="-16.620710"><ele>2876.88</ele><time>2012-09-09T00:33:32Z</time></trkpt><trkpt lat="28.272331" lon="-16.620710"><ele>2880.25</ele><time>2012-09-09T00:33:35Z</time></trkpt><trkpt lat="28.272337" lon="-16.620712"><ele>2879.77</ele><time>2012-09-09T00:33:36Z</time></trkpt><trkpt lat="28.272367" lon="-16.620724"><ele>2880.73</ele><time>2012-09-09T00:33:47Z</time></trkpt><trkpt lat="28.272387" lon="-16.620731"><ele>2882.17</ele><time>2012-09-09T00:34:00Z</time></trkpt><trkpt lat="28.272387" lon="-16.620758"><ele>2883.61</ele><time>2012-09-09T00:34:14Z</time></trkpt><trkpt lat="28.272388" lon="-16.620762"><ele>2885.53</ele><time>2012-09-09T00:34:22Z</time></trkpt><trkpt lat="28.272392" lon="-16.620800"><ele>2886.50</ele><time>2012-09-09T00:34:33Z</time></trkpt><trkpt lat="28.272388" lon="-16.620802"><ele>2886.98</ele><time>2012-09-09T00:34:47Z</time></trkpt><trkpt lat="28.272408" lon="-16.620821"><ele>2887.94</ele><time>2012-09-09T00:35:02Z</time></trkpt><trkpt lat="28.272442" lon="-16.620888"><ele>2890.34</ele><time>2012-09-09T00:35:14Z</time></trkpt><trkpt lat="28.272442" lon="-16.620962"><ele>2892.26</ele><time>2012-09-09T00:35:27Z</time></trkpt><trkpt lat="28.272415" lon="-16.621017"><ele>2892.74</ele><time>2012-09-09T00:35:38Z</time></trkpt><trkpt lat="28.272408" lon="-16.621037"><ele>2894.67</ele><time>2012-09-09T00:35:50Z</time></trkpt><trkpt lat="28.272427" lon="-16.621086"><ele>2895.15</ele><time>2012-09-09T00:36:06Z</time></trkpt><trkpt lat="28.272470" lon="-16.621145"><ele>2897.07</ele><time>2012-09-09T00:36:19Z</time></trkpt><trkpt lat="28.272522" lon="-16.621162"><ele>2897.55</ele><time>2012-09-09T00:36:31Z</time></trkpt><trkpt lat="28.272551" lon="-16.621155"><ele>2899.47</ele><time>2012-09-09T00:36:44Z</time></trkpt><trkpt lat="28.272568" lon="-16.621174"><ele>2900.44</ele><time>2012-09-09T00:36:58Z</time></trkpt><trkpt lat="28.272598" lon="-16.621214"><ele>2902.36</ele><time>2012-09-09T00:37:10Z</time></trkpt><trkpt lat="28.272629" lon="-16.621229"><ele>2903.32</ele><time>2012-09-09T00:37:25Z</time></trkpt><trkpt lat="28.272631" lon="-16.621222"><ele>2905.24</ele><time>2012-09-09T00:37:37Z</time></trkpt><trkpt lat="28.272610" lon="-16.621246"><ele>2906.68</ele><time>2012-09-09T00:37:48Z</time></trkpt><trkpt lat="28.272579" lon="-16.621288"><ele>2907.65</ele><time>2012-09-09T00:37:59Z</time></trkpt><trkpt lat="28.272642" lon="-16.621347"><ele>2909.09</ele><time>2012-09-09T00:38:13Z</time></trkpt><trkpt lat="28.272709" lon="-16.621349"><ele>2909.57</ele><time>2012-09-09T00:38:27Z</time></trkpt><trkpt lat="28.272717" lon="-16.621336"><ele>2911.01</ele><time>2012-09-09T00:38:42Z</time></trkpt><trkpt lat="28.272703" lon="-16.621338"><ele>2913.89</ele><time>2012-09-09T00:38:58Z</time></trkpt><trkpt lat="28.272697" lon="-16.621340"><ele>2915.34</ele><time>2012-09-09T00:39:15Z</time></trkpt><trkpt lat="28.272696" lon="-16.621346"><ele>2916.78</ele><time>2012-09-09T00:39:27Z</time></trkpt><trkpt lat="28.272699" lon="-16.621368"><ele>2918.70</ele><time>2012-09-09T00:39:42Z</time></trkpt><trkpt lat="28.272699" lon="-16.621382"><ele>2920.62</ele><time>2012-09-09T00:39:54Z</time></trkpt><trkpt lat="28.272686" lon="-16.621387"><ele>2920.14</ele><time>2012-09-09T00:40:08Z</time></trkpt><trkpt lat="28.272690" lon="-16.621397"><ele>2923.03</ele><time>2012-09-09T00:40:24Z</time></trkpt><trkpt lat="28.272694" lon="-16.621408"><ele>2923.99</ele><time>2012-09-09T00:40:38Z</time></trkpt><trkpt lat="28.272694" lon="-16.621422"><ele>2925.43</ele><time>2012-09-09T00:40:52Z</time></trkpt><trkpt lat="28.272694" lon="-16.621422"><ele>2927.35</ele><time>2012-09-09T00:41:04Z</time></trkpt><trkpt lat="28.272696" lon="-16.621445"><ele>2929.27</ele><time>2012-09-09T00:41:16Z</time></trkpt><trkpt lat="28.272696" lon="-16.621445"><ele>2932.64</ele><time>2012-09-09T00:41:29Z</time></trkpt><trkpt lat="28.272696" lon="-16.621445"><ele>2932.64</ele><time>2012-09-09T00:41:30Z</time></trkpt><trkpt lat="28.272678" lon="-16.621483"><ele>2931.68</ele><time>2012-09-09T00:41:42Z</time></trkpt><trkpt lat="28.272684" lon="-16.621510"><ele>2932.16</ele><time>2012-09-09T00:41:55Z</time></trkpt><trkpt lat="28.272684" lon="-16.621510"><ele>2934.56</ele><time>2012-09-09T00:42:09Z</time></trkpt><trkpt lat="28.272686" lon="-16.621519"><ele>2935.52</ele><time>2012-09-09T00:42:24Z</time></trkpt><trkpt lat="28.272657" lon="-16.621588"><ele>2936.97</ele><time>2012-09-09T00:42:36Z</time></trkpt><trkpt lat="28.272655" lon="-16.621618"><ele>2938.41</ele><time>2012-09-09T00:42:50Z</time></trkpt><trkpt lat="28.272655" lon="-16.621618"><ele>2939.85</ele><time>2012-09-09T00:43:01Z</time></trkpt><trkpt lat="28.272655" lon="-16.621618"><ele>2941.29</ele><time>2012-09-09T00:43:12Z</time></trkpt><trkpt lat="28.272655" lon="-16.621630"><ele>2941.77</ele><time>2012-09-09T00:43:27Z</time></trkpt><trkpt lat="28.272655" lon="-16.621630"><ele>2941.77</ele><time>2012-09-09T00:43:46Z</time></trkpt><trkpt lat="28.272655" lon="-16.621637"><ele>2943.69</ele><time>2012-09-09T00:43:59Z</time></trkpt><trkpt lat="28.272665" lon="-16.621696"><ele>2945.14</ele><time>2012-09-09T00:44:11Z</time></trkpt><trkpt lat="28.272665" lon="-16.621696"><ele>2946.58</ele><time>2012-09-09T00:44:26Z</time></trkpt><trkpt lat="28.272665" lon="-16.621696"><ele>2947.54</ele><time>2012-09-09T00:44:41Z</time></trkpt><trkpt lat="28.272671" lon="-16.621704"><ele>2946.58</ele><time>2012-09-09T00:44:56Z</time></trkpt><trkpt lat="28.272671" lon="-16.621704"><ele>2946.58</ele><time>2012-09-09T00:45:16Z</time></trkpt><trkpt lat="28.272682" lon="-16.621756"><ele>2946.10</ele><time>2012-09-09T00:45:33Z</time></trkpt><trkpt lat="28.272682" lon="-16.621756"><ele>2945.14</ele><time>2012-09-09T00:46:00Z</time></trkpt><trkpt lat="28.272688" lon="-16.621778"><ele>2945.62</ele><time>2012-09-09T00:46:29Z</time></trkpt><trkpt lat="28.272692" lon="-16.621790"><ele>2945.62</ele><time>2012-09-09T00:46:51Z</time></trkpt><trkpt lat="28.272692" lon="-16.621790"><ele>2945.62</ele><time>2012-09-09T00:47:16Z</time></trkpt><trkpt lat="28.272699" lon="-16.621799"><ele>2945.62</ele><time>2012-09-09T00:47:44Z</time></trkpt><trkpt lat="28.272703" lon="-16.621819"><ele>2945.14</ele><time>2012-09-09T00:48:11Z</time></trkpt><trkpt lat="28.272703" lon="-16.621819"><ele>2945.14</ele><time>2012-09-09T00:48:36Z</time></trkpt><trkpt lat="28.272715" lon="-16.621868"><ele>2945.62</ele><time>2012-09-09T00:49:00Z</time></trkpt><trkpt lat="28.272720" lon="-16.621883"><ele>2945.14</ele><time>2012-09-09T00:49:25Z</time></trkpt><trkpt lat="28.272720" lon="-16.621883"><ele>2944.66</ele><time>2012-09-09T00:49:52Z</time></trkpt><trkpt lat="28.272722" lon="-16.621893"><ele>2944.66</ele><time>2012-09-09T00:50:18Z</time></trkpt><trkpt lat="28.272730" lon="-16.621922"><ele>2944.66</ele><time>2012-09-09T00:50:47Z</time></trkpt><trkpt lat="28.272730" lon="-16.621922"><ele>2943.69</ele><time>2012-09-09T00:51:14Z</time></trkpt><trkpt lat="28.272732" lon="-16.621925"><ele>2944.66</ele><time>2012-09-09T00:51:27Z</time></trkpt><trkpt lat="28.272732" lon="-16.621925"><ele>2943.69</ele><time>2012-09-09T00:51:54Z</time></trkpt><trkpt lat="28.272732" lon="-16.621935"><ele>2944.17</ele><time>2012-09-09T00:52:22Z</time></trkpt><trkpt lat="28.272741" lon="-16.621967"><ele>2944.17</ele><time>2012-09-09T00:52:29Z</time></trkpt><trkpt lat="28.272751" lon="-16.622032"><ele>2944.17</ele><time>2012-09-09T00:52:42Z</time></trkpt><trkpt lat="28.272755" lon="-16.622040"><ele>2944.17</ele><time>2012-09-09T00:53:11Z</time></trkpt><trkpt lat="28.272755" lon="-16.622040"><ele>2943.69</ele><time>2012-09-09T00:53:38Z</time></trkpt><trkpt lat="28.272760" lon="-16.622049"><ele>2943.69</ele><time>2012-09-09T00:54:09Z</time></trkpt><trkpt lat="28.272776" lon="-16.622122"><ele>2944.66</ele><time>2012-09-09T00:54:30Z</time></trkpt><trkpt lat="28.272785" lon="-16.622131"><ele>2944.66</ele><time>2012-09-09T00:54:45Z</time></trkpt><trkpt lat="28.272785" lon="-16.622135"><ele>2944.66</ele><time>2012-09-09T00:55:00Z</time></trkpt><trkpt lat="28.272797" lon="-16.622139"><ele>2945.14</ele><time>2012-09-09T00:55:14Z</time></trkpt><trkpt lat="28.272797" lon="-16.622139"><ele>2945.14</ele><time>2012-09-09T00:55:42Z</time></trkpt><trkpt lat="28.272797" lon="-16.622143"><ele>2944.66</ele><time>2012-09-09T00:56:07Z</time></trkpt><trkpt lat="28.272797" lon="-16.622175"><ele>2945.14</ele><time>2012-09-09T00:56:24Z</time></trkpt><trkpt lat="28.272795" lon="-16.622189"><ele>2946.10</ele><time>2012-09-09T00:56:39Z</time></trkpt><trkpt lat="28.272795" lon="-16.622189"><ele>2946.58</ele><time>2012-09-09T00:57:05Z</time></trkpt><trkpt lat="28.272785" lon="-16.622194"><ele>2946.58</ele><time>2012-09-09T00:57:17Z</time></trkpt><trkpt lat="28.272787" lon="-16.622248"><ele>2947.54</ele><time>2012-09-09T00:57:32Z</time></trkpt><trkpt lat="28.272772" lon="-16.622271"><ele>2949.94</ele><time>2012-09-09T00:57:45Z</time></trkpt><trkpt lat="28.272774" lon="-16.622309"><ele>2951.38</ele><time>2012-09-09T00:57:57Z</time></trkpt><trkpt lat="28.272753" lon="-16.622374"><ele>2953.31</ele><time>2012-09-09T00:58:06Z</time></trkpt><trkpt lat="28.272755" lon="-16.622440"><ele>2952.35</ele><time>2012-09-09T00:58:20Z</time></trkpt><trkpt lat="28.272802" lon="-16.622456"><ele>2953.31</ele><time>2012-09-09T00:58:30Z</time></trkpt><trkpt lat="28.272774" lon="-16.622484"><ele>2953.31</ele><time>2012-09-09T00:58:46Z</time></trkpt><trkpt lat="28.272789" lon="-16.622547"><ele>2953.31</ele><time>2012-09-09T00:58:59Z</time></trkpt><trkpt lat="28.272844" lon="-16.622585"><ele>2956.67</ele><time>2012-09-09T00:59:10Z</time></trkpt><trkpt lat="28.272846" lon="-16.622635"><ele>2957.63</ele><time>2012-09-09T00:59:23Z</time></trkpt><trkpt lat="28.272896" lon="-16.622686"><ele>2958.59</ele><time>2012-09-09T00:59:36Z</time></trkpt><trkpt lat="28.272919" lon="-16.622702"><ele>2960.04</ele><time>2012-09-09T00:59:52Z</time></trkpt><trkpt lat="28.272980" lon="-16.622753"><ele>2961.96</ele><time>2012-09-09T01:00:07Z</time></trkpt><trkpt lat="28.272966" lon="-16.622772"><ele>2961.96</ele><time>2012-09-09T01:00:13Z</time></trkpt><trkpt lat="28.272972" lon="-16.622791"><ele>2964.36</ele><time>2012-09-09T01:00:24Z</time></trkpt><trkpt lat="28.273020" lon="-16.622849"><ele>2966.29</ele><time>2012-09-09T01:00:40Z</time></trkpt><trkpt lat="28.273014" lon="-16.622889"><ele>2967.73</ele><time>2012-09-09T01:00:53Z</time></trkpt><trkpt lat="28.272993" lon="-16.622917"><ele>2969.17</ele><time>2012-09-09T01:01:06Z</time></trkpt><trkpt lat="28.272947" lon="-16.622942"><ele>2971.09</ele><time>2012-09-09T01:01:18Z</time></trkpt><trkpt lat="28.272945" lon="-16.622952"><ele>2972.53</ele><time>2012-09-09T01:01:27Z</time></trkpt><trkpt lat="28.272938" lon="-16.622955"><ele>2973.98</ele><time>2012-09-09T01:01:48Z</time></trkpt><trkpt lat="28.272953" lon="-16.623041"><ele>2975.42</ele><time>2012-09-09T01:02:00Z</time></trkpt><trkpt lat="28.272966" lon="-16.623089"><ele>2976.86</ele><time>2012-09-09T01:02:14Z</time></trkpt><trkpt lat="28.272961" lon="-16.623142"><ele>2979.26</ele><time>2012-09-09T01:02:26Z</time></trkpt><trkpt lat="28.272911" lon="-16.623186"><ele>2981.19</ele><time>2012-09-09T01:02:40Z</time></trkpt><trkpt lat="28.272829" lon="-16.623260"><ele>2981.19</ele><time>2012-09-09T01:02:53Z</time></trkpt><trkpt lat="28.272797" lon="-16.623316"><ele>2982.15</ele><time>2012-09-09T01:03:06Z</time></trkpt><trkpt lat="28.272806" lon="-16.623402"><ele>2982.63</ele><time>2012-09-09T01:03:20Z</time></trkpt><trkpt lat="28.272814" lon="-16.623476"><ele>2983.11</ele><time>2012-09-09T01:03:33Z</time></trkpt><trkpt lat="28.272846" lon="-16.623535"><ele>2986.47</ele><time>2012-09-09T01:03:46Z</time></trkpt><trkpt lat="28.272835" lon="-16.623604"><ele>2986.95</ele><time>2012-09-09T01:04:03Z</time></trkpt><trkpt lat="28.272911" lon="-16.623667"><ele>2987.43</ele><time>2012-09-09T01:04:20Z</time></trkpt><trkpt lat="28.272909" lon="-16.623716"><ele>2990.80</ele><time>2012-09-09T01:04:37Z</time></trkpt><trkpt lat="28.272892" lon="-16.623796"><ele>2992.24</ele><time>2012-09-09T01:04:53Z</time></trkpt><trkpt lat="28.272888" lon="-16.623796"><ele>2994.16</ele><time>2012-09-09T01:05:11Z</time></trkpt><trkpt lat="28.272869" lon="-16.623863"><ele>2995.60</ele><time>2012-09-09T01:05:25Z</time></trkpt><trkpt lat="28.272888" lon="-16.623915"><ele>2997.05</ele><time>2012-09-09T01:05:40Z</time></trkpt><trkpt lat="28.272919" lon="-16.623943"><ele>2998.01</ele><time>2012-09-09T01:05:54Z</time></trkpt><trkpt lat="28.272928" lon="-16.623951"><ele>2998.97</ele><time>2012-09-09T01:06:04Z</time></trkpt><trkpt lat="28.273005" lon="-16.623968"><ele>2999.93</ele><time>2012-09-09T01:06:17Z</time></trkpt><trkpt lat="28.273081" lon="-16.623989"><ele>3001.85</ele><time>2012-09-09T01:06:31Z</time></trkpt><trkpt lat="28.273144" lon="-16.623985"><ele>3003.30</ele><time>2012-09-09T01:06:46Z</time></trkpt><trkpt lat="28.273172" lon="-16.624004"><ele>3004.26</ele><time>2012-09-09T01:06:58Z</time></trkpt><trkpt lat="28.273178" lon="-16.624031"><ele>3005.22</ele><time>2012-09-09T01:07:08Z</time></trkpt><trkpt lat="28.273167" lon="-16.624060"><ele>3007.14</ele><time>2012-09-09T01:07:23Z</time></trkpt><trkpt lat="28.273157" lon="-16.624094"><ele>3007.62</ele><time>2012-09-09T01:07:35Z</time></trkpt><trkpt lat="28.273132" lon="-16.624134"><ele>3010.51</ele><time>2012-09-09T01:07:50Z</time></trkpt><trkpt lat="28.273151" lon="-16.624214"><ele>3011.95</ele><time>2012-09-09T01:08:06Z</time></trkpt><trkpt lat="28.273170" lon="-16.624235"><ele>3012.91</ele><time>2012-09-09T01:08:17Z</time></trkpt><trkpt lat="28.273176" lon="-16.624243"><ele>3013.87</ele><time>2012-09-09T01:08:30Z</time></trkpt><trkpt lat="28.273180" lon="-16.624262"><ele>3015.31</ele><time>2012-09-09T01:08:45Z</time></trkpt><trkpt lat="28.273178" lon="-16.624321"><ele>3016.75</ele><time>2012-09-09T01:08:59Z</time></trkpt><trkpt lat="28.273218" lon="-16.624393"><ele>3017.23</ele><time>2012-09-09T01:09:13Z</time></trkpt><trkpt lat="28.273228" lon="-16.624426"><ele>3019.16</ele><time>2012-09-09T01:09:25Z</time></trkpt><trkpt lat="28.273188" lon="-16.624453"><ele>3022.52</ele><time>2012-09-09T01:09:36Z</time></trkpt><trkpt lat="28.273111" lon="-16.624514"><ele>3022.52</ele><time>2012-09-09T01:09:52Z</time></trkpt><trkpt lat="28.273077" lon="-16.624537"><ele>3023.96</ele><time>2012-09-09T01:10:04Z</time></trkpt><trkpt lat="28.273031" lon="-16.624577"><ele>3024.44</ele><time>2012-09-09T01:10:16Z</time></trkpt><trkpt lat="28.273020" lon="-16.624590"><ele>3026.85</ele><time>2012-09-09T01:10:30Z</time></trkpt><trkpt lat="28.273029" lon="-16.624645"><ele>3028.29</ele><time>2012-09-09T01:10:43Z</time></trkpt><trkpt lat="28.273073" lon="-16.624704"><ele>3029.73</ele><time>2012-09-09T01:10:57Z</time></trkpt><trkpt lat="28.273081" lon="-16.624758"><ele>3030.69</ele><time>2012-09-09T01:11:10Z</time></trkpt><trkpt lat="28.273088" lon="-16.624777"><ele>3032.14</ele><time>2012-09-09T01:11:20Z</time></trkpt><trkpt lat="28.273106" lon="-16.624817"><ele>3033.58</ele><time>2012-09-09T01:11:35Z</time></trkpt><trkpt lat="28.273148" lon="-16.624853"><ele>3035.98</ele><time>2012-09-09T01:11:51Z</time></trkpt><trkpt lat="28.273178" lon="-16.624866"><ele>3036.94</ele><time>2012-09-09T01:12:05Z</time></trkpt><trkpt lat="28.273232" lon="-16.624899"><ele>3038.86</ele><time>2012-09-09T01:12:20Z</time></trkpt><trkpt lat="28.273298" lon="-16.624916"><ele>3039.83</ele><time>2012-09-09T01:12:34Z</time></trkpt><trkpt lat="28.273340" lon="-16.624931"><ele>3041.27</ele><time>2012-09-09T01:12:48Z</time></trkpt><trkpt lat="28.273319" lon="-16.624966"><ele>3044.15</ele><time>2012-09-09T01:12:59Z</time></trkpt><trkpt lat="28.273314" lon="-16.625015"><ele>3043.67</ele><time>2012-09-09T01:13:14Z</time></trkpt><trkpt lat="28.273317" lon="-16.625046"><ele>3045.11</ele><time>2012-09-09T01:13:29Z</time></trkpt><trkpt lat="28.273348" lon="-16.625074"><ele>3047.52</ele><time>2012-09-09T01:13:45Z</time></trkpt><trkpt lat="28.273411" lon="-16.625090"><ele>3048.96</ele><time>2012-09-09T01:13:59Z</time></trkpt><trkpt lat="28.273462" lon="-16.625090"><ele>3049.92</ele><time>2012-09-09T01:14:12Z</time></trkpt><trkpt lat="28.273506" lon="-16.625082"><ele>3051.84</ele><time>2012-09-09T01:14:25Z</time></trkpt><trkpt lat="28.273525" lon="-16.625084"><ele>3053.28</ele><time>2012-09-09T01:14:38Z</time></trkpt><trkpt lat="28.273554" lon="-16.625086"><ele>3054.73</ele><time>2012-09-09T01:14:55Z</time></trkpt><trkpt lat="28.273523" lon="-16.625128"><ele>3055.69</ele><time>2012-09-09T01:15:06Z</time></trkpt><trkpt lat="28.273500" lon="-16.625166"><ele>3057.61</ele><time>2012-09-09T01:15:20Z</time></trkpt><trkpt lat="28.273457" lon="-16.625217"><ele>3059.53</ele><time>2012-09-09T01:15:33Z</time></trkpt><trkpt lat="28.273418" lon="-16.625275"><ele>3061.46</ele><time>2012-09-09T01:15:49Z</time></trkpt><trkpt lat="28.273418" lon="-16.625322"><ele>3062.42</ele><time>2012-09-09T01:16:02Z</time></trkpt><trkpt lat="28.273409" lon="-16.625362"><ele>3063.38</ele><time>2012-09-09T01:16:16Z</time></trkpt><trkpt lat="28.273407" lon="-16.625395"><ele>3064.82</ele><time>2012-09-09T01:16:29Z</time></trkpt><trkpt lat="28.273407" lon="-16.625395"><ele>3050.88</ele><time>2012-09-09T01:16:30Z</time></trkpt><trkpt lat="28.273405" lon="-16.625397"><ele>3073.95</ele><time>2012-09-09T01:16:31Z</time></trkpt><trkpt lat="28.273405" lon="-16.625397"><ele>3060.49</ele><time>2012-09-09T01:16:32Z</time></trkpt><trkpt lat="28.273405" lon="-16.625397"><ele>3067.70</ele><time>2012-09-09T01:16:33Z</time></trkpt><trkpt lat="28.273405" lon="-16.625397"><ele>3064.34</ele><time>2012-09-09T01:16:35Z</time></trkpt><trkpt lat="28.273405" lon="-16.625397"><ele>3063.86</ele><time>2012-09-09T01:16:36Z</time></trkpt><trkpt lat="28.273403" lon="-16.625404"><ele>3064.34</ele><time>2012-09-09T01:16:51Z</time></trkpt><trkpt lat="28.273386" lon="-16.625399"><ele>3062.90</ele><time>2012-09-09T01:17:05Z</time></trkpt><trkpt lat="28.273386" lon="-16.625410"><ele>3064.34</ele><time>2012-09-09T01:17:21Z</time></trkpt><trkpt lat="28.273397" lon="-16.625383"><ele>3064.82</ele><time>2012-09-09T01:17:43Z</time></trkpt><trkpt lat="28.273403" lon="-16.625391"><ele>3064.34</ele><time>2012-09-09T01:18:05Z</time></trkpt><trkpt lat="28.273403" lon="-16.625391"><ele>3067.70</ele><time>2012-09-09T01:18:06Z</time></trkpt><trkpt lat="28.273396" lon="-16.625399"><ele>3064.34</ele><time>2012-09-09T01:18:11Z</time></trkpt><trkpt lat="28.273396" lon="-16.625401"><ele>3064.82</ele><time>2012-09-09T01:18:36Z</time></trkpt><trkpt lat="28.273392" lon="-16.625410"><ele>3064.82</ele><time>2012-09-09T01:18:59Z</time></trkpt><trkpt lat="28.273369" lon="-16.625412"><ele>3064.82</ele><time>2012-09-09T01:19:30Z</time></trkpt><trkpt lat="28.273375" lon="-16.625429"><ele>3065.30</ele><time>2012-09-09T01:19:55Z</time></trkpt><trkpt lat="28.273394" lon="-16.625469"><ele>3065.78</ele><time>2012-09-09T01:20:16Z</time></trkpt><trkpt lat="28.273394" lon="-16.625465"><ele>3065.78</ele><time>2012-09-09T01:20:42Z</time></trkpt><trkpt lat="28.273394" lon="-16.625465"><ele>3065.78</ele><time>2012-09-09T01:21:02Z</time></trkpt><trkpt lat="28.273384" lon="-16.625450"><ele>3065.30</ele><time>2012-09-09T01:21:22Z</time></trkpt><trkpt lat="28.273371" lon="-16.625422"><ele>3065.78</ele><time>2012-09-09T01:21:35Z</time></trkpt><trkpt lat="28.273367" lon="-16.625427"><ele>3066.26</ele><time>2012-09-09T01:21:44Z</time></trkpt><trkpt lat="28.273369" lon="-16.625427"><ele>3065.30</ele><time>2012-09-09T01:22:08Z</time></trkpt><trkpt lat="28.273369" lon="-16.625427"><ele>3065.78</ele><time>2012-09-09T01:22:35Z</time></trkpt><trkpt lat="28.273369" lon="-16.625427"><ele>3066.26</ele><time>2012-09-09T01:23:05Z</time></trkpt><trkpt lat="28.273369" lon="-16.625427"><ele>3066.26</ele><time>2012-09-09T01:23:37Z</time></trkpt><trkpt lat="28.273369" lon="-16.625427"><ele>3065.78</ele><time>2012-09-09T01:24:00Z</time></trkpt><trkpt lat="28.273378" lon="-16.625425"><ele>3066.74</ele><time>2012-09-09T01:24:11Z</time></trkpt><trkpt lat="28.273386" lon="-16.625425"><ele>3066.26</ele><time>2012-09-09T01:24:24Z</time></trkpt><trkpt lat="28.273390" lon="-16.625425"><ele>3066.26</ele><time>2012-09-09T01:24:42Z</time></trkpt><trkpt lat="28.273390" lon="-16.625425"><ele>3066.74</ele><time>2012-09-09T01:24:56Z</time></trkpt><trkpt lat="28.273378" lon="-16.625433"><ele>3066.74</ele><time>2012-09-09T01:25:15Z</time></trkpt><trkpt lat="28.273342" lon="-16.625486"><ele>3067.70</ele><time>2012-09-09T01:25:26Z</time></trkpt><trkpt lat="28.273300" lon="-16.625530"><ele>3069.15</ele><time>2012-09-09T01:25:39Z</time></trkpt><trkpt lat="28.273317" lon="-16.625546"><ele>3071.07</ele><time>2012-09-09T01:25:50Z</time></trkpt><trkpt lat="28.273340" lon="-16.625576"><ele>3071.55</ele><time>2012-09-09T01:26:05Z</time></trkpt><trkpt lat="28.273306" lon="-16.625616"><ele>3072.99</ele><time>2012-09-09T01:26:18Z</time></trkpt><trkpt lat="28.273279" lon="-16.625664"><ele>3074.43</ele><time>2012-09-09T01:26:33Z</time></trkpt><trkpt lat="28.273317" lon="-16.625671"><ele>3074.91</ele><time>2012-09-09T01:26:46Z</time></trkpt><trkpt lat="28.273321" lon="-16.625669"><ele>3077.32</ele><time>2012-09-09T01:27:00Z</time></trkpt><trkpt lat="28.273386" lon="-16.625685"><ele>3078.76</ele><time>2012-09-09T01:27:14Z</time></trkpt><trkpt lat="28.273371" lon="-16.625729"><ele>3079.24</ele><time>2012-09-09T01:27:25Z</time></trkpt><trkpt lat="28.273375" lon="-16.625757"><ele>3080.68</ele><time>2012-09-09T01:27:44Z</time></trkpt><trkpt lat="28.273403" lon="-16.625761"><ele>3082.12</ele><time>2012-09-09T01:27:56Z</time></trkpt><trkpt lat="28.273432" lon="-16.625809"><ele>3084.53</ele><time>2012-09-09T01:28:10Z</time></trkpt><trkpt lat="28.273388" lon="-16.625835"><ele>3085.49</ele><time>2012-09-09T01:28:21Z</time></trkpt><trkpt lat="28.273312" lon="-16.625874"><ele>3087.41</ele><time>2012-09-09T01:28:33Z</time></trkpt><trkpt lat="28.273306" lon="-16.625877"><ele>3087.89</ele><time>2012-09-09T01:28:34Z</time></trkpt><trkpt lat="28.273235" lon="-16.625923"><ele>3088.37</ele><time>2012-09-09T01:28:49Z</time></trkpt><trkpt lat="28.273273" lon="-16.625927"><ele>3089.33</ele><time>2012-09-09T01:29:02Z</time></trkpt><trkpt lat="28.273304" lon="-16.625921"><ele>3090.78</ele><time>2012-09-09T01:29:16Z</time></trkpt><trkpt lat="28.273346" lon="-16.625948"><ele>3093.18</ele><time>2012-09-09T01:29:29Z</time></trkpt><trkpt lat="28.273317" lon="-16.625999"><ele>3094.62</ele><time>2012-09-09T01:29:40Z</time></trkpt><trkpt lat="28.273296" lon="-16.626034"><ele>3096.06</ele><time>2012-09-09T01:29:52Z</time></trkpt><trkpt lat="28.273272" lon="-16.626066"><ele>3097.02</ele><time>2012-09-09T01:30:03Z</time></trkpt><trkpt lat="28.273251" lon="-16.626104"><ele>3098.47</ele><time>2012-09-09T01:30:17Z</time></trkpt><trkpt lat="28.273224" lon="-16.626148"><ele>3099.43</ele><time>2012-09-09T01:30:35Z</time></trkpt><trkpt lat="28.273199" lon="-16.626179"><ele>3101.35</ele><time>2012-09-09T01:30:46Z</time></trkpt><trkpt lat="28.273235" lon="-16.626200"><ele>3103.27</ele><time>2012-09-09T01:30:58Z</time></trkpt><trkpt lat="28.273256" lon="-16.626234"><ele>3104.23</ele><time>2012-09-09T01:31:14Z</time></trkpt><trkpt lat="28.273266" lon="-16.626255"><ele>3106.16</ele><time>2012-09-09T01:31:27Z</time></trkpt><trkpt lat="28.273336" lon="-16.626217"><ele>3107.12</ele><time>2012-09-09T01:31:41Z</time></trkpt><trkpt lat="28.273392" lon="-16.626205"><ele>3108.56</ele><time>2012-09-09T01:31:55Z</time></trkpt><trkpt lat="28.273449" lon="-16.626204"><ele>3110.00</ele><time>2012-09-09T01:32:10Z</time></trkpt><trkpt lat="28.273502" lon="-16.626205"><ele>3111.92</ele><time>2012-09-09T01:32:21Z</time></trkpt><trkpt lat="28.273512" lon="-16.626228"><ele>3113.37</ele><time>2012-09-09T01:32:33Z</time></trkpt><trkpt lat="28.273512" lon="-16.626261"><ele>3114.81</ele><time>2012-09-09T01:32:44Z</time></trkpt><trkpt lat="28.273476" lon="-16.626312"><ele>3116.25</ele><time>2012-09-09T01:32:54Z</time></trkpt><trkpt lat="28.273445" lon="-16.626377"><ele>3117.69</ele><time>2012-09-09T01:33:06Z</time></trkpt><trkpt lat="28.273432" lon="-16.626396"><ele>3118.17</ele><time>2012-09-09T01:33:16Z</time></trkpt><trkpt lat="28.273417" lon="-16.626438"><ele>3119.62</ele><time>2012-09-09T01:33:29Z</time></trkpt><trkpt lat="28.273386" lon="-16.626486"><ele>3121.54</ele><time>2012-09-09T01:33:42Z</time></trkpt><trkpt lat="28.273357" lon="-16.626518"><ele>3122.98</ele><time>2012-09-09T01:33:56Z</time></trkpt><trkpt lat="28.273306" lon="-16.626575"><ele>3124.42</ele><time>2012-09-09T01:34:09Z</time></trkpt><trkpt lat="28.273279" lon="-16.626635"><ele>3126.83</ele><time>2012-09-09T01:34:24Z</time></trkpt><trkpt lat="28.273268" lon="-16.626667"><ele>3127.79</ele><time>2012-09-09T01:34:36Z</time></trkpt><trkpt lat="28.273233" lon="-16.626705"><ele>3128.75</ele><time>2012-09-09T01:34:49Z</time></trkpt><trkpt lat="28.273262" lon="-16.626707"><ele>3130.19</ele><time>2012-09-09T01:35:00Z</time></trkpt><trkpt lat="28.273314" lon="-16.626698"><ele>3132.59</ele><time>2012-09-09T01:35:12Z</time></trkpt><trkpt lat="28.273386" lon="-16.626671"><ele>3133.07</ele><time>2012-09-09T01:35:26Z</time></trkpt><trkpt lat="28.273420" lon="-16.626684"><ele>3135.00</ele><time>2012-09-09T01:35:40Z</time></trkpt><trkpt lat="28.273401" lon="-16.626734"><ele>3136.44</ele><time>2012-09-09T01:35:50Z</time></trkpt><trkpt lat="28.273390" lon="-16.626747"><ele>3137.40</ele><time>2012-09-09T01:35:53Z</time></trkpt><trkpt lat="28.273380" lon="-16.626778"><ele>3138.36</ele><time>2012-09-09T01:36:06Z</time></trkpt><trkpt lat="28.273371" lon="-16.626789"><ele>3138.84</ele><time>2012-09-09T01:36:19Z</time></trkpt><trkpt lat="28.273373" lon="-16.626793"><ele>3138.84</ele><time>2012-09-09T01:36:42Z</time></trkpt><trkpt lat="28.273373" lon="-16.626793"><ele>3138.84</ele><time>2012-09-09T01:37:07Z</time></trkpt><trkpt lat="28.273373" lon="-16.626793"><ele>3138.36</ele><time>2012-09-09T01:37:41Z</time></trkpt><trkpt lat="28.273373" lon="-16.626793"><ele>3138.84</ele><time>2012-09-09T01:38:10Z</time></trkpt><trkpt lat="28.273371" lon="-16.626795"><ele>3138.84</ele><time>2012-09-09T01:38:39Z</time></trkpt><trkpt lat="28.273371" lon="-16.626795"><ele>3138.84</ele><time>2012-09-09T01:39:06Z</time></trkpt><trkpt lat="28.273371" lon="-16.626795"><ele>3139.80</ele><time>2012-09-09T01:39:34Z</time></trkpt><trkpt lat="28.273371" lon="-16.626795"><ele>3139.80</ele><time>2012-09-09T01:40:03Z</time></trkpt><trkpt lat="28.273371" lon="-16.626797"><ele>3139.80</ele><time>2012-09-09T01:40:41Z</time></trkpt><trkpt lat="28.273371" lon="-16.626799"><ele>3139.80</ele><time>2012-09-09T01:41:17Z</time></trkpt><trkpt lat="28.273371" lon="-16.626799"><ele>3140.28</ele><time>2012-09-09T01:41:51Z</time></trkpt><trkpt lat="28.273369" lon="-16.626801"><ele>3141.25</ele><time>2012-09-09T01:42:22Z</time></trkpt><trkpt lat="28.273365" lon="-16.626808"><ele>3140.76</ele><time>2012-09-09T01:42:45Z</time></trkpt><trkpt lat="28.273333" lon="-16.626842"><ele>3141.73</ele><time>2012-09-09T01:43:07Z</time></trkpt><trkpt lat="28.273277" lon="-16.626911"><ele>3143.17</ele><time>2012-09-09T01:43:19Z</time></trkpt><trkpt lat="28.273224" lon="-16.626957"><ele>3145.09</ele><time>2012-09-09T01:43:33Z</time></trkpt><trkpt lat="28.273258" lon="-16.626972"><ele>3146.53</ele><time>2012-09-09T01:43:45Z</time></trkpt><trkpt lat="28.273296" lon="-16.626959"><ele>3147.97</ele><time>2012-09-09T01:43:55Z</time></trkpt><trkpt lat="28.273357" lon="-16.626932"><ele>3149.42</ele><time>2012-09-09T01:44:08Z</time></trkpt><trkpt lat="28.273407" lon="-16.626917"><ele>3150.86</ele><time>2012-09-09T01:44:21Z</time></trkpt><trkpt lat="28.273485" lon="-16.626905"><ele>3152.78</ele><time>2012-09-09T01:44:34Z</time></trkpt><trkpt lat="28.273441" lon="-16.626978"><ele>3154.22</ele><time>2012-09-09T01:44:47Z</time></trkpt><trkpt lat="28.273375" lon="-16.627068"><ele>3156.63</ele><time>2012-09-09T01:45:02Z</time></trkpt><trkpt lat="28.273331" lon="-16.627140"><ele>3158.55</ele><time>2012-09-09T01:45:15Z</time></trkpt><trkpt lat="28.273291" lon="-16.627190"><ele>3159.03</ele><time>2012-09-09T01:45:28Z</time></trkpt><trkpt lat="28.273270" lon="-16.627235"><ele>3160.95</ele><time>2012-09-09T01:45:44Z</time></trkpt><trkpt lat="28.273254" lon="-16.627277"><ele>3163.36</ele><time>2012-09-09T01:45:55Z</time></trkpt><trkpt lat="28.273306" lon="-16.627264"><ele>3164.80</ele><time>2012-09-09T01:46:07Z</time></trkpt><trkpt lat="28.273354" lon="-16.627239"><ele>3165.28</ele><time>2012-09-09T01:46:15Z</time></trkpt><trkpt lat="28.273417" lon="-16.627214"><ele>3166.72</ele><time>2012-09-09T01:46:28Z</time></trkpt><trkpt lat="28.273485" lon="-16.627220"><ele>3168.16</ele><time>2012-09-09T01:46:40Z</time></trkpt><trkpt lat="28.273525" lon="-16.627205"><ele>3170.08</ele><time>2012-09-09T01:46:52Z</time></trkpt><trkpt lat="28.273592" lon="-16.627157"><ele>3171.53</ele><time>2012-09-09T01:47:06Z</time></trkpt><trkpt lat="28.273645" lon="-16.627165"><ele>3172.49</ele><time>2012-09-09T01:47:19Z</time></trkpt><trkpt lat="28.273638" lon="-16.627228"><ele>3174.89</ele><time>2012-09-09T01:47:36Z</time></trkpt><trkpt lat="28.273636" lon="-16.627279"><ele>3176.33</ele><time>2012-09-09T01:47:49Z</time></trkpt><trkpt lat="28.273596" lon="-16.627367"><ele>3177.78</ele><time>2012-09-09T01:48:03Z</time></trkpt><trkpt lat="28.273565" lon="-16.627434"><ele>3179.22</ele><time>2012-09-09T01:48:18Z</time></trkpt><trkpt lat="28.273607" lon="-16.627453"><ele>3180.66</ele><time>2012-09-09T01:48:29Z</time></trkpt><trkpt lat="28.273661" lon="-16.627434"><ele>3184.02</ele><time>2012-09-09T01:48:42Z</time></trkpt><trkpt lat="28.273699" lon="-16.627434"><ele>3184.98</ele><time>2012-09-09T01:48:51Z</time></trkpt><trkpt lat="28.273767" lon="-16.627413"><ele>3184.98</ele><time>2012-09-09T01:49:06Z</time></trkpt><trkpt lat="28.273815" lon="-16.627420"><ele>3186.43</ele><time>2012-09-09T01:49:19Z</time></trkpt><trkpt lat="28.273870" lon="-16.627434"><ele>3188.83</ele><time>2012-09-09T01:49:34Z</time></trkpt><trkpt lat="28.273901" lon="-16.627447"><ele>3188.35</ele><time>2012-09-09T01:49:44Z</time></trkpt><trkpt lat="28.273901" lon="-16.627447"><ele>3191.23</ele><time>2012-09-09T01:49:56Z</time></trkpt><trkpt lat="28.273933" lon="-16.627493"><ele>3192.68</ele><time>2012-09-09T01:50:10Z</time></trkpt><trkpt lat="28.273987" lon="-16.627548"><ele>3193.16</ele><time>2012-09-09T01:50:24Z</time></trkpt><trkpt lat="28.273989" lon="-16.627563"><ele>3194.60</ele><time>2012-09-09T01:50:35Z</time></trkpt><trkpt lat="28.274008" lon="-16.627645"><ele>3196.52</ele><time>2012-09-09T01:50:52Z</time></trkpt><trkpt lat="28.274012" lon="-16.627668"><ele>3197.00</ele><time>2012-09-09T01:51:04Z</time></trkpt><trkpt lat="28.273981" lon="-16.627731"><ele>3198.92</ele><time>2012-09-09T01:51:18Z</time></trkpt><trkpt lat="28.273956" lon="-16.627762"><ele>3199.89</ele><time>2012-09-09T01:51:35Z</time></trkpt><trkpt lat="28.273920" lon="-16.627829"><ele>3201.81</ele><time>2012-09-09T01:51:48Z</time></trkpt><trkpt lat="28.273878" lon="-16.627874"><ele>3203.25</ele><time>2012-09-09T01:52:04Z</time></trkpt><trkpt lat="28.273878" lon="-16.627874"><ele>3202.77</ele><time>2012-09-09T01:52:30Z</time></trkpt><trkpt lat="28.273876" lon="-16.627876"><ele>3203.73</ele><time>2012-09-09T01:52:48Z</time></trkpt><trkpt lat="28.273876" lon="-16.627876"><ele>3203.25</ele><time>2012-09-09T01:53:12Z</time></trkpt><trkpt lat="28.273876" lon="-16.627876"><ele>3203.25</ele><time>2012-09-09T01:53:37Z</time></trkpt><trkpt lat="28.273869" lon="-16.627895"><ele>3204.21</ele><time>2012-09-09T01:53:51Z</time></trkpt><trkpt lat="28.273905" lon="-16.627941"><ele>3206.13</ele><time>2012-09-09T01:54:02Z</time></trkpt><trkpt lat="28.273888" lon="-16.627991"><ele>3207.58</ele><time>2012-09-09T01:54:13Z</time></trkpt><trkpt lat="28.273897" lon="-16.628002"><ele>3210.46</ele><time>2012-09-09T01:54:27Z</time></trkpt><trkpt lat="28.273897" lon="-16.628002"><ele>3210.94</ele><time>2012-09-09T01:54:40Z</time></trkpt><trkpt lat="28.273907" lon="-16.628010"><ele>3211.90</ele><time>2012-09-09T01:55:13Z</time></trkpt><trkpt lat="28.273912" lon="-16.628016"><ele>3210.94</ele><time>2012-09-09T01:55:38Z</time></trkpt><trkpt lat="28.273912" lon="-16.628016"><ele>3211.42</ele><time>2012-09-09T01:56:08Z</time></trkpt><trkpt lat="28.273916" lon="-16.628017"><ele>3211.90</ele><time>2012-09-09T01:56:40Z</time></trkpt><trkpt lat="28.273916" lon="-16.628017"><ele>3211.90</ele><time>2012-09-09T01:56:52Z</time></trkpt><trkpt lat="28.273930" lon="-16.628036"><ele>3211.42</ele><time>2012-09-09T01:57:13Z</time></trkpt><trkpt lat="28.273928" lon="-16.628036"><ele>3210.94</ele><time>2012-09-09T01:57:26Z</time></trkpt><trkpt lat="28.273928" lon="-16.628036"><ele>3211.42</ele><time>2012-09-09T01:57:48Z</time></trkpt><trkpt lat="28.273937" lon="-16.628038"><ele>3212.38</ele><time>2012-09-09T01:58:01Z</time></trkpt><trkpt lat="28.273941" lon="-16.628044"><ele>3212.86</ele><time>2012-09-09T01:58:21Z</time></trkpt><trkpt lat="28.273985" lon="-16.628098"><ele>3213.82</ele><time>2012-09-09T01:58:32Z</time></trkpt><trkpt lat="28.274021" lon="-16.628101"><ele>3216.23</ele><time>2012-09-09T01:58:43Z</time></trkpt><trkpt lat="28.274067" lon="-16.628124"><ele>3217.19</ele><time>2012-09-09T01:58:55Z</time></trkpt><trkpt lat="28.274073" lon="-16.628155"><ele>3220.07</ele><time>2012-09-09T01:59:12Z</time></trkpt><trkpt lat="28.274023" lon="-16.628223"><ele>3220.55</ele><time>2012-09-09T01:59:26Z</time></trkpt><trkpt lat="28.273973" lon="-16.628237"><ele>3222.00</ele><time>2012-09-09T01:59:39Z</time></trkpt><trkpt lat="28.273869" lon="-16.628242"><ele>3222.00</ele><time>2012-09-09T01:59:52Z</time></trkpt><trkpt lat="28.273825" lon="-16.628271"><ele>3223.44</ele><time>2012-09-09T02:00:07Z</time></trkpt><trkpt lat="28.273840" lon="-16.628281"><ele>3225.36</ele><time>2012-09-09T02:00:17Z</time></trkpt><trkpt lat="28.273823" lon="-16.628326"><ele>3226.80</ele><time>2012-09-09T02:00:27Z</time></trkpt><trkpt lat="28.273806" lon="-16.628347"><ele>3227.76</ele><time>2012-09-09T02:00:39Z</time></trkpt><trkpt lat="28.273758" lon="-16.628370"><ele>3229.69</ele><time>2012-09-09T02:00:54Z</time></trkpt><trkpt lat="28.273758" lon="-16.628407"><ele>3230.65</ele><time>2012-09-09T02:01:09Z</time></trkpt><trkpt lat="28.273729" lon="-16.628424"><ele>3231.61</ele><time>2012-09-09T02:01:18Z</time></trkpt><trkpt lat="28.273699" lon="-16.628452"><ele>3233.53</ele><time>2012-09-09T02:01:31Z</time></trkpt><trkpt lat="28.273699" lon="-16.628452"><ele>3234.49</ele><time>2012-09-09T02:01:57Z</time></trkpt><trkpt lat="28.273682" lon="-16.628458"><ele>3234.01</ele><time>2012-09-09T02:02:18Z</time></trkpt><trkpt lat="28.273668" lon="-16.628502"><ele>3234.49</ele><time>2012-09-09T02:02:29Z</time></trkpt><trkpt lat="28.273657" lon="-16.628542"><ele>3236.90</ele><time>2012-09-09T02:02:42Z</time></trkpt><trkpt lat="28.273624" lon="-16.628588"><ele>3237.86</ele><time>2012-09-09T02:02:55Z</time></trkpt><trkpt lat="28.273632" lon="-16.628630"><ele>3239.78</ele><time>2012-09-09T02:03:07Z</time></trkpt><trkpt lat="28.273657" lon="-16.628635"><ele>3241.70</ele><time>2012-09-09T02:03:21Z</time></trkpt><trkpt lat="28.273724" lon="-16.628622"><ele>3242.66</ele><time>2012-09-09T02:03:34Z</time></trkpt><trkpt lat="28.273706" lon="-16.628704"><ele>3244.11</ele><time>2012-09-09T02:03:48Z</time></trkpt><trkpt lat="28.273672" lon="-16.628765"><ele>3246.99</ele><time>2012-09-09T02:04:04Z</time></trkpt><trkpt lat="28.273703" lon="-16.628765"><ele>3247.47</ele><time>2012-09-09T02:04:16Z</time></trkpt><trkpt lat="28.273708" lon="-16.628759"><ele>3247.47</ele><time>2012-09-09T02:04:30Z</time></trkpt><trkpt lat="28.273760" lon="-16.628763"><ele>3249.87</ele><time>2012-09-09T02:04:44Z</time></trkpt><trkpt lat="28.273748" lon="-16.628845"><ele>3251.80</ele><time>2012-09-09T02:04:56Z</time></trkpt><trkpt lat="28.273726" lon="-16.628904"><ele>3252.28</ele><time>2012-09-09T02:05:09Z</time></trkpt><trkpt lat="28.273754" lon="-16.628933"><ele>3254.68</ele><time>2012-09-09T02:05:18Z</time></trkpt><trkpt lat="28.273769" lon="-16.628992"><ele>3256.12</ele><time>2012-09-09T02:05:30Z</time></trkpt><trkpt lat="28.273792" lon="-16.629004"><ele>3257.56</ele><time>2012-09-09T02:05:44Z</time></trkpt><trkpt lat="28.273815" lon="-16.629074"><ele>3259.49</ele><time>2012-09-09T02:05:57Z</time></trkpt><trkpt lat="28.273817" lon="-16.629145"><ele>3260.93</ele><time>2012-09-09T02:06:10Z</time></trkpt><trkpt lat="28.273821" lon="-16.629206"><ele>3262.85</ele><time>2012-09-09T02:06:21Z</time></trkpt><trkpt lat="28.273872" lon="-16.629202"><ele>3263.33</ele><time>2012-09-09T02:06:34Z</time></trkpt><trkpt lat="28.273939" lon="-16.629187"><ele>3264.77</ele><time>2012-09-09T02:06:47Z</time></trkpt><trkpt lat="28.273977" lon="-16.629221"><ele>3266.70</ele><time>2012-09-09T02:06:59Z</time></trkpt><trkpt lat="28.273979" lon="-16.629269"><ele>3267.66</ele><time>2012-09-09T02:07:12Z</time></trkpt><trkpt lat="28.274010" lon="-16.629335"><ele>3270.06</ele><time>2012-09-09T02:07:26Z</time></trkpt><trkpt lat="28.274050" lon="-16.629366"><ele>3270.54</ele><time>2012-09-09T02:07:35Z</time></trkpt><trkpt lat="28.274113" lon="-16.629324"><ele>3271.02</ele><time>2012-09-09T02:07:48Z</time></trkpt><trkpt lat="28.274113" lon="-16.629314"><ele>3271.50</ele><time>2012-09-09T02:07:59Z</time></trkpt><trkpt lat="28.274115" lon="-16.629314"><ele>3271.02</ele><time>2012-09-09T02:08:13Z</time></trkpt><trkpt lat="28.274115" lon="-16.629314"><ele>3271.02</ele><time>2012-09-09T02:08:36Z</time></trkpt><trkpt lat="28.274117" lon="-16.629314"><ele>3271.02</ele><time>2012-09-09T02:09:08Z</time></trkpt><trkpt lat="28.274117" lon="-16.629316"><ele>3271.02</ele><time>2012-09-09T02:09:35Z</time></trkpt><trkpt lat="28.274117" lon="-16.629316"><ele>3271.02</ele><time>2012-09-09T02:10:05Z</time></trkpt><trkpt lat="28.274118" lon="-16.629316"><ele>3271.50</ele><time>2012-09-09T02:10:35Z</time></trkpt><trkpt lat="28.274122" lon="-16.629320"><ele>3272.46</ele><time>2012-09-09T02:10:56Z</time></trkpt><trkpt lat="28.274122" lon="-16.629320"><ele>3271.02</ele><time>2012-09-09T02:11:23Z</time></trkpt><trkpt lat="28.274122" lon="-16.629320"><ele>3271.50</ele><time>2012-09-09T02:11:48Z</time></trkpt><trkpt lat="28.274122" lon="-16.629320"><ele>3271.98</ele><time>2012-09-09T02:12:08Z</time></trkpt><trkpt lat="28.274122" lon="-16.629322"><ele>3271.02</ele><time>2012-09-09T02:12:33Z</time></trkpt><trkpt lat="28.274122" lon="-16.629322"><ele>3271.02</ele><time>2012-09-09T02:13:06Z</time></trkpt><trkpt lat="28.274124" lon="-16.629322"><ele>3271.50</ele><time>2012-09-09T02:13:33Z</time></trkpt><trkpt lat="28.274132" lon="-16.629332"><ele>3271.02</ele><time>2012-09-09T02:13:55Z</time></trkpt><trkpt lat="28.274136" lon="-16.629332"><ele>3271.50</ele><time>2012-09-09T02:14:15Z</time></trkpt><trkpt lat="28.274136" lon="-16.629332"><ele>3271.98</ele><time>2012-09-09T02:14:44Z</time></trkpt><trkpt lat="28.274136" lon="-16.629333"><ele>3271.98</ele><time>2012-09-09T02:15:16Z</time></trkpt><trkpt lat="28.274132" lon="-16.629337"><ele>3272.46</ele><time>2012-09-09T02:15:50Z</time></trkpt><trkpt lat="28.274130" lon="-16.629335"><ele>3272.46</ele><time>2012-09-09T02:16:24Z</time></trkpt><trkpt lat="28.274126" lon="-16.629335"><ele>3272.46</ele><time>2012-09-09T02:16:58Z</time></trkpt><trkpt lat="28.274120" lon="-16.629335"><ele>3272.46</ele><time>2012-09-09T02:17:28Z</time></trkpt><trkpt lat="28.274120" lon="-16.629335"><ele>3272.46</ele><time>2012-09-09T02:18:01Z</time></trkpt><trkpt lat="28.274115" lon="-16.629335"><ele>3272.95</ele><time>2012-09-09T02:18:34Z</time></trkpt><trkpt lat="28.274111" lon="-16.629335"><ele>3272.46</ele><time>2012-09-09T02:19:05Z</time></trkpt><trkpt lat="28.274105" lon="-16.629337"><ele>3272.46</ele><time>2012-09-09T02:19:38Z</time></trkpt><trkpt lat="28.274101" lon="-16.629339"><ele>3272.95</ele><time>2012-09-09T02:20:08Z</time></trkpt><trkpt lat="28.274101" lon="-16.629339"><ele>3272.95</ele><time>2012-09-09T02:20:40Z</time></trkpt><trkpt lat="28.274099" lon="-16.629339"><ele>3272.95</ele><time>2012-09-09T02:21:09Z</time></trkpt><trkpt lat="28.274099" lon="-16.629339"><ele>3272.46</ele><time>2012-09-09T02:21:36Z</time></trkpt><trkpt lat="28.274099" lon="-16.629339"><ele>3273.91</ele><time>2012-09-09T02:22:03Z</time></trkpt><trkpt lat="28.274092" lon="-16.629341"><ele>3273.43</ele><time>2012-09-09T02:22:28Z</time></trkpt><trkpt lat="28.274090" lon="-16.629339"><ele>3273.43</ele><time>2012-09-09T02:22:59Z</time></trkpt><trkpt lat="28.274090" lon="-16.629339"><ele>3273.43</ele><time>2012-09-09T02:23:31Z</time></trkpt><trkpt lat="28.274090" lon="-16.629339"><ele>3273.43</ele><time>2012-09-09T02:24:03Z</time></trkpt><trkpt lat="28.274090" lon="-16.629339"><ele>3273.91</ele><time>2012-09-09T02:24:31Z</time></trkpt><trkpt lat="28.274090" lon="-16.629341"><ele>3273.91</ele><time>2012-09-09T02:25:03Z</time></trkpt><trkpt lat="28.274090" lon="-16.629341"><ele>3273.91</ele><time>2012-09-09T02:25:27Z</time></trkpt><trkpt lat="28.274092" lon="-16.629341"><ele>3273.91</ele><time>2012-09-09T02:25:57Z</time></trkpt><trkpt lat="28.274096" lon="-16.629339"><ele>3274.39</ele><time>2012-09-09T02:26:29Z</time></trkpt><trkpt lat="28.274097" lon="-16.629339"><ele>3273.91</ele><time>2012-09-09T02:26:55Z</time></trkpt><trkpt lat="28.274097" lon="-16.629339"><ele>3274.87</ele><time>2012-09-09T02:27:23Z</time></trkpt><trkpt lat="28.274099" lon="-16.629339"><ele>3274.87</ele><time>2012-09-09T02:27:48Z</time></trkpt><trkpt lat="28.274099" lon="-16.629341"><ele>3274.39</ele><time>2012-09-09T02:28:17Z</time></trkpt><trkpt lat="28.274099" lon="-16.629341"><ele>3274.87</ele><time>2012-09-09T02:28:49Z</time></trkpt><trkpt lat="28.274099" lon="-16.629337"><ele>3275.83</ele><time>2012-09-09T02:29:18Z</time></trkpt><trkpt lat="28.274101" lon="-16.629332"><ele>3274.87</ele><time>2012-09-09T02:29:51Z</time></trkpt><trkpt lat="28.274101" lon="-16.629330"><ele>3275.35</ele><time>2012-09-09T02:30:23Z</time></trkpt><trkpt lat="28.274101" lon="-16.629330"><ele>3275.35</ele><time>2012-09-09T02:30:38Z</time></trkpt><trkpt lat="28.274103" lon="-16.629326"><ele>3276.79</ele><time>2012-09-09T02:31:14Z</time></trkpt><trkpt lat="28.274101" lon="-16.629330"><ele>3275.35</ele><time>2012-09-09T02:31:53Z</time></trkpt><trkpt lat="28.274101" lon="-16.629330"><ele>3274.87</ele><time>2012-09-09T02:32:26Z</time></trkpt><trkpt lat="28.274101" lon="-16.629330"><ele>3277.75</ele><time>2012-09-09T02:32:38Z</time></trkpt><trkpt lat="28.274099" lon="-16.629326"><ele>3275.83</ele><time>2012-09-09T02:33:12Z</time></trkpt><trkpt lat="28.274099" lon="-16.629326"><ele>3276.31</ele><time>2012-09-09T02:33:47Z</time></trkpt><trkpt lat="28.274097" lon="-16.629326"><ele>3275.83</ele><time>2012-09-09T02:34:21Z</time></trkpt><trkpt lat="28.274097" lon="-16.629326"><ele>3276.31</ele><time>2012-09-09T02:34:52Z</time></trkpt><trkpt lat="28.274099" lon="-16.629324"><ele>3276.79</ele><time>2012-09-09T02:35:24Z</time></trkpt><trkpt lat="28.274099" lon="-16.629324"><ele>3278.23</ele><time>2012-09-09T02:35:28Z</time></trkpt><trkpt lat="28.274099" lon="-16.629326"><ele>3277.27</ele><time>2012-09-09T02:36:01Z</time></trkpt><trkpt lat="28.274097" lon="-16.629326"><ele>3277.27</ele><time>2012-09-09T02:36:30Z</time></trkpt><trkpt lat="28.274097" lon="-16.629330"><ele>3276.79</ele><time>2012-09-09T02:37:07Z</time></trkpt><trkpt lat="28.274101" lon="-16.629333"><ele>3277.75</ele><time>2012-09-09T02:37:37Z</time></trkpt><trkpt lat="28.274101" lon="-16.629333"><ele>3277.27</ele><time>2012-09-09T02:38:07Z</time></trkpt><trkpt lat="28.274101" lon="-16.629333"><ele>3278.71</ele><time>2012-09-09T02:38:40Z</time></trkpt><trkpt lat="28.274103" lon="-16.629335"><ele>3277.27</ele><time>2012-09-09T02:39:13Z</time></trkpt><trkpt lat="28.274107" lon="-16.629333"><ele>3278.23</ele><time>2012-09-09T02:39:48Z</time></trkpt><trkpt lat="28.274107" lon="-16.629337"><ele>3277.27</ele><time>2012-09-09T02:40:17Z</time></trkpt><trkpt lat="28.274107" lon="-16.629337"><ele>3277.75</ele><time>2012-09-09T02:40:45Z</time></trkpt><trkpt lat="28.274107" lon="-16.629339"><ele>3279.19</ele><time>2012-09-09T02:41:13Z</time></trkpt><trkpt lat="28.274107" lon="-16.629339"><ele>3278.23</ele><time>2012-09-09T02:41:15Z</time></trkpt><trkpt lat="28.274107" lon="-16.629339"><ele>3277.27</ele><time>2012-09-09T02:41:44Z</time></trkpt><trkpt lat="28.274105" lon="-16.629341"><ele>3278.23</ele><time>2012-09-09T02:42:14Z</time></trkpt><trkpt lat="28.274105" lon="-16.629341"><ele>3278.71</ele><time>2012-09-09T02:42:33Z</time></trkpt><trkpt lat="28.274101" lon="-16.629337"><ele>3277.75</ele><time>2012-09-09T02:43:05Z</time></trkpt><trkpt lat="28.274101" lon="-16.629333"><ele>3277.75</ele><time>2012-09-09T02:43:34Z</time></trkpt><trkpt lat="28.274101" lon="-16.629333"><ele>3278.71</ele><time>2012-09-09T02:44:07Z</time></trkpt><trkpt lat="28.274097" lon="-16.629330"><ele>3278.23</ele><time>2012-09-09T02:44:39Z</time></trkpt><trkpt lat="28.274097" lon="-16.629330"><ele>3279.19</ele><time>2012-09-09T02:44:50Z</time></trkpt><trkpt lat="28.274094" lon="-16.629333"><ele>3278.23</ele><time>2012-09-09T02:45:19Z</time></trkpt><trkpt lat="28.274094" lon="-16.629332"><ele>3278.71</ele><time>2012-09-09T02:45:49Z</time></trkpt><trkpt lat="28.274092" lon="-16.629332"><ele>3278.23</ele><time>2012-09-09T02:46:19Z</time></trkpt><trkpt lat="28.274092" lon="-16.629332"><ele>3279.19</ele><time>2012-09-09T02:46:48Z</time></trkpt><trkpt lat="28.274088" lon="-16.629330"><ele>3280.16</ele><time>2012-09-09T02:47:13Z</time></trkpt><trkpt lat="28.274082" lon="-16.629330"><ele>3280.16</ele><time>2012-09-09T02:47:41Z</time></trkpt><trkpt lat="28.274082" lon="-16.629330"><ele>3279.19</ele><time>2012-09-09T02:48:12Z</time></trkpt><trkpt lat="28.274078" lon="-16.629326"><ele>3278.71</ele><time>2012-09-09T02:48:37Z</time></trkpt><trkpt lat="28.274076" lon="-16.629324"><ele>3280.16</ele><time>2012-09-09T02:49:08Z</time></trkpt><trkpt lat="28.274076" lon="-16.629324"><ele>3279.19</ele><time>2012-09-09T02:49:33Z</time></trkpt><trkpt lat="28.274149" lon="-16.629330"><ele>3279.19</ele><time>2012-09-09T02:49:50Z</time></trkpt><trkpt lat="28.274139" lon="-16.629318"><ele>3279.19</ele><time>2012-09-09T02:50:15Z</time></trkpt><trkpt lat="28.274147" lon="-16.629313"><ele>3279.67</ele><time>2012-09-09T02:50:43Z</time></trkpt><trkpt lat="28.274151" lon="-16.629309"><ele>3279.67</ele><time>2012-09-09T02:51:13Z</time></trkpt><trkpt lat="28.274151" lon="-16.629309"><ele>3280.64</ele><time>2012-09-09T02:51:43Z</time></trkpt><trkpt lat="28.274149" lon="-16.629293"><ele>3280.16</ele><time>2012-09-09T02:52:11Z</time></trkpt><trkpt lat="28.274149" lon="-16.629293"><ele>3280.64</ele><time>2012-09-09T02:52:40Z</time></trkpt><trkpt lat="28.274151" lon="-16.629293"><ele>3280.16</ele><time>2012-09-09T02:53:08Z</time></trkpt><trkpt lat="28.274151" lon="-16.629293"><ele>3279.67</ele><time>2012-09-09T02:53:36Z</time></trkpt><trkpt lat="28.274151" lon="-16.629295"><ele>3280.16</ele><time>2012-09-09T02:54:09Z</time></trkpt><trkpt lat="28.274151" lon="-16.629295"><ele>3279.67</ele><time>2012-09-09T02:54:14Z</time></trkpt><trkpt lat="28.274153" lon="-16.629293"><ele>3280.64</ele><time>2012-09-09T02:54:44Z</time></trkpt><trkpt lat="28.274153" lon="-16.629293"><ele>3280.16</ele><time>2012-09-09T02:55:14Z</time></trkpt><trkpt lat="28.274153" lon="-16.629293"><ele>3280.64</ele><time>2012-09-09T02:55:42Z</time></trkpt><trkpt lat="28.274153" lon="-16.629293"><ele>3279.67</ele><time>2012-09-09T02:56:14Z</time></trkpt><trkpt lat="28.274157" lon="-16.629295"><ele>3280.64</ele><time>2012-09-09T02:56:43Z</time></trkpt><trkpt lat="28.274157" lon="-16.629297"><ele>3280.64</ele><time>2012-09-09T02:57:18Z</time></trkpt><trkpt lat="28.274158" lon="-16.629301"><ele>3280.16</ele><time>2012-09-09T02:57:53Z</time></trkpt><trkpt lat="28.274158" lon="-16.629301"><ele>3280.64</ele><time>2012-09-09T02:58:25Z</time></trkpt><trkpt lat="28.274158" lon="-16.629305"><ele>3280.64</ele><time>2012-09-09T02:59:00Z</time></trkpt><trkpt lat="28.274157" lon="-16.629307"><ele>3281.12</ele><time>2012-09-09T02:59:33Z</time></trkpt><trkpt lat="28.274160" lon="-16.629313"><ele>3281.60</ele><time>2012-09-09T03:00:08Z</time></trkpt><trkpt lat="28.274164" lon="-16.629320"><ele>3280.64</ele><time>2012-09-09T03:00:41Z</time></trkpt><trkpt lat="28.274166" lon="-16.629324"><ele>3282.08</ele><time>2012-09-09T03:01:10Z</time></trkpt><trkpt lat="28.274166" lon="-16.629324"><ele>3280.16</ele><time>2012-09-09T03:01:42Z</time></trkpt><trkpt lat="28.274168" lon="-16.629330"><ele>3281.12</ele><time>2012-09-09T03:02:19Z</time></trkpt><trkpt lat="28.274170" lon="-16.629333"><ele>3280.64</ele><time>2012-09-09T03:02:58Z</time></trkpt><trkpt lat="28.274170" lon="-16.629337"><ele>3280.64</ele><time>2012-09-09T03:03:34Z</time></trkpt><trkpt lat="28.274172" lon="-16.629337"><ele>3282.56</ele><time>2012-09-09T03:04:11Z</time></trkpt><trkpt lat="28.274172" lon="-16.629337"><ele>3282.56</ele><time>2012-09-09T03:04:27Z</time></trkpt><trkpt lat="28.274172" lon="-16.629337"><ele>3281.12</ele><time>2012-09-09T03:04:30Z</time></trkpt><trkpt lat="28.274176" lon="-16.629330"><ele>3281.60</ele><time>2012-09-09T03:04:42Z</time></trkpt><trkpt lat="28.274185" lon="-16.629309"><ele>3281.12</ele><time>2012-09-09T03:04:44Z</time></trkpt><trkpt lat="28.274216" lon="-16.629465"><ele>3281.60</ele><time>2012-09-09T03:10:28Z</time></trkpt><trkpt lat="28.274176" lon="-16.629356"><ele>3282.08</ele><time>2012-09-09T03:11:01Z</time></trkpt><trkpt lat="28.274183" lon="-16.629351"><ele>3282.56</ele><time>2012-09-09T03:11:28Z</time></trkpt><trkpt lat="28.274168" lon="-16.629303"><ele>3281.12</ele><time>2012-09-09T03:11:57Z</time></trkpt><trkpt lat="28.274164" lon="-16.629303"><ele>3281.60</ele><time>2012-09-09T03:12:24Z</time></trkpt><trkpt lat="28.274153" lon="-16.629271"><ele>3283.04</ele><time>2012-09-09T03:12:50Z</time></trkpt><trkpt lat="28.274164" lon="-16.629311"><ele>3281.60</ele><time>2012-09-09T03:13:16Z</time></trkpt><trkpt lat="28.274183" lon="-16.629383"><ele>3282.08</ele><time>2012-09-09T03:13:38Z</time></trkpt><trkpt lat="28.274166" lon="-16.629326"><ele>3281.60</ele><time>2012-09-09T03:14:04Z</time></trkpt><trkpt lat="28.274157" lon="-16.629257"><ele>3282.08</ele><time>2012-09-09T03:14:27Z</time></trkpt><trkpt lat="28.274183" lon="-16.629272"><ele>3283.52</ele><time>2012-09-09T03:14:47Z</time></trkpt><trkpt lat="28.274178" lon="-16.629288"><ele>3281.60</ele><time>2012-09-09T03:15:09Z</time></trkpt><trkpt lat="28.274174" lon="-16.629343"><ele>3281.60</ele><time>2012-09-09T03:15:16Z</time></trkpt><trkpt lat="28.274174" lon="-16.629423"><ele>3282.08</ele><time>2012-09-09T03:15:37Z</time></trkpt><trkpt lat="28.274164" lon="-16.629364"><ele>3282.08</ele><time>2012-09-09T03:15:58Z</time></trkpt><trkpt lat="28.274157" lon="-16.629364"><ele>3282.08</ele><time>2012-09-09T03:16:19Z</time></trkpt><trkpt lat="28.274139" lon="-16.629389"><ele>3281.60</ele><time>2012-09-09T03:16:23Z</time></trkpt><trkpt lat="28.274141" lon="-16.629326"><ele>3282.08</ele><time>2012-09-09T03:16:45Z</time></trkpt><trkpt lat="28.274128" lon="-16.629265"><ele>3282.08</ele><time>2012-09-09T03:17:11Z</time></trkpt><trkpt lat="28.274126" lon="-16.629267"><ele>3282.08</ele><time>2012-09-09T03:17:35Z</time></trkpt><trkpt lat="28.274111" lon="-16.629265"><ele>3283.52</ele><time>2012-09-09T03:18:00Z</time></trkpt><trkpt lat="28.274057" lon="-16.629259"><ele>3282.08</ele><time>2012-09-09T03:18:24Z</time></trkpt><trkpt lat="28.274040" lon="-16.629301"><ele>3282.56</ele><time>2012-09-09T03:18:56Z</time></trkpt><trkpt lat="28.274073" lon="-16.629295"><ele>3282.08</ele><time>2012-09-09T03:19:29Z</time></trkpt><trkpt lat="28.274078" lon="-16.629295"><ele>3282.08</ele><time>2012-09-09T03:19:58Z</time></trkpt><trkpt lat="28.274078" lon="-16.629293"><ele>3283.04</ele><time>2012-09-09T03:20:23Z</time></trkpt><trkpt lat="28.274103" lon="-16.629316"><ele>3282.08</ele><time>2012-09-09T03:20:49Z</time></trkpt><trkpt lat="28.274103" lon="-16.629246"><ele>3282.08</ele><time>2012-09-09T03:21:11Z</time></trkpt><trkpt lat="28.274107" lon="-16.629238"><ele>3282.56</ele><time>2012-09-09T03:21:31Z</time></trkpt><trkpt lat="28.274126" lon="-16.629242"><ele>3283.04</ele><time>2012-09-09T03:21:49Z</time></trkpt><trkpt lat="28.274092" lon="-16.629227"><ele>3282.08</ele><time>2012-09-09T03:22:13Z</time></trkpt><trkpt lat="28.274094" lon="-16.629238"><ele>3283.04</ele><time>2012-09-09T03:22:35Z</time></trkpt><trkpt lat="28.274105" lon="-16.629265"><ele>3283.04</ele><time>2012-09-09T03:22:54Z</time></trkpt><trkpt lat="28.274113" lon="-16.629253"><ele>3283.52</ele><time>2012-09-09T03:23:10Z</time></trkpt><trkpt lat="28.274157" lon="-16.629288"><ele>3282.56</ele><time>2012-09-09T03:23:32Z</time></trkpt><trkpt lat="28.274157" lon="-16.629288"><ele>3282.08</ele><time>2012-09-09T03:23:56Z</time></trkpt><trkpt lat="28.274160" lon="-16.629335"><ele>3282.56</ele><time>2012-09-09T03:24:16Z</time></trkpt><trkpt lat="28.274160" lon="-16.629335"><ele>3283.04</ele><time>2012-09-09T03:24:39Z</time></trkpt><trkpt lat="28.274160" lon="-16.629335"><ele>3283.52</ele><time>2012-09-09T03:25:04Z</time></trkpt><trkpt lat="28.274170" lon="-16.629349"><ele>3283.04</ele><time>2012-09-09T03:25:31Z</time></trkpt><trkpt lat="28.274170" lon="-16.629343"><ele>3283.04</ele><time>2012-09-09T03:25:57Z</time></trkpt><trkpt lat="28.274170" lon="-16.629343"><ele>3283.04</ele><time>2012-09-09T03:26:21Z</time></trkpt><trkpt lat="28.274168" lon="-16.629335"><ele>3282.56</ele><time>2012-09-09T03:26:47Z</time></trkpt><trkpt lat="28.274166" lon="-16.629303"><ele>3283.04</ele><time>2012-09-09T03:27:10Z</time></trkpt><trkpt lat="28.274166" lon="-16.629303"><ele>3282.56</ele><time>2012-09-09T03:27:33Z</time></trkpt><trkpt lat="28.274151" lon="-16.629335"><ele>3282.56</ele><time>2012-09-09T03:27:57Z</time></trkpt><trkpt lat="28.274132" lon="-16.629347"><ele>3282.56</ele><time>2012-09-09T03:28:21Z</time></trkpt><trkpt lat="28.274149" lon="-16.629356"><ele>3283.04</ele><time>2012-09-09T03:28:42Z</time></trkpt><trkpt lat="28.274132" lon="-16.629396"><ele>3282.56</ele><time>2012-09-09T03:29:03Z</time></trkpt><trkpt lat="28.274155" lon="-16.629353"><ele>3282.56</ele><time>2012-09-09T03:29:22Z</time></trkpt><trkpt lat="28.274160" lon="-16.629313"><ele>3282.56</ele><time>2012-09-09T03:29:45Z</time></trkpt><trkpt lat="28.274160" lon="-16.629313"><ele>3282.56</ele><time>2012-09-09T03:30:07Z</time></trkpt><trkpt lat="28.274155" lon="-16.629316"><ele>3282.56</ele><time>2012-09-09T03:30:33Z</time></trkpt><trkpt lat="28.274151" lon="-16.629372"><ele>3282.56</ele><time>2012-09-09T03:30:53Z</time></trkpt><trkpt lat="28.274147" lon="-16.629375"><ele>3283.04</ele><time>2012-09-09T03:31:12Z</time></trkpt><trkpt lat="28.274183" lon="-16.629257"><ele>3283.04</ele><time>2012-09-09T03:31:32Z</time></trkpt><trkpt lat="28.274187" lon="-16.629250"><ele>3282.56</ele><time>2012-09-09T03:31:49Z</time></trkpt><trkpt lat="28.274132" lon="-16.629230"><ele>3282.56</ele><time>2012-09-09T03:32:14Z</time></trkpt><trkpt lat="28.274109" lon="-16.629227"><ele>3284.00</ele><time>2012-09-09T03:32:21Z</time></trkpt><trkpt lat="28.274132" lon="-16.629229"><ele>3282.08</ele><time>2012-09-09T03:32:40Z</time></trkpt><trkpt lat="28.274136" lon="-16.629232"><ele>3282.56</ele><time>2012-09-09T03:33:01Z</time></trkpt><trkpt lat="28.274139" lon="-16.629309"><ele>3283.04</ele><time>2012-09-09T03:33:24Z</time></trkpt><trkpt lat="28.274197" lon="-16.629253"><ele>3282.56</ele><time>2012-09-09T03:33:45Z</time></trkpt><trkpt lat="28.274202" lon="-16.629246"><ele>3282.08</ele><time>2012-09-09T03:33:46Z</time></trkpt><trkpt lat="28.274265" lon="-16.629200"><ele>3283.04</ele><time>2012-09-09T03:34:10Z</time></trkpt><trkpt lat="28.274261" lon="-16.629160"><ele>3282.56</ele><time>2012-09-09T03:34:18Z</time></trkpt><trkpt lat="28.274311" lon="-16.629045"><ele>3283.52</ele><time>2012-09-09T03:34:41Z</time></trkpt><trkpt lat="28.274328" lon="-16.629074"><ele>3282.08</ele><time>2012-09-09T03:34:55Z</time></trkpt><trkpt lat="28.274178" lon="-16.629271"><ele>3283.04</ele><time>2012-09-09T03:35:16Z</time></trkpt><trkpt lat="28.274178" lon="-16.629263"><ele>3282.56</ele><time>2012-09-09T03:35:37Z</time></trkpt><trkpt lat="28.274178" lon="-16.629263"><ele>3283.04</ele><time>2012-09-09T03:36:02Z</time></trkpt><trkpt lat="28.274178" lon="-16.629263"><ele>3283.04</ele><time>2012-09-09T03:36:28Z</time></trkpt><trkpt lat="28.274113" lon="-16.629349"><ele>3282.56</ele><time>2012-09-09T03:36:54Z</time></trkpt><trkpt lat="28.274115" lon="-16.629330"><ele>3283.52</ele><time>2012-09-09T03:37:19Z</time></trkpt><trkpt lat="28.274115" lon="-16.629330"><ele>3283.04</ele><time>2012-09-09T03:37:45Z</time></trkpt><trkpt lat="28.274113" lon="-16.629335"><ele>3283.52</ele><time>2012-09-09T03:38:11Z</time></trkpt><trkpt lat="28.274113" lon="-16.629335"><ele>3283.52</ele><time>2012-09-09T03:38:37Z</time></trkpt><trkpt lat="28.274113" lon="-16.629335"><ele>3283.04</ele><time>2012-09-09T03:38:59Z</time></trkpt><trkpt lat="28.274113" lon="-16.629335"><ele>3284.00</ele><time>2012-09-09T03:39:09Z</time></trkpt><trkpt lat="28.274151" lon="-16.629259"><ele>3282.56</ele><time>2012-09-09T03:39:33Z</time></trkpt><trkpt lat="28.274153" lon="-16.629293"><ele>3283.52</ele><time>2012-09-09T03:39:57Z</time></trkpt><trkpt lat="28.274162" lon="-16.629299"><ele>3282.56</ele><time>2012-09-09T03:40:25Z</time></trkpt><trkpt lat="28.274162" lon="-16.629299"><ele>3283.04</ele><time>2012-09-09T03:40:52Z</time></trkpt><trkpt lat="28.274137" lon="-16.629326"><ele>3283.52</ele><time>2012-09-09T03:41:19Z</time></trkpt><trkpt lat="28.274136" lon="-16.629324"><ele>3283.04</ele><time>2012-09-09T03:41:47Z</time></trkpt><trkpt lat="28.274101" lon="-16.629305"><ele>3282.56</ele><time>2012-09-09T03:42:13Z</time></trkpt><trkpt lat="28.274130" lon="-16.629330"><ele>3283.52</ele><time>2012-09-09T03:42:39Z</time></trkpt><trkpt lat="28.274124" lon="-16.629330"><ele>3284.00</ele><time>2012-09-09T03:43:03Z</time></trkpt><trkpt lat="28.274115" lon="-16.629337"><ele>3284.00</ele><time>2012-09-09T03:43:26Z</time></trkpt><trkpt lat="28.274126" lon="-16.629337"><ele>3283.52</ele><time>2012-09-09T03:43:49Z</time></trkpt><trkpt lat="28.274105" lon="-16.629347"><ele>3284.00</ele><time>2012-09-09T03:44:06Z</time></trkpt><trkpt lat="28.274052" lon="-16.629410"><ele>3282.56</ele><time>2012-09-09T03:44:31Z</time></trkpt><trkpt lat="28.274052" lon="-16.629410"><ele>3284.00</ele><time>2012-09-09T03:44:54Z</time></trkpt><trkpt lat="28.274124" lon="-16.629360"><ele>3283.04</ele><time>2012-09-09T03:45:20Z</time></trkpt><trkpt lat="28.274134" lon="-16.629354"><ele>3283.52</ele><time>2012-09-09T03:45:48Z</time></trkpt><trkpt lat="28.274139" lon="-16.629351"><ele>3283.04</ele><time>2012-09-09T03:46:14Z</time></trkpt><trkpt lat="28.274141" lon="-16.629347"><ele>3284.00</ele><time>2012-09-09T03:46:41Z</time></trkpt><trkpt lat="28.274183" lon="-16.629274"><ele>3283.52</ele><time>2012-09-09T03:47:09Z</time></trkpt><trkpt lat="28.274183" lon="-16.629267"><ele>3283.52</ele><time>2012-09-09T03:47:33Z</time></trkpt><trkpt lat="28.274181" lon="-16.629265"><ele>3283.04</ele><time>2012-09-09T03:48:02Z</time></trkpt><trkpt lat="28.274134" lon="-16.629271"><ele>3283.04</ele><time>2012-09-09T03:48:29Z</time></trkpt><trkpt lat="28.274120" lon="-16.629320"><ele>3283.04</ele><time>2012-09-09T03:48:59Z</time></trkpt><trkpt lat="28.274134" lon="-16.629305"><ele>3283.52</ele><time>2012-09-09T03:49:28Z</time></trkpt><trkpt lat="28.274130" lon="-16.629322"><ele>3285.44</ele><time>2012-09-09T03:49:58Z</time></trkpt><trkpt lat="28.274130" lon="-16.629322"><ele>3282.08</ele><time>2012-09-09T03:50:20Z</time></trkpt><trkpt lat="28.274130" lon="-16.629322"><ele>3283.52</ele><time>2012-09-09T03:50:51Z</time></trkpt><trkpt lat="28.274130" lon="-16.629324"><ele>3283.52</ele><time>2012-09-09T03:51:22Z</time></trkpt><trkpt lat="28.274137" lon="-16.629320"><ele>3283.04</ele><time>2012-09-09T03:51:31Z</time></trkpt><trkpt lat="28.274139" lon="-16.629330"><ele>3283.04</ele><time>2012-09-09T03:51:52Z</time></trkpt><trkpt lat="28.274153" lon="-16.629272"><ele>3283.52</ele><time>2012-09-09T03:52:17Z</time></trkpt><trkpt lat="28.274147" lon="-16.629274"><ele>3283.04</ele><time>2012-09-09T03:52:44Z</time></trkpt><trkpt lat="28.274115" lon="-16.629324"><ele>3282.56</ele><time>2012-09-09T03:53:10Z</time></trkpt><trkpt lat="28.274103" lon="-16.629427"><ele>3284.00</ele><time>2012-09-09T03:53:32Z</time></trkpt><trkpt lat="28.273952" lon="-16.629431"><ele>3282.56</ele><time>2012-09-09T03:53:58Z</time></trkpt><trkpt lat="28.274399" lon="-16.629099"><ele>3284.48</ele><time>2012-09-09T04:14:55Z</time></trkpt><trkpt lat="28.274378" lon="-16.629118"><ele>3284.48</ele><time>2012-09-09T04:14:56Z</time></trkpt><trkpt lat="28.274305" lon="-16.629347"><ele>3284.96</ele><time>2012-09-09T04:15:22Z</time></trkpt><trkpt lat="28.274326" lon="-16.629446"><ele>3284.48</ele><time>2012-09-09T04:15:31Z</time></trkpt><trkpt lat="28.274336" lon="-16.629492"><ele>3284.48</ele><time>2012-09-09T04:15:50Z</time></trkpt><trkpt lat="28.274281" lon="-16.629541"><ele>3284.96</ele><time>2012-09-09T04:16:15Z</time></trkpt><trkpt lat="28.274258" lon="-16.629559"><ele>3284.48</ele><time>2012-09-09T04:16:40Z</time></trkpt><trkpt lat="28.274258" lon="-16.629559"><ele>3284.96</ele><time>2012-09-09T04:17:05Z</time></trkpt><trkpt lat="28.274256" lon="-16.629557"><ele>3284.96</ele><time>2012-09-09T04:17:30Z</time></trkpt><trkpt lat="28.274254" lon="-16.629555"><ele>3284.96</ele><time>2012-09-09T04:17:54Z</time></trkpt><trkpt lat="28.274254" lon="-16.629555"><ele>3284.96</ele><time>2012-09-09T04:18:14Z</time></trkpt><trkpt lat="28.274254" lon="-16.629555"><ele>3284.96</ele><time>2012-09-09T04:18:36Z</time></trkpt><trkpt lat="28.274294" lon="-16.629648"><ele>3284.48</ele><time>2012-09-09T04:18:57Z</time></trkpt><trkpt lat="28.274313" lon="-16.629803"><ele>3284.96</ele><time>2012-09-09T04:19:23Z</time></trkpt><trkpt lat="28.274330" lon="-16.629829"><ele>3285.92</ele><time>2012-09-09T04:19:43Z</time></trkpt><trkpt lat="28.274330" lon="-16.629829"><ele>3286.40</ele><time>2012-09-09T04:19:47Z</time></trkpt><trkpt lat="28.274330" lon="-16.629829"><ele>3284.48</ele><time>2012-09-09T04:19:50Z</time></trkpt><trkpt lat="28.274328" lon="-16.629826"><ele>3285.92</ele><time>2012-09-09T04:20:09Z</time></trkpt><trkpt lat="28.274347" lon="-16.629807"><ele>3284.96</ele><time>2012-09-09T04:20:23Z</time></trkpt><trkpt lat="28.274426" lon="-16.629696"><ele>3284.48</ele><time>2012-09-09T04:20:43Z</time></trkpt><trkpt lat="28.274426" lon="-16.629696"><ele>3285.92</ele><time>2012-09-09T04:21:04Z</time></trkpt><trkpt lat="28.274426" lon="-16.629696"><ele>3284.96</ele><time>2012-09-09T04:21:24Z</time></trkpt><trkpt lat="28.274426" lon="-16.629696"><ele>3284.96</ele><time>2012-09-09T04:21:26Z</time></trkpt><trkpt lat="28.274443" lon="-16.629679"><ele>3284.96</ele><time>2012-09-09T04:21:28Z</time></trkpt><trkpt lat="28.274445" lon="-16.629570"><ele>3284.96</ele><time>2012-09-09T04:21:42Z</time></trkpt><trkpt lat="28.274340" lon="-16.629614"><ele>3284.96</ele><time>2012-09-09T04:22:00Z</time></trkpt><trkpt lat="28.274284" lon="-16.629614"><ele>3284.48</ele><time>2012-09-09T04:22:10Z</time></trkpt><trkpt lat="28.274345" lon="-16.629568"><ele>3284.48</ele><time>2012-09-09T04:22:13Z</time></trkpt><trkpt lat="28.274460" lon="-16.629499"><ele>3284.48</ele><time>2012-09-09T04:22:35Z</time></trkpt><trkpt lat="28.274464" lon="-16.629477"><ele>3286.40</ele><time>2012-09-09T04:23:01Z</time></trkpt><trkpt lat="28.274540" lon="-16.629452"><ele>3285.92</ele><time>2012-09-09T04:23:22Z</time></trkpt><trkpt lat="28.274191" lon="-16.629362"><ele>3284.96</ele><time>2012-09-09T04:35:21Z</time></trkpt><trkpt lat="28.274181" lon="-16.629313"><ele>3284.96</ele><time>2012-09-09T04:35:40Z</time></trkpt><trkpt lat="28.274166" lon="-16.629292"><ele>3284.48</ele><time>2012-09-09T04:36:04Z</time></trkpt><trkpt lat="28.274170" lon="-16.629339"><ele>3284.96</ele><time>2012-09-09T04:36:31Z</time></trkpt><trkpt lat="28.274172" lon="-16.629356"><ele>3284.96</ele><time>2012-09-09T04:37:06Z</time></trkpt><trkpt lat="28.274172" lon="-16.629356"><ele>3287.85</ele><time>2012-09-09T04:37:26Z</time></trkpt><trkpt lat="28.274172" lon="-16.629356"><ele>3285.44</ele><time>2012-09-09T04:37:30Z</time></trkpt><trkpt lat="28.274179" lon="-16.629341"><ele>3284.48</ele><time>2012-09-09T04:37:52Z</time></trkpt><trkpt lat="28.274147" lon="-16.629232"><ele>3284.48</ele><time>2012-09-09T04:38:15Z</time></trkpt><trkpt lat="28.274117" lon="-16.629272"><ele>3284.96</ele><time>2012-09-09T04:41:36Z</time></trkpt><trkpt lat="28.274069" lon="-16.629457"><ele>3284.00</ele><time>2012-09-09T04:42:07Z</time></trkpt><trkpt lat="28.273924" lon="-16.629719"><ele>3284.00</ele><time>2012-09-09T04:42:24Z</time></trkpt><trkpt lat="28.273849" lon="-16.629822"><ele>3284.48</ele><time>2012-09-09T04:42:28Z</time></trkpt><trkpt lat="28.273354" lon="-16.630493"><ele>3284.00</ele><time>2012-09-09T04:42:51Z</time></trkpt><trkpt lat="28.273518" lon="-16.630001"><ele>3284.00</ele><time>2012-09-09T04:43:11Z</time></trkpt><trkpt lat="28.273546" lon="-16.629772"><ele>3284.00</ele><time>2012-09-09T04:43:31Z</time></trkpt><trkpt lat="28.273556" lon="-16.629747"><ele>3284.00</ele><time>2012-09-09T04:43:38Z</time></trkpt><trkpt lat="28.273413" lon="-16.629801"><ele>3284.48</ele><time>2012-09-09T04:43:47Z</time></trkpt><trkpt lat="28.273193" lon="-16.630066"><ele>3284.00</ele><time>2012-09-09T04:44:06Z</time></trkpt><trkpt lat="28.273174" lon="-16.630188"><ele>3284.96</ele><time>2012-09-09T04:44:30Z</time></trkpt><trkpt lat="28.273228" lon="-16.630281"><ele>3283.52</ele><time>2012-09-09T04:44:50Z</time></trkpt><trkpt lat="28.273199" lon="-16.630297"><ele>3284.00</ele><time>2012-09-09T04:45:11Z</time></trkpt><trkpt lat="28.273199" lon="-16.630297"><ele>3284.00</ele><time>2012-09-09T04:45:34Z</time></trkpt><trkpt lat="28.273174" lon="-16.630283"><ele>3284.48</ele><time>2012-09-09T04:45:54Z</time></trkpt><trkpt lat="28.273174" lon="-16.630280"><ele>3284.96</ele><time>2012-09-09T04:46:18Z</time></trkpt><trkpt lat="28.273155" lon="-16.630274"><ele>3284.96</ele><time>2012-09-09T04:46:41Z</time></trkpt><trkpt lat="28.273092" lon="-16.630165"><ele>3284.48</ele><time>2012-09-09T04:47:07Z</time></trkpt><trkpt lat="28.272303" lon="-16.628239"><ele>3284.96</ele><time>2012-09-09T04:48:02Z</time></trkpt><trkpt lat="28.272535" lon="-16.628254"><ele>3284.96</ele><time>2012-09-09T04:48:04Z</time></trkpt><trkpt lat="28.273472" lon="-16.628283"><ele>3284.96</ele><time>2012-09-09T04:48:25Z</time></trkpt><trkpt lat="28.274092" lon="-16.628376"><ele>3284.96</ele><time>2012-09-09T04:48:54Z</time></trkpt><trkpt lat="28.274193" lon="-16.628426"><ele>3285.44</ele><time>2012-09-09T04:49:18Z</time></trkpt><trkpt lat="28.274174" lon="-16.628475"><ele>3284.00</ele><time>2012-09-09T04:49:33Z</time></trkpt><trkpt lat="28.274139" lon="-16.628548"><ele>3284.96</ele><time>2012-09-09T04:49:57Z</time></trkpt><trkpt lat="28.274139" lon="-16.628548"><ele>3285.92</ele><time>2012-09-09T04:50:03Z</time></trkpt><trkpt lat="28.274117" lon="-16.628620"><ele>3285.44</ele><time>2012-09-09T04:50:26Z</time></trkpt><trkpt lat="28.274031" lon="-16.628996"><ele>3285.92</ele><time>2012-09-09T04:50:45Z</time></trkpt><trkpt lat="28.274048" lon="-16.629034"><ele>3285.44</ele><time>2012-09-09T04:51:11Z</time></trkpt><trkpt lat="28.274067" lon="-16.629196"><ele>3285.44</ele><time>2012-09-09T04:51:32Z</time></trkpt><trkpt lat="28.274078" lon="-16.629189"><ele>3285.44</ele><time>2012-09-09T04:51:52Z</time></trkpt><trkpt lat="28.274073" lon="-16.629190"><ele>3284.96</ele><time>2012-09-09T04:52:17Z</time></trkpt><trkpt lat="28.274029" lon="-16.629208"><ele>3284.48</ele><time>2012-09-09T04:52:38Z</time></trkpt><trkpt lat="28.274021" lon="-16.629229"><ele>3284.96</ele><time>2012-09-09T04:53:01Z</time></trkpt><trkpt lat="28.274033" lon="-16.629227"><ele>3284.96</ele><time>2012-09-09T04:53:24Z</time></trkpt><trkpt lat="28.274021" lon="-16.629227"><ele>3284.96</ele><time>2012-09-09T04:53:26Z</time></trkpt><trkpt lat="28.273996" lon="-16.629187"><ele>3284.48</ele><time>2012-09-09T04:53:47Z</time></trkpt><trkpt lat="28.274029" lon="-16.629185"><ele>3284.48</ele><time>2012-09-09T04:54:08Z</time></trkpt><trkpt lat="28.274050" lon="-16.629185"><ele>3284.48</ele><time>2012-09-09T04:54:32Z</time></trkpt><trkpt lat="28.274073" lon="-16.629183"><ele>3284.48</ele><time>2012-09-09T04:54:56Z</time></trkpt><trkpt lat="28.274012" lon="-16.629196"><ele>3284.48</ele><time>2012-09-09T04:55:18Z</time></trkpt><trkpt lat="28.274105" lon="-16.629198"><ele>3284.96</ele><time>2012-09-09T04:55:37Z</time></trkpt><trkpt lat="28.274118" lon="-16.629248"><ele>3284.48</ele><time>2012-09-09T04:55:56Z</time></trkpt><trkpt lat="28.274153" lon="-16.629234"><ele>3284.96</ele><time>2012-09-09T04:56:18Z</time></trkpt><trkpt lat="28.274153" lon="-16.629234"><ele>3284.48</ele><time>2012-09-09T04:56:44Z</time></trkpt><trkpt lat="28.274153" lon="-16.629234"><ele>3284.48</ele><time>2012-09-09T04:57:10Z</time></trkpt><trkpt lat="28.274155" lon="-16.629234"><ele>3284.96</ele><time>2012-09-09T04:57:41Z</time></trkpt><trkpt lat="28.274149" lon="-16.629240"><ele>3284.00</ele><time>2012-09-09T04:58:10Z</time></trkpt><trkpt lat="28.274132" lon="-16.629307"><ele>3284.96</ele><time>2012-09-09T04:58:37Z</time></trkpt><trkpt lat="28.274132" lon="-16.629307"><ele>3284.48</ele><time>2012-09-09T04:59:08Z</time></trkpt><trkpt lat="28.274132" lon="-16.629307"><ele>3284.48</ele><time>2012-09-09T04:59:38Z</time></trkpt><trkpt lat="28.274126" lon="-16.629303"><ele>3284.00</ele><time>2012-09-09T05:00:03Z</time></trkpt><trkpt lat="28.274117" lon="-16.629263"><ele>3284.00</ele><time>2012-09-09T05:00:30Z</time></trkpt><trkpt lat="28.274107" lon="-16.629253"><ele>3284.00</ele><time>2012-09-09T05:00:57Z</time></trkpt><trkpt lat="28.274107" lon="-16.629253"><ele>3284.48</ele><time>2012-09-09T05:01:28Z</time></trkpt><trkpt lat="28.274113" lon="-16.629248"><ele>3284.00</ele><time>2012-09-09T05:01:52Z</time></trkpt><trkpt lat="28.274141" lon="-16.629227"><ele>3284.00</ele><time>2012-09-09T05:02:15Z</time></trkpt><trkpt lat="28.274141" lon="-16.629227"><ele>3284.00</ele><time>2012-09-09T05:02:42Z</time></trkpt><trkpt lat="28.274143" lon="-16.629227"><ele>3284.48</ele><time>2012-09-09T05:03:13Z</time></trkpt><trkpt lat="28.274164" lon="-16.629227"><ele>3284.48</ele><time>2012-09-09T05:03:41Z</time></trkpt><trkpt lat="28.274166" lon="-16.629225"><ele>3283.04</ele><time>2012-09-09T05:04:00Z</time></trkpt><trkpt lat="28.274166" lon="-16.629225"><ele>3284.00</ele><time>2012-09-09T05:04:04Z</time></trkpt><trkpt lat="28.274166" lon="-16.629225"><ele>3284.00</ele><time>2012-09-09T05:04:29Z</time></trkpt><trkpt lat="28.274069" lon="-16.629232"><ele>3283.52</ele><time>2012-09-09T05:04:52Z</time></trkpt><trkpt lat="28.274059" lon="-16.629230"><ele>3283.52</ele><time>2012-09-09T05:05:15Z</time></trkpt><trkpt lat="28.274160" lon="-16.629229"><ele>3284.00</ele><time>2012-09-09T05:05:42Z</time></trkpt><trkpt lat="28.274183" lon="-16.629255"><ele>3284.00</ele><time>2012-09-09T05:06:06Z</time></trkpt><trkpt lat="28.274202" lon="-16.629248"><ele>3283.52</ele><time>2012-09-09T05:06:27Z</time></trkpt><trkpt lat="28.274202" lon="-16.629248"><ele>3283.52</ele><time>2012-09-09T05:06:51Z</time></trkpt><trkpt lat="28.274229" lon="-16.629265"><ele>3283.52</ele><time>2012-09-09T05:07:14Z</time></trkpt><trkpt lat="28.274256" lon="-16.629259"><ele>3284.48</ele><time>2012-09-09T05:07:36Z</time></trkpt><trkpt lat="28.274008" lon="-16.628859"><ele>3282.56</ele><time>2012-09-09T05:19:05Z</time></trkpt><trkpt lat="28.274023" lon="-16.628887"><ele>3282.56</ele><time>2012-09-09T05:19:07Z</time></trkpt><trkpt lat="28.274134" lon="-16.629208"><ele>3282.56</ele><time>2012-09-09T05:19:33Z</time></trkpt><trkpt lat="28.274145" lon="-16.629263"><ele>3283.52</ele><time>2012-09-09T05:19:54Z</time></trkpt><trkpt lat="28.274176" lon="-16.629356"><ele>3283.52</ele><time>2012-09-09T05:20:16Z</time></trkpt><trkpt lat="28.274189" lon="-16.629395"><ele>3282.56</ele><time>2012-09-09T05:20:41Z</time></trkpt><trkpt lat="28.274206" lon="-16.629433"><ele>3283.04</ele><time>2012-09-09T05:21:03Z</time></trkpt><trkpt lat="28.274204" lon="-16.629429"><ele>3284.48</ele><time>2012-09-09T05:21:15Z</time></trkpt><trkpt lat="28.274208" lon="-16.629438"><ele>3282.56</ele><time>2012-09-09T05:21:18Z</time></trkpt><trkpt lat="28.274223" lon="-16.629400"><ele>3283.52</ele><time>2012-09-09T05:21:41Z</time></trkpt><trkpt lat="28.274223" lon="-16.629404"><ele>3282.56</ele><time>2012-09-09T05:22:02Z</time></trkpt><trkpt lat="28.274218" lon="-16.629400"><ele>3282.08</ele><time>2012-09-09T05:22:25Z</time></trkpt><trkpt lat="28.274214" lon="-16.629398"><ele>3282.56</ele><time>2012-09-09T05:22:46Z</time></trkpt><trkpt lat="28.274210" lon="-16.629398"><ele>3283.52</ele><time>2012-09-09T05:23:06Z</time></trkpt><trkpt lat="28.274244" lon="-16.629377"><ele>3283.04</ele><time>2012-09-09T05:23:26Z</time></trkpt><trkpt lat="28.274244" lon="-16.629377"><ele>3283.52</ele><time>2012-09-09T05:23:46Z</time></trkpt><trkpt lat="28.274242" lon="-16.629375"><ele>3283.04</ele><time>2012-09-09T05:24:08Z</time></trkpt><trkpt lat="28.274242" lon="-16.629375"><ele>3283.04</ele><time>2012-09-09T05:24:30Z</time></trkpt><trkpt lat="28.274258" lon="-16.629404"><ele>3283.04</ele><time>2012-09-09T05:24:50Z</time></trkpt><trkpt lat="28.274303" lon="-16.629484"><ele>3283.04</ele><time>2012-09-09T05:25:02Z</time></trkpt><trkpt lat="28.274374" lon="-16.629496"><ele>3283.52</ele><time>2012-09-09T05:25:22Z</time></trkpt><trkpt lat="28.274286" lon="-16.629395"><ele>3283.04</ele><time>2012-09-09T05:25:43Z</time></trkpt><trkpt lat="28.274271" lon="-16.629383"><ele>3283.04</ele><time>2012-09-09T05:26:02Z</time></trkpt><trkpt lat="28.274271" lon="-16.629383"><ele>3283.04</ele><time>2012-09-09T05:26:23Z</time></trkpt><trkpt lat="28.274282" lon="-16.629416"><ele>3283.04</ele><time>2012-09-09T05:26:50Z</time></trkpt><trkpt lat="28.274323" lon="-16.629465"><ele>3283.52</ele><time>2012-09-09T05:27:15Z</time></trkpt><trkpt lat="28.274334" lon="-16.629467"><ele>3283.52</ele><time>2012-09-09T05:27:34Z</time></trkpt><trkpt lat="28.274355" lon="-16.629496"><ele>3284.00</ele><time>2012-09-09T05:27:55Z</time></trkpt><trkpt lat="28.274382" lon="-16.629513"><ele>3283.52</ele><time>2012-09-09T05:28:16Z</time></trkpt><trkpt lat="28.274183" lon="-16.629356"><ele>3283.52</ele><time>2012-09-09T05:28:35Z</time></trkpt><trkpt lat="28.274075" lon="-16.629337"><ele>3283.52</ele><time>2012-09-09T05:28:56Z</time></trkpt><trkpt lat="28.274107" lon="-16.629335"><ele>3284.00</ele><time>2012-09-09T05:29:19Z</time></trkpt><trkpt lat="28.274242" lon="-16.629366"><ele>3283.04</ele><time>2012-09-09T05:29:41Z</time></trkpt><trkpt lat="28.274277" lon="-16.629381"><ele>3285.92</ele><time>2012-09-09T05:29:46Z</time></trkpt><trkpt lat="28.274284" lon="-16.629375"><ele>3285.44</ele><time>2012-09-09T05:29:47Z</time></trkpt><trkpt lat="28.274294" lon="-16.629362"><ele>3284.96</ele><time>2012-09-09T05:29:49Z</time></trkpt><trkpt lat="28.274374" lon="-16.629396"><ele>3283.52</ele><time>2012-09-09T05:30:10Z</time></trkpt><trkpt lat="28.274370" lon="-16.629404"><ele>3284.00</ele><time>2012-09-09T05:30:33Z</time></trkpt><trkpt lat="28.274366" lon="-16.629416"><ele>3284.00</ele><time>2012-09-09T05:31:00Z</time></trkpt><trkpt lat="28.274372" lon="-16.629406"><ele>3284.48</ele><time>2012-09-09T05:31:18Z</time></trkpt><trkpt lat="28.274336" lon="-16.629383"><ele>3282.56</ele><time>2012-09-09T05:31:42Z</time></trkpt><trkpt lat="28.274336" lon="-16.629383"><ele>3284.00</ele><time>2012-09-09T05:32:12Z</time></trkpt><trkpt lat="28.274332" lon="-16.629408"><ele>3284.48</ele><time>2012-09-09T05:32:37Z</time></trkpt><trkpt lat="28.274288" lon="-16.629393"><ele>3284.00</ele><time>2012-09-09T05:33:05Z</time></trkpt><trkpt lat="28.274290" lon="-16.629360"><ele>3283.52</ele><time>2012-09-09T05:33:29Z</time></trkpt><trkpt lat="28.274244" lon="-16.629385"><ele>3284.00</ele><time>2012-09-09T05:33:54Z</time></trkpt><trkpt lat="28.274221" lon="-16.629379"><ele>3284.00</ele><time>2012-09-09T05:34:20Z</time></trkpt><trkpt lat="28.274221" lon="-16.629370"><ele>3284.00</ele><time>2012-09-09T05:34:42Z</time></trkpt><trkpt lat="28.274178" lon="-16.629360"><ele>3284.00</ele><time>2012-09-09T05:35:03Z</time></trkpt><trkpt lat="28.274178" lon="-16.629360"><ele>3283.52</ele><time>2012-09-09T05:35:13Z</time></trkpt><trkpt lat="28.274172" lon="-16.629356"><ele>3283.52</ele><time>2012-09-09T05:35:35Z</time></trkpt><trkpt lat="28.274174" lon="-16.629353"><ele>3284.96</ele><time>2012-09-09T05:35:44Z</time></trkpt><trkpt lat="28.274174" lon="-16.629360"><ele>3282.56</ele><time>2012-09-09T05:35:47Z</time></trkpt><trkpt lat="28.274164" lon="-16.629305"><ele>3284.00</ele><time>2012-09-09T05:36:08Z</time></trkpt><trkpt lat="28.274155" lon="-16.629309"><ele>3283.52</ele><time>2012-09-09T05:36:34Z</time></trkpt><trkpt lat="28.274113" lon="-16.629324"><ele>3283.52</ele><time>2012-09-09T05:36:57Z</time></trkpt><trkpt lat="28.274120" lon="-16.629375"><ele>3284.48</ele><time>2012-09-09T05:37:19Z</time></trkpt><trkpt lat="28.274195" lon="-16.629381"><ele>3283.52</ele><time>2012-09-09T05:37:25Z</time></trkpt><trkpt lat="28.274206" lon="-16.629307"><ele>3284.48</ele><time>2012-09-09T05:37:45Z</time></trkpt><trkpt lat="28.274233" lon="-16.629383"><ele>3284.48</ele><time>2012-09-09T05:38:07Z</time></trkpt><trkpt lat="28.274235" lon="-16.629387"><ele>3284.00</ele><time>2012-09-09T05:38:30Z</time></trkpt><trkpt lat="28.274189" lon="-16.629347"><ele>3284.00</ele><time>2012-09-09T05:38:53Z</time></trkpt><trkpt lat="28.274166" lon="-16.629351"><ele>3283.52</ele><time>2012-09-09T05:39:16Z</time></trkpt><trkpt lat="28.274158" lon="-16.629345"><ele>3284.00</ele><time>2012-09-09T05:39:40Z</time></trkpt><trkpt lat="28.274126" lon="-16.629303"><ele>3284.48</ele><time>2012-09-09T05:40:01Z</time></trkpt><trkpt lat="28.274162" lon="-16.629320"><ele>3283.04</ele><time>2012-09-09T05:40:27Z</time></trkpt><trkpt lat="28.274183" lon="-16.629309"><ele>3283.04</ele><time>2012-09-09T05:41:03Z</time></trkpt><trkpt lat="28.274202" lon="-16.629335"><ele>3283.52</ele><time>2012-09-09T05:41:25Z</time></trkpt><trkpt lat="28.274172" lon="-16.629284"><ele>3284.00</ele><time>2012-09-09T05:41:42Z</time></trkpt><trkpt lat="28.274136" lon="-16.629251"><ele>3283.52</ele><time>2012-09-09T05:42:05Z</time></trkpt><trkpt lat="28.274082" lon="-16.629139"><ele>3283.52</ele><time>2012-09-09T05:42:30Z</time></trkpt><trkpt lat="28.274084" lon="-16.629108"><ele>3282.56</ele><time>2012-09-09T05:42:41Z</time></trkpt><trkpt lat="28.274059" lon="-16.629023"><ele>3284.48</ele><time>2012-09-09T05:43:03Z</time></trkpt><trkpt lat="28.274132" lon="-16.629236"><ele>3284.00</ele><time>2012-09-09T05:43:21Z</time></trkpt><trkpt lat="28.274099" lon="-16.629230"><ele>3284.48</ele><time>2012-09-09T05:43:43Z</time></trkpt><trkpt lat="28.274139" lon="-16.629330"><ele>3284.00</ele><time>2012-09-09T05:44:06Z</time></trkpt><trkpt lat="28.274128" lon="-16.629356"><ele>3284.48</ele><time>2012-09-09T05:44:31Z</time></trkpt><trkpt lat="28.274124" lon="-16.629316"><ele>3284.48</ele><time>2012-09-09T05:44:54Z</time></trkpt><trkpt lat="28.274071" lon="-16.629278"><ele>3284.00</ele><time>2012-09-09T05:45:14Z</time></trkpt><trkpt lat="28.273994" lon="-16.629250"><ele>3283.04</ele><time>2012-09-09T05:45:41Z</time></trkpt><trkpt lat="28.274096" lon="-16.629295"><ele>3284.00</ele><time>2012-09-09T05:46:07Z</time></trkpt><trkpt lat="28.274202" lon="-16.629366"><ele>3283.04</ele><time>2012-09-09T05:46:36Z</time></trkpt><trkpt lat="28.274240" lon="-16.629370"><ele>3284.00</ele><time>2012-09-09T05:47:02Z</time></trkpt><trkpt lat="28.274237" lon="-16.629370"><ele>3282.56</ele><time>2012-09-09T05:47:25Z</time></trkpt><trkpt lat="28.274170" lon="-16.629347"><ele>3283.52</ele><time>2012-09-09T05:47:45Z</time></trkpt><trkpt lat="28.274170" lon="-16.629347"><ele>3283.04</ele><time>2012-09-09T05:48:09Z</time></trkpt><trkpt lat="28.274170" lon="-16.629347"><ele>3283.52</ele><time>2012-09-09T05:48:34Z</time></trkpt><trkpt lat="28.274149" lon="-16.629295"><ele>3283.04</ele><time>2012-09-09T05:48:57Z</time></trkpt><trkpt lat="28.274145" lon="-16.629288"><ele>3283.04</ele><time>2012-09-09T05:48:58Z</time></trkpt><trkpt lat="28.274075" lon="-16.629152"><ele>3284.48</ele><time>2012-09-09T05:49:19Z</time></trkpt><trkpt lat="28.274086" lon="-16.629181"><ele>3284.00</ele><time>2012-09-09T05:49:37Z</time></trkpt><trkpt lat="28.274137" lon="-16.629257"><ele>3282.56</ele><time>2012-09-09T05:49:52Z</time></trkpt><trkpt lat="28.274179" lon="-16.629402"><ele>3282.08</ele><time>2012-09-09T06:09:12Z</time></trkpt><trkpt lat="28.274191" lon="-16.629377"><ele>3282.56</ele><time>2012-09-09T06:09:46Z</time></trkpt><trkpt lat="28.274179" lon="-16.629406"><ele>3284.00</ele><time>2012-09-09T06:10:17Z</time></trkpt><trkpt lat="28.274191" lon="-16.629374"><ele>3282.56</ele><time>2012-09-09T06:10:49Z</time></trkpt><trkpt lat="28.274183" lon="-16.629379"><ele>3282.56</ele><time>2012-09-09T06:11:15Z</time></trkpt><trkpt lat="28.274183" lon="-16.629379"><ele>3282.08</ele><time>2012-09-09T06:11:26Z</time></trkpt><trkpt lat="28.274183" lon="-16.629379"><ele>3283.52</ele><time>2012-09-09T06:11:29Z</time></trkpt><trkpt lat="28.274183" lon="-16.629381"><ele>3282.08</ele><time>2012-09-09T06:11:48Z</time></trkpt><trkpt lat="28.274183" lon="-16.629379"><ele>3283.04</ele><time>2012-09-09T06:12:13Z</time></trkpt><trkpt lat="28.274183" lon="-16.629379"><ele>3281.60</ele><time>2012-09-09T06:12:43Z</time></trkpt><trkpt lat="28.274181" lon="-16.629377"><ele>3280.64</ele><time>2012-09-09T06:13:00Z</time></trkpt><trkpt lat="28.274181" lon="-16.629377"><ele>3282.08</ele><time>2012-09-09T06:13:30Z</time></trkpt><trkpt lat="28.274187" lon="-16.629364"><ele>3282.08</ele><time>2012-09-09T06:13:54Z</time></trkpt><trkpt lat="28.274187" lon="-16.629364"><ele>3282.08</ele><time>2012-09-09T06:14:22Z</time></trkpt><trkpt lat="28.274185" lon="-16.629356"><ele>3281.60</ele><time>2012-09-09T06:14:49Z</time></trkpt><trkpt lat="28.274183" lon="-16.629347"><ele>3283.04</ele><time>2012-09-09T06:15:16Z</time></trkpt><trkpt lat="28.274183" lon="-16.629347"><ele>3282.08</ele><time>2012-09-09T06:15:42Z</time></trkpt><trkpt lat="28.274170" lon="-16.629330"><ele>3282.08</ele><time>2012-09-09T06:16:08Z</time></trkpt><trkpt lat="28.274160" lon="-16.629326"><ele>3282.08</ele><time>2012-09-09T06:16:30Z</time></trkpt><trkpt lat="28.274160" lon="-16.629326"><ele>3282.08</ele><time>2012-09-09T06:16:55Z</time></trkpt><trkpt lat="28.274149" lon="-16.629328"><ele>3283.52</ele><time>2012-09-09T06:17:02Z</time></trkpt><trkpt lat="28.274149" lon="-16.629328"><ele>3282.08</ele><time>2012-09-09T06:17:05Z</time></trkpt><trkpt lat="28.274128" lon="-16.629326"><ele>3282.56</ele><time>2012-09-09T06:17:29Z</time></trkpt><trkpt lat="28.274107" lon="-16.629318"><ele>3282.08</ele><time>2012-09-09T06:17:50Z</time></trkpt><trkpt lat="28.274109" lon="-16.629311"><ele>3281.60</ele><time>2012-09-09T06:18:16Z</time></trkpt><trkpt lat="28.274147" lon="-16.629311"><ele>3282.08</ele><time>2012-09-09T06:18:42Z</time></trkpt><trkpt lat="28.274149" lon="-16.629313"><ele>3281.12</ele><time>2012-09-09T06:19:08Z</time></trkpt><trkpt lat="28.274149" lon="-16.629313"><ele>3282.56</ele><time>2012-09-09T06:19:28Z</time></trkpt><trkpt lat="28.274147" lon="-16.629313"><ele>3282.08</ele><time>2012-09-09T06:19:54Z</time></trkpt><trkpt lat="28.274094" lon="-16.629341"><ele>3282.08</ele><time>2012-09-09T06:20:41Z</time></trkpt><trkpt lat="28.274124" lon="-16.629316"><ele>3281.60</ele><time>2012-09-09T06:20:53Z</time></trkpt><trkpt lat="28.274149" lon="-16.629290"><ele>3281.60</ele><time>2012-09-09T06:21:19Z</time></trkpt><trkpt lat="28.274017" lon="-16.629332"><ele>3281.60</ele><time>2012-09-09T06:25:25Z</time></trkpt><trkpt lat="28.274038" lon="-16.629385"><ele>3280.64</ele><time>2012-09-09T06:25:45Z</time></trkpt><trkpt lat="28.274384" lon="-16.629255"><ele>3283.04</ele><time>2012-09-09T06:26:08Z</time></trkpt><trkpt lat="28.274632" lon="-16.629173"><ele>3280.64</ele><time>2012-09-09T06:26:30Z</time></trkpt><trkpt lat="28.274433" lon="-16.629229"><ele>3281.12</ele><time>2012-09-09T06:26:51Z</time></trkpt><trkpt lat="28.274426" lon="-16.629225"><ele>3280.16</ele><time>2012-09-09T06:27:02Z</time></trkpt><trkpt lat="28.274244" lon="-16.629314"><ele>3281.12</ele><time>2012-09-09T06:27:20Z</time></trkpt><trkpt lat="28.274141" lon="-16.629328"><ele>3281.12</ele><time>2012-09-09T06:27:40Z</time></trkpt><trkpt lat="28.274193" lon="-16.629290"><ele>3280.64</ele><time>2012-09-09T06:28:01Z</time></trkpt><trkpt lat="28.274191" lon="-16.629261"><ele>3281.12</ele><time>2012-09-09T06:28:24Z</time></trkpt><trkpt lat="28.274210" lon="-16.629271"><ele>3281.12</ele><time>2012-09-09T06:28:47Z</time></trkpt><trkpt lat="28.274208" lon="-16.629278"><ele>3282.08</ele><time>2012-09-09T06:29:12Z</time></trkpt><trkpt lat="28.274221" lon="-16.629295"><ele>3281.60</ele><time>2012-09-09T06:29:15Z</time></trkpt><trkpt lat="28.273729" lon="-16.629379"><ele>3281.12</ele><time>2012-09-09T06:36:50Z</time></trkpt><trkpt lat="28.273733" lon="-16.629395"><ele>3281.12</ele><time>2012-09-09T06:37:20Z</time></trkpt><trkpt lat="28.273682" lon="-16.629440"><ele>3281.60</ele><time>2012-09-09T06:37:44Z</time></trkpt><trkpt lat="28.274040" lon="-16.629343"><ele>3280.64</ele><time>2012-09-09T06:38:08Z</time></trkpt><trkpt lat="28.274216" lon="-16.629297"><ele>3281.12</ele><time>2012-09-09T06:40:14Z</time></trkpt><trkpt lat="28.274155" lon="-16.629351"><ele>3283.04</ele><time>2012-09-09T06:40:28Z</time></trkpt><trkpt lat="28.274179" lon="-16.629353"><ele>3281.60</ele><time>2012-09-09T06:40:43Z</time></trkpt><trkpt lat="28.274187" lon="-16.629322"><ele>3283.04</ele><time>2012-09-09T06:41:01Z</time></trkpt><trkpt lat="28.274260" lon="-16.629316"><ele>3280.16</ele><time>2012-09-09T06:41:25Z</time></trkpt><trkpt lat="28.274185" lon="-16.629244"><ele>3281.60</ele><time>2012-09-09T06:41:49Z</time></trkpt><trkpt lat="28.274269" lon="-16.628790"><ele>3282.08</ele><time>2012-09-09T07:07:01Z</time></trkpt><trkpt lat="28.274239" lon="-16.628824"><ele>3281.60</ele><time>2012-09-09T07:07:26Z</time></trkpt><trkpt lat="28.274137" lon="-16.629128"><ele>3282.08</ele><time>2012-09-09T07:07:44Z</time></trkpt><trkpt lat="28.274137" lon="-16.629313"><ele>3281.12</ele><time>2012-09-09T07:08:00Z</time></trkpt><trkpt lat="28.274105" lon="-16.629307"><ele>3281.60</ele><time>2012-09-09T07:08:04Z</time></trkpt><trkpt lat="28.274061" lon="-16.629307"><ele>3280.64</ele><time>2012-09-09T07:08:16Z</time></trkpt><trkpt lat="28.274042" lon="-16.629311"><ele>3279.67</ele><time>2012-09-09T07:08:46Z</time></trkpt><trkpt lat="28.274042" lon="-16.629311"><ele>3278.71</ele><time>2012-09-09T07:08:56Z</time></trkpt><trkpt lat="28.274042" lon="-16.629311"><ele>3280.16</ele><time>2012-09-09T07:09:35Z</time></trkpt><trkpt lat="28.274042" lon="-16.629311"><ele>3279.19</ele><time>2012-09-09T07:10:08Z</time></trkpt><trkpt lat="28.274042" lon="-16.629309"><ele>3278.71</ele><time>2012-09-09T07:10:41Z</time></trkpt><trkpt lat="28.274042" lon="-16.629309"><ele>3280.64</ele><time>2012-09-09T07:10:53Z</time></trkpt><trkpt lat="28.274042" lon="-16.629309"><ele>3278.71</ele><time>2012-09-09T07:11:27Z</time></trkpt><trkpt lat="28.274042" lon="-16.629309"><ele>3278.71</ele><time>2012-09-09T07:12:08Z</time></trkpt><trkpt lat="28.274055" lon="-16.629311"><ele>3279.67</ele><time>2012-09-09T07:12:24Z</time></trkpt><trkpt lat="28.274055" lon="-16.629311"><ele>3279.67</ele><time>2012-09-09T07:12:57Z</time></trkpt><trkpt lat="28.274042" lon="-16.629311"><ele>3279.19</ele><time>2012-09-09T07:13:07Z</time></trkpt><trkpt lat="28.274040" lon="-16.629311"><ele>3280.16</ele><time>2012-09-09T07:13:09Z</time></trkpt><trkpt lat="28.274040" lon="-16.629311"><ele>3279.19</ele><time>2012-09-09T07:13:11Z</time></trkpt><trkpt lat="28.274038" lon="-16.629314"><ele>3280.16</ele><time>2012-09-09T07:13:24Z</time></trkpt><trkpt lat="28.274038" lon="-16.629314"><ele>3280.16</ele><time>2012-09-09T07:13:31Z</time></trkpt><trkpt lat="28.274015" lon="-16.629341"><ele>3278.71</ele><time>2012-09-09T07:13:39Z</time></trkpt><trkpt lat="28.274010" lon="-16.629320"><ele>3280.64</ele><time>2012-09-09T07:13:50Z</time></trkpt><trkpt lat="28.273998" lon="-16.629351"><ele>3280.16</ele><time>2012-09-09T07:14:01Z</time></trkpt><trkpt lat="28.273975" lon="-16.629370"><ele>3278.23</ele><time>2012-09-09T07:14:07Z</time></trkpt><trkpt lat="28.273932" lon="-16.629343"><ele>3278.23</ele><time>2012-09-09T07:14:12Z</time></trkpt><trkpt lat="28.273930" lon="-16.629343"><ele>3276.79</ele><time>2012-09-09T07:14:14Z</time></trkpt><trkpt lat="28.273926" lon="-16.629341"><ele>3273.91</ele><time>2012-09-09T07:14:16Z</time></trkpt><trkpt lat="28.273922" lon="-16.629328"><ele>3277.27</ele><time>2012-09-09T07:14:18Z</time></trkpt><trkpt lat="28.273911" lon="-16.629265"><ele>3274.39</ele><time>2012-09-09T07:14:30Z</time></trkpt><trkpt lat="28.273911" lon="-16.629206"><ele>3273.91</ele><time>2012-09-09T07:14:38Z</time></trkpt><trkpt lat="28.273895" lon="-16.629204"><ele>3272.95</ele><time>2012-09-09T07:14:41Z</time></trkpt><trkpt lat="28.273836" lon="-16.629187"><ele>3271.02</ele><time>2012-09-09T07:14:50Z</time></trkpt><trkpt lat="28.273827" lon="-16.629187"><ele>3271.02</ele><time>2012-09-09T07:14:52Z</time></trkpt><trkpt lat="28.273781" lon="-16.629166"><ele>3269.58</ele><time>2012-09-09T07:14:58Z</time></trkpt><trkpt lat="28.273771" lon="-16.629126"><ele>3267.66</ele><time>2012-09-09T07:15:06Z</time></trkpt><trkpt lat="28.273760" lon="-16.629082"><ele>3265.74</ele><time>2012-09-09T07:15:15Z</time></trkpt><trkpt lat="28.273737" lon="-16.629013"><ele>3264.77</ele><time>2012-09-09T07:15:27Z</time></trkpt><trkpt lat="28.273741" lon="-16.628992"><ele>3262.85</ele><time>2012-09-09T07:15:30Z</time></trkpt><trkpt lat="28.273741" lon="-16.628971"><ele>3262.85</ele><time>2012-09-09T07:15:35Z</time></trkpt><trkpt lat="28.273720" lon="-16.628967"><ele>3261.89</ele><time>2012-09-09T07:15:39Z</time></trkpt><trkpt lat="28.273724" lon="-16.628946"><ele>3260.45</ele><time>2012-09-09T07:15:45Z</time></trkpt><trkpt lat="28.273756" lon="-16.628881"><ele>3258.53</ele><time>2012-09-09T07:15:53Z</time></trkpt><trkpt lat="28.273764" lon="-16.628860"><ele>3257.56</ele><time>2012-09-09T07:15:57Z</time></trkpt><trkpt lat="28.273775" lon="-16.628834"><ele>3258.05</ele><time>2012-09-09T07:16:07Z</time></trkpt><trkpt lat="28.273710" lon="-16.628822"><ele>3256.60</ele><time>2012-09-09T07:16:19Z</time></trkpt><trkpt lat="28.273691" lon="-16.628777"><ele>3254.68</ele><time>2012-09-09T07:16:29Z</time></trkpt><trkpt lat="28.273689" lon="-16.628706"><ele>3251.80</ele><time>2012-09-09T07:16:38Z</time></trkpt><trkpt lat="28.273703" lon="-16.628675"><ele>3251.80</ele><time>2012-09-09T07:16:42Z</time></trkpt><trkpt lat="28.273634" lon="-16.628668"><ele>3248.91</ele><time>2012-09-09T07:16:55Z</time></trkpt><trkpt lat="28.273615" lon="-16.628651"><ele>3247.95</ele><time>2012-09-09T07:17:00Z</time></trkpt><trkpt lat="28.273642" lon="-16.628658"><ele>3248.43</ele><time>2012-09-09T07:17:03Z</time></trkpt><trkpt lat="28.273653" lon="-16.628605"><ele>3245.55</ele><time>2012-09-09T07:17:16Z</time></trkpt><trkpt lat="28.273657" lon="-16.628525"><ele>3243.14</ele><time>2012-09-09T07:17:29Z</time></trkpt><trkpt lat="28.273674" lon="-16.628477"><ele>3242.66</ele><time>2012-09-09T07:17:42Z</time></trkpt><trkpt lat="28.273701" lon="-16.628437"><ele>3239.30</ele><time>2012-09-09T07:17:54Z</time></trkpt><trkpt lat="28.273714" lon="-16.628428"><ele>3237.38</ele><time>2012-09-09T07:18:05Z</time></trkpt><trkpt lat="28.273758" lon="-16.628370"><ele>3235.94</ele><time>2012-09-09T07:18:16Z</time></trkpt><trkpt lat="28.273777" lon="-16.628349"><ele>3234.49</ele><time>2012-09-09T07:18:21Z</time></trkpt><trkpt lat="28.273760" lon="-16.628300"><ele>3233.05</ele><time>2012-09-09T07:18:29Z</time></trkpt><trkpt lat="28.273766" lon="-16.628265"><ele>3232.09</ele><time>2012-09-09T07:18:33Z</time></trkpt><trkpt lat="28.273781" lon="-16.628262"><ele>3231.61</ele><time>2012-09-09T07:18:35Z</time></trkpt><trkpt lat="28.273792" lon="-16.628242"><ele>3231.61</ele><time>2012-09-09T07:18:39Z</time></trkpt><trkpt lat="28.273804" lon="-16.628233"><ele>3231.61</ele><time>2012-09-09T07:18:41Z</time></trkpt><trkpt lat="28.273930" lon="-16.628187"><ele>3230.17</ele><time>2012-09-09T07:18:56Z</time></trkpt><trkpt lat="28.273960" lon="-16.628174"><ele>3228.24</ele><time>2012-09-09T07:19:08Z</time></trkpt><trkpt lat="28.273989" lon="-16.628145"><ele>3228.24</ele><time>2012-09-09T07:19:19Z</time></trkpt><trkpt lat="28.273993" lon="-16.628111"><ele>3224.88</ele><time>2012-09-09T07:19:30Z</time></trkpt><trkpt lat="28.273973" lon="-16.628105"><ele>3222.96</ele><time>2012-09-09T07:19:41Z</time></trkpt><trkpt lat="28.273918" lon="-16.628046"><ele>3219.59</ele><time>2012-09-09T07:19:54Z</time></trkpt><trkpt lat="28.273893" lon="-16.628033"><ele>3218.15</ele><time>2012-09-09T07:19:57Z</time></trkpt><trkpt lat="28.273886" lon="-16.628027"><ele>3217.67</ele><time>2012-09-09T07:19:59Z</time></trkpt><trkpt lat="28.273888" lon="-16.628002"><ele>3218.15</ele><time>2012-09-09T07:20:01Z</time></trkpt><trkpt lat="28.273884" lon="-16.627958"><ele>3217.19</ele><time>2012-09-09T07:20:07Z</time></trkpt><trkpt lat="28.273851" lon="-16.627892"><ele>3214.31</ele><time>2012-09-09T07:20:17Z</time></trkpt><trkpt lat="28.273865" lon="-16.627848"><ele>3212.86</ele><time>2012-09-09T07:20:22Z</time></trkpt><trkpt lat="28.273878" lon="-16.627813"><ele>3212.38</ele><time>2012-09-09T07:20:25Z</time></trkpt><trkpt lat="28.273918" lon="-16.627771"><ele>3210.94</ele><time>2012-09-09T07:20:30Z</time></trkpt><trkpt lat="28.273958" lon="-16.627682"><ele>3207.58</ele><time>2012-09-09T07:20:43Z</time></trkpt><trkpt lat="28.273947" lon="-16.627600"><ele>3205.17</ele><time>2012-09-09T07:20:56Z</time></trkpt><trkpt lat="28.273895" lon="-16.627522"><ele>3202.29</ele><time>2012-09-09T07:21:10Z</time></trkpt><trkpt lat="28.273878" lon="-16.627443"><ele>3199.40</ele><time>2012-09-09T07:21:22Z</time></trkpt><trkpt lat="28.273819" lon="-16.627417"><ele>3197.48</ele><time>2012-09-09T07:21:33Z</time></trkpt><trkpt lat="28.273783" lon="-16.627420"><ele>3196.04</ele><time>2012-09-09T07:21:41Z</time></trkpt><trkpt lat="28.273716" lon="-16.627443"><ele>3195.08</ele><time>2012-09-09T07:21:46Z</time></trkpt><trkpt lat="28.273664" lon="-16.627430"><ele>3194.60</ele><time>2012-09-09T07:21:50Z</time></trkpt><trkpt lat="28.273588" lon="-16.627449"><ele>3192.20</ele><time>2012-09-09T07:21:57Z</time></trkpt><trkpt lat="28.273565" lon="-16.627439"><ele>3191.71</ele><time>2012-09-09T07:22:01Z</time></trkpt><trkpt lat="28.273569" lon="-16.627405"><ele>3190.75</ele><time>2012-09-09T07:22:06Z</time></trkpt><trkpt lat="28.273565" lon="-16.627377"><ele>3189.31</ele><time>2012-09-09T07:22:09Z</time></trkpt><trkpt lat="28.273575" lon="-16.627357"><ele>3188.35</ele><time>2012-09-09T07:22:11Z</time></trkpt><trkpt lat="28.273602" lon="-16.627262"><ele>3186.43</ele><time>2012-09-09T07:22:24Z</time></trkpt><trkpt lat="28.273611" lon="-16.627172"><ele>3184.50</ele><time>2012-09-09T07:22:36Z</time></trkpt><trkpt lat="28.273603" lon="-16.627174"><ele>3184.50</ele><time>2012-09-09T07:22:37Z</time></trkpt><trkpt lat="28.273508" lon="-16.627201"><ele>3181.14</ele><time>2012-09-09T07:22:52Z</time></trkpt><trkpt lat="28.273434" lon="-16.627197"><ele>3179.70</ele><time>2012-09-09T07:23:03Z</time></trkpt><trkpt lat="28.273417" lon="-16.627207"><ele>3179.22</ele><time>2012-09-09T07:23:05Z</time></trkpt><trkpt lat="28.273369" lon="-16.627209"><ele>3178.26</ele><time>2012-09-09T07:23:09Z</time></trkpt><trkpt lat="28.273268" lon="-16.627216"><ele>3176.33</ele><time>2012-09-09T07:23:20Z</time></trkpt><trkpt lat="28.273254" lon="-16.627230"><ele>3175.85</ele><time>2012-09-09T07:23:22Z</time></trkpt><trkpt lat="28.273251" lon="-16.627243"><ele>3173.45</ele><time>2012-09-09T07:23:32Z</time></trkpt><trkpt lat="28.273232" lon="-16.627195"><ele>3172.49</ele><time>2012-09-09T07:23:40Z</time></trkpt><trkpt lat="28.273256" lon="-16.627100"><ele>3170.08</ele><time>2012-09-09T07:23:52Z</time></trkpt><trkpt lat="28.273275" lon="-16.627060"><ele>3169.12</ele><time>2012-09-09T07:23:57Z</time></trkpt><trkpt lat="28.273302" lon="-16.627008"><ele>3168.16</ele><time>2012-09-09T07:24:01Z</time></trkpt><trkpt lat="28.273325" lon="-16.626965"><ele>3168.16</ele><time>2012-09-09T07:24:06Z</time></trkpt><trkpt lat="28.273373" lon="-16.626892"><ele>3165.76</ele><time>2012-09-09T07:24:20Z</time></trkpt><trkpt lat="28.273346" lon="-16.626879"><ele>3164.32</ele><time>2012-09-09T07:24:29Z</time></trkpt><trkpt lat="28.273306" lon="-16.626888"><ele>3163.36</ele><time>2012-09-09T07:24:33Z</time></trkpt><trkpt lat="28.273258" lon="-16.626896"><ele>3162.88</ele><time>2012-09-09T07:24:40Z</time></trkpt><trkpt lat="28.273237" lon="-16.626905"><ele>3161.91</ele><time>2012-09-09T07:24:43Z</time></trkpt><trkpt lat="28.273186" lon="-16.626925"><ele>3160.47</ele><time>2012-09-09T07:24:49Z</time></trkpt><trkpt lat="28.273186" lon="-16.626917"><ele>3159.03</ele><time>2012-09-09T07:24:55Z</time></trkpt><trkpt lat="28.273211" lon="-16.626823"><ele>3156.63</ele><time>2012-09-09T07:25:08Z</time></trkpt><trkpt lat="28.273266" lon="-16.626751"><ele>3153.74</ele><time>2012-09-09T07:25:21Z</time></trkpt><trkpt lat="28.273331" lon="-16.626657"><ele>3150.86</ele><time>2012-09-09T07:25:34Z</time></trkpt><trkpt lat="28.273340" lon="-16.626638"><ele>3151.34</ele><time>2012-09-09T07:25:40Z</time></trkpt><trkpt lat="28.273325" lon="-16.626633"><ele>3150.86</ele><time>2012-09-09T07:25:45Z</time></trkpt><trkpt lat="28.273317" lon="-16.626629"><ele>3150.38</ele><time>2012-09-09T07:25:46Z</time></trkpt><trkpt lat="28.273289" lon="-16.626625"><ele>3150.38</ele><time>2012-09-09T07:25:49Z</time></trkpt><trkpt lat="28.273264" lon="-16.626650"><ele>3148.94</ele><time>2012-09-09T07:25:52Z</time></trkpt><trkpt lat="28.273220" lon="-16.626657"><ele>3147.49</ele><time>2012-09-09T07:26:01Z</time></trkpt><trkpt lat="28.273182" lon="-16.626657"><ele>3146.05</ele><time>2012-09-09T07:26:07Z</time></trkpt><trkpt lat="28.273191" lon="-16.626652"><ele>3145.57</ele><time>2012-09-09T07:26:17Z</time></trkpt><trkpt lat="28.273197" lon="-16.626614"><ele>3142.69</ele><time>2012-09-09T07:26:24Z</time></trkpt><trkpt lat="28.273197" lon="-16.626568"><ele>3141.73</ele><time>2012-09-09T07:26:32Z</time></trkpt><trkpt lat="28.273211" lon="-16.626537"><ele>3140.76</ele><time>2012-09-09T07:26:35Z</time></trkpt><trkpt lat="28.273243" lon="-16.626476"><ele>3138.84</ele><time>2012-09-09T07:26:46Z</time></trkpt><trkpt lat="28.273281" lon="-16.626411"><ele>3136.44</ele><time>2012-09-09T07:26:58Z</time></trkpt><trkpt lat="28.273340" lon="-16.626324"><ele>3134.04</ele><time>2012-09-09T07:27:10Z</time></trkpt><trkpt lat="28.273376" lon="-16.626263"><ele>3131.63</ele><time>2012-09-09T07:27:21Z</time></trkpt><trkpt lat="28.273426" lon="-16.626192"><ele>3130.19</ele><time>2012-09-09T07:27:32Z</time></trkpt><trkpt lat="28.273434" lon="-16.626175"><ele>3128.75</ele><time>2012-09-09T07:27:37Z</time></trkpt><trkpt lat="28.273415" lon="-16.626158"><ele>3127.31</ele><time>2012-09-09T07:27:45Z</time></trkpt><trkpt lat="28.273354" lon="-16.626154"><ele>3126.34</ele><time>2012-09-09T07:27:52Z</time></trkpt><trkpt lat="28.273228" lon="-16.626183"><ele>3124.42</ele><time>2012-09-09T07:28:04Z</time></trkpt><trkpt lat="28.273197" lon="-16.626204"><ele>3122.02</ele><time>2012-09-09T07:28:13Z</time></trkpt><trkpt lat="28.273161" lon="-16.626179"><ele>3120.58</ele><time>2012-09-09T07:28:24Z</time></trkpt><trkpt lat="28.273149" lon="-16.626150"><ele>3118.17</ele><time>2012-09-09T07:28:37Z</time></trkpt><trkpt lat="28.273149" lon="-16.626123"><ele>3116.25</ele><time>2012-09-09T07:28:51Z</time></trkpt><trkpt lat="28.273163" lon="-16.626040"><ele>3113.37</ele><time>2012-09-09T07:29:03Z</time></trkpt><trkpt lat="28.273207" lon="-16.625978"><ele>3111.44</ele><time>2012-09-09T07:29:13Z</time></trkpt><trkpt lat="28.273243" lon="-16.625938"><ele>3109.04</ele><time>2012-09-09T07:29:25Z</time></trkpt><trkpt lat="28.273243" lon="-16.625925"><ele>3108.56</ele><time>2012-09-09T07:29:27Z</time></trkpt><trkpt lat="28.273209" lon="-16.625904"><ele>3106.16</ele><time>2012-09-09T07:29:38Z</time></trkpt><trkpt lat="28.273235" lon="-16.625872"><ele>3104.71</ele><time>2012-09-09T07:29:46Z</time></trkpt><trkpt lat="28.273254" lon="-16.625853"><ele>3104.23</ele><time>2012-09-09T07:29:49Z</time></trkpt><trkpt lat="28.273323" lon="-16.625788"><ele>3101.83</ele><time>2012-09-09T07:30:01Z</time></trkpt><trkpt lat="28.273338" lon="-16.625765"><ele>3099.91</ele><time>2012-09-09T07:30:12Z</time></trkpt><trkpt lat="28.273317" lon="-16.625748"><ele>3098.95</ele><time>2012-09-09T07:30:16Z</time></trkpt><trkpt lat="28.273310" lon="-16.625721"><ele>3097.99</ele><time>2012-09-09T07:30:21Z</time></trkpt><trkpt lat="28.273319" lon="-16.625671"><ele>3097.02</ele><time>2012-09-09T07:30:31Z</time></trkpt><trkpt lat="28.273249" lon="-16.625648"><ele>3094.14</ele><time>2012-09-09T07:30:42Z</time></trkpt><trkpt lat="28.273252" lon="-16.625555"><ele>3091.26</ele><time>2012-09-09T07:30:55Z</time></trkpt><trkpt lat="28.273232" lon="-16.625486"><ele>3087.89</ele><time>2012-09-09T07:31:05Z</time></trkpt><trkpt lat="28.273245" lon="-16.625469"><ele>3086.93</ele><time>2012-09-09T07:31:16Z</time></trkpt><trkpt lat="28.273256" lon="-16.625454"><ele>3086.93</ele><time>2012-09-09T07:31:18Z</time></trkpt><trkpt lat="28.273321" lon="-16.625341"><ele>3083.57</ele><time>2012-09-09T07:31:31Z</time></trkpt><trkpt lat="28.273310" lon="-16.625328"><ele>3082.60</ele><time>2012-09-09T07:31:35Z</time></trkpt><trkpt lat="28.273325" lon="-16.625263"><ele>3081.64</ele><time>2012-09-09T07:31:41Z</time></trkpt><trkpt lat="28.273361" lon="-16.625174"><ele>3079.24</ele><time>2012-09-09T07:31:53Z</time></trkpt><trkpt lat="28.273365" lon="-16.625164"><ele>3078.76</ele><time>2012-09-09T07:31:54Z</time></trkpt><trkpt lat="28.273382" lon="-16.625132"><ele>3077.32</ele><time>2012-09-09T07:31:57Z</time></trkpt><trkpt lat="28.273438" lon="-16.625055"><ele>3075.88</ele><time>2012-09-09T07:32:07Z</time></trkpt><trkpt lat="28.273487" lon="-16.625019"><ele>3076.84</ele><time>2012-09-09T07:32:18Z</time></trkpt><trkpt lat="28.273499" lon="-16.625019"><ele>3075.88</ele><time>2012-09-09T07:32:35Z</time></trkpt><trkpt lat="28.273500" lon="-16.625025"><ele>3075.88</ele><time>2012-09-09T07:32:52Z</time></trkpt><trkpt lat="28.273502" lon="-16.625029"><ele>3076.36</ele><time>2012-09-09T07:33:20Z</time></trkpt><trkpt lat="28.273502" lon="-16.625029"><ele>3076.84</ele><time>2012-09-09T07:33:31Z</time></trkpt><trkpt lat="28.273502" lon="-16.625029"><ele>3074.91</ele><time>2012-09-09T07:33:43Z</time></trkpt><trkpt lat="28.273502" lon="-16.625029"><ele>3074.43</ele><time>2012-09-09T07:33:45Z</time></trkpt><trkpt lat="28.273445" lon="-16.624998"><ele>3072.51</ele><time>2012-09-09T07:33:52Z</time></trkpt><trkpt lat="28.273424" lon="-16.624996"><ele>3071.55</ele><time>2012-09-09T07:33:55Z</time></trkpt><trkpt lat="28.273388" lon="-16.624989"><ele>3071.07</ele><time>2012-09-09T07:33:58Z</time></trkpt><trkpt lat="28.273325" lon="-16.624975"><ele>3069.63</ele><time>2012-09-09T07:34:04Z</time></trkpt><trkpt lat="28.273251" lon="-16.624987"><ele>3067.22</ele><time>2012-09-09T07:34:12Z</time></trkpt><trkpt lat="28.273237" lon="-16.624943"><ele>3065.30</ele><time>2012-09-09T07:34:19Z</time></trkpt><trkpt lat="28.273249" lon="-16.624924"><ele>3064.82</ele><time>2012-09-09T07:34:21Z</time></trkpt><trkpt lat="28.273222" lon="-16.624849"><ele>3060.49</ele><time>2012-09-09T07:34:33Z</time></trkpt><trkpt lat="28.273180" lon="-16.624836"><ele>3060.01</ele><time>2012-09-09T07:34:39Z</time></trkpt><trkpt lat="28.273121" lon="-16.624834"><ele>3058.57</ele><time>2012-09-09T07:34:43Z</time></trkpt><trkpt lat="28.273096" lon="-16.624763"><ele>3056.65</ele><time>2012-09-09T07:34:49Z</time></trkpt><trkpt lat="28.273043" lon="-16.624701"><ele>3054.25</ele><time>2012-09-09T07:34:58Z</time></trkpt><trkpt lat="28.273012" lon="-16.624681"><ele>3053.77</ele><time>2012-09-09T07:35:01Z</time></trkpt><trkpt lat="28.272985" lon="-16.624655"><ele>3052.80</ele><time>2012-09-09T07:35:03Z</time></trkpt><trkpt lat="28.272966" lon="-16.624619"><ele>3051.84</ele><time>2012-09-09T07:35:05Z</time></trkpt><trkpt lat="28.272959" lon="-16.624563"><ele>3049.92</ele><time>2012-09-09T07:35:10Z</time></trkpt><trkpt lat="28.272993" lon="-16.624548"><ele>3048.96</ele><time>2012-09-09T07:35:14Z</time></trkpt><trkpt lat="28.273029" lon="-16.624496"><ele>3047.04</ele><time>2012-09-09T07:35:19Z</time></trkpt><trkpt lat="28.273155" lon="-16.624437"><ele>3044.15</ele><time>2012-09-09T07:35:31Z</time></trkpt><trkpt lat="28.273174" lon="-16.624409"><ele>3041.75</ele><time>2012-09-09T07:35:38Z</time></trkpt><trkpt lat="28.273188" lon="-16.624342"><ele>3039.35</ele><time>2012-09-09T07:35:45Z</time></trkpt><trkpt lat="28.273144" lon="-16.624269"><ele>3035.98</ele><time>2012-09-09T07:35:56Z</time></trkpt><trkpt lat="28.273113" lon="-16.624250"><ele>3035.98</ele><time>2012-09-09T07:35:59Z</time></trkpt><trkpt lat="28.273087" lon="-16.624178"><ele>3034.54</ele><time>2012-09-09T07:36:05Z</time></trkpt><trkpt lat="28.273087" lon="-16.624168"><ele>3034.06</ele><time>2012-09-09T07:36:06Z</time></trkpt><trkpt lat="28.273109" lon="-16.624117"><ele>3032.62</ele><time>2012-09-09T07:36:12Z</time></trkpt><trkpt lat="28.273142" lon="-16.624044"><ele>3028.77</ele><time>2012-09-09T07:36:21Z</time></trkpt><trkpt lat="28.273144" lon="-16.624039"><ele>3029.25</ele><time>2012-09-09T07:36:22Z</time></trkpt><trkpt lat="28.273127" lon="-16.624033"><ele>3028.77</ele><time>2012-09-09T07:36:24Z</time></trkpt><trkpt lat="28.273096" lon="-16.624012"><ele>3027.33</ele><time>2012-09-09T07:36:28Z</time></trkpt><trkpt lat="28.273088" lon="-16.623972"><ele>3026.85</ele><time>2012-09-09T07:36:32Z</time></trkpt><trkpt lat="28.273046" lon="-16.623945"><ele>3025.89</ele><time>2012-09-09T07:36:37Z</time></trkpt><trkpt lat="28.273001" lon="-16.623917"><ele>3023.96</ele><time>2012-09-09T07:36:42Z</time></trkpt><trkpt lat="28.272921" lon="-16.623909"><ele>3022.04</ele><time>2012-09-09T07:36:48Z</time></trkpt><trkpt lat="28.272913" lon="-16.623913"><ele>3021.56</ele><time>2012-09-09T07:36:49Z</time></trkpt><trkpt lat="28.272898" lon="-16.623901"><ele>3020.60</ele><time>2012-09-09T07:36:51Z</time></trkpt><trkpt lat="28.272882" lon="-16.623812"><ele>3017.23</ele><time>2012-09-09T07:37:00Z</time></trkpt><trkpt lat="28.272882" lon="-16.623762"><ele>3015.79</ele><time>2012-09-09T07:37:05Z</time></trkpt><trkpt lat="28.272877" lon="-16.623693"><ele>3014.35</ele><time>2012-09-09T07:37:13Z</time></trkpt><trkpt lat="28.272869" lon="-16.623583"><ele>3012.43</ele><time>2012-09-09T07:37:21Z</time></trkpt><trkpt lat="28.272850" lon="-16.623550"><ele>3010.51</ele><time>2012-09-09T07:37:24Z</time></trkpt><trkpt lat="28.272844" lon="-16.623425"><ele>3009.54</ele><time>2012-09-09T07:37:33Z</time></trkpt><trkpt lat="28.272861" lon="-16.623362"><ele>3008.10</ele><time>2012-09-09T07:37:37Z</time></trkpt><trkpt lat="28.272898" lon="-16.623276"><ele>3007.14</ele><time>2012-09-09T07:37:44Z</time></trkpt><trkpt lat="28.272928" lon="-16.623268"><ele>3006.66</ele><time>2012-09-09T07:37:48Z</time></trkpt><trkpt lat="28.272951" lon="-16.623186"><ele>3004.26</ele><time>2012-09-09T07:38:00Z</time></trkpt><trkpt lat="28.272951" lon="-16.623178"><ele>3003.30</ele><time>2012-09-09T07:38:01Z</time></trkpt><trkpt lat="28.272947" lon="-16.623159"><ele>3002.82</ele><time>2012-09-09T07:38:03Z</time></trkpt><trkpt lat="28.272947" lon="-16.623116"><ele>3000.89</ele><time>2012-09-09T07:38:11Z</time></trkpt><trkpt lat="28.272924" lon="-16.623005"><ele>2997.53</ele><time>2012-09-09T07:38:22Z</time></trkpt><trkpt lat="28.272919" lon="-16.622992"><ele>2997.53</ele><time>2012-09-09T07:38:23Z</time></trkpt><trkpt lat="28.272947" lon="-16.622988"><ele>2996.09</ele><time>2012-09-09T07:38:27Z</time></trkpt><trkpt lat="28.272964" lon="-16.622988"><ele>2995.60</ele><time>2012-09-09T07:38:32Z</time></trkpt><trkpt lat="28.272968" lon="-16.622946"><ele>2993.20</ele><time>2012-09-09T07:38:35Z</time></trkpt><trkpt lat="28.272972" lon="-16.622910"><ele>2992.24</ele><time>2012-09-09T07:38:38Z</time></trkpt><trkpt lat="28.272968" lon="-16.622871"><ele>2990.32</ele><time>2012-09-09T07:38:42Z</time></trkpt><trkpt lat="28.272951" lon="-16.622831"><ele>2990.32</ele><time>2012-09-09T07:38:46Z</time></trkpt><trkpt lat="28.272972" lon="-16.622774"><ele>2987.43</ele><time>2012-09-09T07:39:00Z</time></trkpt><trkpt lat="28.272970" lon="-16.622768"><ele>2986.95</ele><time>2012-09-09T07:39:01Z</time></trkpt><trkpt lat="28.272953" lon="-16.622744"><ele>2986.47</ele><time>2012-09-09T07:39:04Z</time></trkpt><trkpt lat="28.272913" lon="-16.622660"><ele>2983.59</ele><time>2012-09-09T07:39:16Z</time></trkpt><trkpt lat="28.272888" lon="-16.622629"><ele>2982.63</ele><time>2012-09-09T07:39:21Z</time></trkpt><trkpt lat="28.272861" lon="-16.622581"><ele>2981.67</ele><time>2012-09-09T07:39:26Z</time></trkpt><trkpt lat="28.272797" lon="-16.622490"><ele>2979.26</ele><time>2012-09-09T07:39:35Z</time></trkpt><trkpt lat="28.272781" lon="-16.622438"><ele>2978.30</ele><time>2012-09-09T07:39:48Z</time></trkpt><trkpt lat="28.272779" lon="-16.622400"><ele>2975.90</ele><time>2012-09-09T07:39:57Z</time></trkpt><trkpt lat="28.272787" lon="-16.622349"><ele>2974.46</ele><time>2012-09-09T07:40:02Z</time></trkpt><trkpt lat="28.272808" lon="-16.622280"><ele>2971.09</ele><time>2012-09-09T07:40:15Z</time></trkpt><trkpt lat="28.272802" lon="-16.622252"><ele>2968.69</ele><time>2012-09-09T07:40:27Z</time></trkpt><trkpt lat="28.272806" lon="-16.622236"><ele>2967.73</ele><time>2012-09-09T07:40:37Z</time></trkpt><trkpt lat="28.272793" lon="-16.622196"><ele>2964.84</ele><time>2012-09-09T07:40:46Z</time></trkpt><trkpt lat="28.272793" lon="-16.622196"><ele>2963.40</ele><time>2012-09-09T07:40:55Z</time></trkpt><trkpt lat="28.272835" lon="-16.622099"><ele>2961.48</ele><time>2012-09-09T07:41:03Z</time></trkpt><trkpt lat="28.272829" lon="-16.621998"><ele>2958.59</ele><time>2012-09-09T07:41:13Z</time></trkpt><trkpt lat="28.272833" lon="-16.621983"><ele>2957.15</ele><time>2012-09-09T07:41:16Z</time></trkpt><trkpt lat="28.272806" lon="-16.621931"><ele>2956.67</ele><time>2012-09-09T07:41:25Z</time></trkpt><trkpt lat="28.272776" lon="-16.621887"><ele>2954.75</ele><time>2012-09-09T07:41:29Z</time></trkpt><trkpt lat="28.272758" lon="-16.621849"><ele>2953.79</ele><time>2012-09-09T07:41:32Z</time></trkpt><trkpt lat="28.272768" lon="-16.621840"><ele>2953.31</ele><time>2012-09-09T07:41:34Z</time></trkpt><trkpt lat="28.272764" lon="-16.621817"><ele>2952.35</ele><time>2012-09-09T07:41:36Z</time></trkpt><trkpt lat="28.272797" lon="-16.621742"><ele>2950.42</ele><time>2012-09-09T07:41:47Z</time></trkpt><trkpt lat="28.272802" lon="-16.621708"><ele>2947.54</ele><time>2012-09-09T07:41:52Z</time></trkpt><trkpt lat="28.272789" lon="-16.621672"><ele>2946.10</ele><time>2012-09-09T07:42:06Z</time></trkpt><trkpt lat="28.272783" lon="-16.621656"><ele>2945.62</ele><time>2012-09-09T07:42:08Z</time></trkpt><trkpt lat="28.272722" lon="-16.621614"><ele>2944.66</ele><time>2012-09-09T07:42:13Z</time></trkpt><trkpt lat="28.272730" lon="-16.621555"><ele>2942.73</ele><time>2012-09-09T07:42:23Z</time></trkpt><trkpt lat="28.272734" lon="-16.621531"><ele>2939.37</ele><time>2012-09-09T07:42:34Z</time></trkpt><trkpt lat="28.272734" lon="-16.621523"><ele>2938.89</ele><time>2012-09-09T07:42:38Z</time></trkpt><trkpt lat="28.272692" lon="-16.621418"><ele>2935.04</ele><time>2012-09-09T07:42:50Z</time></trkpt><trkpt lat="28.272688" lon="-16.621410"><ele>2934.56</ele><time>2012-09-09T07:42:51Z</time></trkpt><trkpt lat="28.272667" lon="-16.621355"><ele>2933.12</ele><time>2012-09-09T07:43:05Z</time></trkpt><trkpt lat="28.272644" lon="-16.621361"><ele>2932.16</ele><time>2012-09-09T07:43:11Z</time></trkpt><trkpt lat="28.272642" lon="-16.621347"><ele>2931.20</ele><time>2012-09-09T07:43:13Z</time></trkpt><trkpt lat="28.272657" lon="-16.621328"><ele>2930.24</ele><time>2012-09-09T07:43:17Z</time></trkpt><trkpt lat="28.272646" lon="-16.621241"><ele>2927.83</ele><time>2012-09-09T07:43:29Z</time></trkpt><trkpt lat="28.272573" lon="-16.621225"><ele>2925.43</ele><time>2012-09-09T07:43:38Z</time></trkpt><trkpt lat="28.272566" lon="-16.621197"><ele>2923.99</ele><time>2012-09-09T07:43:42Z</time></trkpt><trkpt lat="28.272556" lon="-16.621140"><ele>2922.54</ele><time>2012-09-09T07:43:54Z</time></trkpt><trkpt lat="28.272490" lon="-16.621157"><ele>2920.62</ele><time>2012-09-09T07:44:04Z</time></trkpt><trkpt lat="28.272457" lon="-16.621174"><ele>2920.14</ele><time>2012-09-09T07:44:08Z</time></trkpt><trkpt lat="28.272409" lon="-16.621122"><ele>2916.78</ele><time>2012-09-09T07:44:19Z</time></trkpt><trkpt lat="28.272453" lon="-16.621004"><ele>2914.37</ele><time>2012-09-09T07:44:31Z</time></trkpt><trkpt lat="28.272448" lon="-16.620962"><ele>2911.49</ele><time>2012-09-09T07:44:42Z</time></trkpt><trkpt lat="28.272432" lon="-16.620955"><ele>2910.53</ele><time>2012-09-09T07:44:44Z</time></trkpt><trkpt lat="28.272390" lon="-16.620903"><ele>2909.09</ele><time>2012-09-09T07:44:55Z</time></trkpt><trkpt lat="28.272371" lon="-16.620813"><ele>2906.68</ele><time>2012-09-09T07:45:06Z</time></trkpt><trkpt lat="28.272352" lon="-16.620743"><ele>2904.28</ele><time>2012-09-09T07:45:19Z</time></trkpt><trkpt lat="28.272305" lon="-16.620712"><ele>2902.36</ele><time>2012-09-09T07:45:29Z</time></trkpt><trkpt lat="28.272247" lon="-16.620728"><ele>2901.88</ele><time>2012-09-09T07:45:40Z</time></trkpt><trkpt lat="28.272243" lon="-16.620720"><ele>2899.47</ele><time>2012-09-09T07:45:42Z</time></trkpt><trkpt lat="28.272219" lon="-16.620674"><ele>2898.03</ele><time>2012-09-09T07:45:54Z</time></trkpt><trkpt lat="28.272215" lon="-16.620649"><ele>2897.55</ele><time>2012-09-09T07:45:57Z</time></trkpt><trkpt lat="28.272223" lon="-16.620590"><ele>2896.11</ele><time>2012-09-09T07:46:10Z</time></trkpt><trkpt lat="28.272196" lon="-16.620544"><ele>2894.19</ele><time>2012-09-09T07:46:17Z</time></trkpt><trkpt lat="28.272167" lon="-16.620520"><ele>2896.59</ele><time>2012-09-09T07:46:22Z</time></trkpt><trkpt lat="28.272161" lon="-16.620523"><ele>2894.67</ele><time>2012-09-09T07:46:23Z</time></trkpt><trkpt lat="28.272150" lon="-16.620537"><ele>2894.19</ele><time>2012-09-09T07:46:25Z</time></trkpt><trkpt lat="28.272093" lon="-16.620543"><ele>2892.74</ele><time>2012-09-09T07:46:36Z</time></trkpt><trkpt lat="28.272074" lon="-16.620506"><ele>2893.23</ele><time>2012-09-09T07:46:41Z</time></trkpt><trkpt lat="28.272036" lon="-16.620520"><ele>2890.82</ele><time>2012-09-09T07:46:47Z</time></trkpt><trkpt lat="28.271997" lon="-16.620546"><ele>2889.38</ele><time>2012-09-09T07:46:55Z</time></trkpt><trkpt lat="28.271988" lon="-16.620562"><ele>2887.46</ele><time>2012-09-09T07:46:58Z</time></trkpt><trkpt lat="28.271957" lon="-16.620586"><ele>2885.53</ele><time>2012-09-09T07:47:04Z</time></trkpt><trkpt lat="28.271952" lon="-16.620581"><ele>2884.57</ele><time>2012-09-09T07:47:07Z</time></trkpt><trkpt lat="28.271917" lon="-16.620567"><ele>2884.57</ele><time>2012-09-09T07:47:14Z</time></trkpt><trkpt lat="28.271904" lon="-16.620577"><ele>2883.61</ele><time>2012-09-09T07:47:16Z</time></trkpt><trkpt lat="28.271858" lon="-16.620609"><ele>2882.65</ele><time>2012-09-09T07:47:26Z</time></trkpt><trkpt lat="28.271791" lon="-16.620625"><ele>2879.29</ele><time>2012-09-09T07:47:37Z</time></trkpt><trkpt lat="28.271746" lon="-16.620657"><ele>2878.81</ele><time>2012-09-09T07:47:46Z</time></trkpt><trkpt lat="28.271656" lon="-16.620718"><ele>2875.92</ele><time>2012-09-09T07:47:59Z</time></trkpt><trkpt lat="28.271582" lon="-16.620726"><ele>2874.00</ele><time>2012-09-09T07:48:09Z</time></trkpt><trkpt lat="28.271496" lon="-16.620789"><ele>2872.08</ele><time>2012-09-09T07:48:21Z</time></trkpt><trkpt lat="28.271484" lon="-16.620785"><ele>2871.11</ele><time>2012-09-09T07:48:25Z</time></trkpt><trkpt lat="28.271465" lon="-16.620758"><ele>2870.15</ele><time>2012-09-09T07:48:31Z</time></trkpt><trkpt lat="28.271399" lon="-16.620724"><ele>2866.31</ele><time>2012-09-09T07:48:43Z</time></trkpt><trkpt lat="28.271358" lon="-16.620672"><ele>2863.42</ele><time>2012-09-09T07:48:53Z</time></trkpt><trkpt lat="28.271366" lon="-16.620657"><ele>2864.87</ele><time>2012-09-09T07:48:56Z</time></trkpt><trkpt lat="28.271307" lon="-16.620594"><ele>2862.46</ele><time>2012-09-09T07:49:09Z</time></trkpt><trkpt lat="28.271278" lon="-16.620590"><ele>2863.90</ele><time>2012-09-09T07:49:12Z</time></trkpt><trkpt lat="28.271263" lon="-16.620581"><ele>2861.50</ele><time>2012-09-09T07:49:14Z</time></trkpt><trkpt lat="28.271221" lon="-16.620522"><ele>2859.58</ele><time>2012-09-09T07:49:26Z</time></trkpt><trkpt lat="28.271215" lon="-16.620466"><ele>2857.66</ele><time>2012-09-09T07:49:37Z</time></trkpt><trkpt lat="28.271240" lon="-16.620399"><ele>2854.77</ele><time>2012-09-09T07:49:47Z</time></trkpt><trkpt lat="28.271215" lon="-16.620337"><ele>2854.77</ele><time>2012-09-09T07:49:56Z</time></trkpt><trkpt lat="28.271250" lon="-16.620266"><ele>2852.85</ele><time>2012-09-09T07:50:05Z</time></trkpt><trkpt lat="28.271233" lon="-16.620167"><ele>2851.41</ele><time>2012-09-09T07:50:17Z</time></trkpt><trkpt lat="28.271217" lon="-16.620129"><ele>2848.52</ele><time>2012-09-09T07:50:26Z</time></trkpt><trkpt lat="28.271214" lon="-16.620125"><ele>2848.52</ele><time>2012-09-09T07:50:27Z</time></trkpt><trkpt lat="28.271200" lon="-16.620035"><ele>2846.60</ele><time>2012-09-09T07:50:39Z</time></trkpt><trkpt lat="28.271229" lon="-16.619982"><ele>2845.16</ele><time>2012-09-09T07:50:47Z</time></trkpt><trkpt lat="28.271240" lon="-16.619896"><ele>2841.79</ele><time>2012-09-09T07:51:00Z</time></trkpt><trkpt lat="28.271240" lon="-16.619884"><ele>2842.28</ele><time>2012-09-09T07:51:01Z</time></trkpt><trkpt lat="28.271229" lon="-16.619860"><ele>2841.31</ele><time>2012-09-09T07:51:05Z</time></trkpt><trkpt lat="28.271267" lon="-16.619789"><ele>2839.39</ele><time>2012-09-09T07:51:15Z</time></trkpt><trkpt lat="28.271259" lon="-16.619705"><ele>2836.99</ele><time>2012-09-09T07:51:26Z</time></trkpt><trkpt lat="28.271261" lon="-16.619658"><ele>2836.03</ele><time>2012-09-09T07:51:38Z</time></trkpt><trkpt lat="28.271265" lon="-16.619646"><ele>2835.55</ele><time>2012-09-09T07:51:40Z</time></trkpt><trkpt lat="28.271294" lon="-16.619619"><ele>2835.06</ele><time>2012-09-09T07:51:44Z</time></trkpt><trkpt lat="28.271303" lon="-16.619591"><ele>2834.10</ele><time>2012-09-09T07:51:47Z</time></trkpt><trkpt lat="28.271338" lon="-16.619484"><ele>2830.74</ele><time>2012-09-09T07:52:00Z</time></trkpt><trkpt lat="28.271334" lon="-16.619389"><ele>2827.37</ele><time>2012-09-09T07:52:11Z</time></trkpt><trkpt lat="28.271374" lon="-16.619310"><ele>2825.93</ele><time>2012-09-09T07:52:23Z</time></trkpt><trkpt lat="28.271378" lon="-16.619289"><ele>2824.97</ele><time>2012-09-09T07:52:25Z</time></trkpt><trkpt lat="28.271406" lon="-16.619205"><ele>2824.01</ele><time>2012-09-09T07:52:36Z</time></trkpt><trkpt lat="28.271404" lon="-16.619194"><ele>2823.53</ele><time>2012-09-09T07:52:37Z</time></trkpt><trkpt lat="28.271387" lon="-16.619186"><ele>2823.05</ele><time>2012-09-09T07:52:40Z</time></trkpt><trkpt lat="28.271355" lon="-16.619196"><ele>2822.57</ele><time>2012-09-09T07:52:44Z</time></trkpt><trkpt lat="28.271263" lon="-16.619223"><ele>2819.20</ele><time>2012-09-09T07:52:56Z</time></trkpt><trkpt lat="28.271246" lon="-16.619213"><ele>2819.68</ele><time>2012-09-09T07:52:59Z</time></trkpt><trkpt lat="28.271257" lon="-16.619175"><ele>2817.28</ele><time>2012-09-09T07:53:04Z</time></trkpt><trkpt lat="28.271229" lon="-16.619099"><ele>2817.76</ele><time>2012-09-09T07:53:14Z</time></trkpt><trkpt lat="28.271198" lon="-16.619093"><ele>2817.28</ele><time>2012-09-09T07:53:17Z</time></trkpt><trkpt lat="28.271162" lon="-16.619127"><ele>2814.40</ele><time>2012-09-09T07:53:21Z</time></trkpt><trkpt lat="28.271086" lon="-16.619167"><ele>2809.59</ele><time>2012-09-09T07:53:30Z</time></trkpt><trkpt lat="28.271080" lon="-16.619164"><ele>2809.11</ele><time>2012-09-09T07:53:31Z</time></trkpt><trkpt lat="28.271103" lon="-16.619102"><ele>2808.15</ele><time>2012-09-09T07:53:42Z</time></trkpt><trkpt lat="28.271105" lon="-16.619051"><ele>2807.19</ele><time>2012-09-09T07:53:53Z</time></trkpt><trkpt lat="28.271103" lon="-16.619045"><ele>2807.19</ele><time>2012-09-09T07:53:55Z</time></trkpt><trkpt lat="28.271112" lon="-16.618944"><ele>2805.75</ele><time>2012-09-09T07:54:07Z</time></trkpt><trkpt lat="28.271164" lon="-16.618849"><ele>2803.34</ele><time>2012-09-09T07:54:20Z</time></trkpt><trkpt lat="28.271175" lon="-16.618792"><ele>2801.90</ele><time>2012-09-09T07:54:30Z</time></trkpt><trkpt lat="28.271139" lon="-16.618792"><ele>2800.46</ele><time>2012-09-09T07:54:39Z</time></trkpt><trkpt lat="28.271133" lon="-16.618773"><ele>2799.02</ele><time>2012-09-09T07:54:45Z</time></trkpt><trkpt lat="28.271133" lon="-16.618729"><ele>2798.05</ele><time>2012-09-09T07:54:50Z</time></trkpt><trkpt lat="28.271103" lon="-16.618721"><ele>2797.09</ele><time>2012-09-09T07:54:55Z</time></trkpt><trkpt lat="28.271078" lon="-16.618729"><ele>2796.13</ele><time>2012-09-09T07:54:58Z</time></trkpt><trkpt lat="28.271029" lon="-16.618746"><ele>2794.21</ele><time>2012-09-09T07:55:08Z</time></trkpt><trkpt lat="28.271019" lon="-16.618732"><ele>2793.25</ele><time>2012-09-09T07:55:15Z</time></trkpt><trkpt lat="28.270985" lon="-16.618683"><ele>2791.33</ele><time>2012-09-09T07:55:27Z</time></trkpt><trkpt lat="28.270950" lon="-16.618666"><ele>2789.88</ele><time>2012-09-09T07:55:38Z</time></trkpt><trkpt lat="28.270891" lon="-16.618645"><ele>2788.44</ele><time>2012-09-09T07:55:50Z</time></trkpt><trkpt lat="28.270878" lon="-16.618616"><ele>2786.52</ele><time>2012-09-09T07:55:54Z</time></trkpt><trkpt lat="28.270870" lon="-16.618574"><ele>2783.63</ele><time>2012-09-09T07:56:05Z</time></trkpt><trkpt lat="28.270872" lon="-16.618563"><ele>2782.67</ele><time>2012-09-09T07:56:07Z</time></trkpt><trkpt lat="28.270861" lon="-16.618498"><ele>2783.15</ele><time>2012-09-09T07:56:18Z</time></trkpt><trkpt lat="28.270855" lon="-16.618479"><ele>2781.23</ele><time>2012-09-09T07:56:21Z</time></trkpt><trkpt lat="28.270876" lon="-16.618412"><ele>2779.31</ele><time>2012-09-09T07:56:34Z</time></trkpt><trkpt lat="28.270868" lon="-16.618364"><ele>2777.39</ele><time>2012-09-09T07:56:44Z</time></trkpt><trkpt lat="28.270895" lon="-16.618269"><ele>2775.46</ele><time>2012-09-09T07:56:55Z</time></trkpt><trkpt lat="28.270912" lon="-16.618214"><ele>2774.02</ele><time>2012-09-09T07:57:13Z</time></trkpt><trkpt lat="28.270914" lon="-16.618177"><ele>2773.06</ele><time>2012-09-09T07:57:26Z</time></trkpt><trkpt lat="28.270914" lon="-16.618120"><ele>2772.10</ele><time>2012-09-09T07:57:33Z</time></trkpt><trkpt lat="28.270906" lon="-16.618082"><ele>2769.70</ele><time>2012-09-09T07:57:39Z</time></trkpt><trkpt lat="28.270889" lon="-16.618050"><ele>2769.70</ele><time>2012-09-09T07:57:45Z</time></trkpt><trkpt lat="28.270864" lon="-16.618040"><ele>2769.21</ele><time>2012-09-09T07:57:48Z</time></trkpt><trkpt lat="28.270809" lon="-16.617994"><ele>2767.29</ele><time>2012-09-09T07:58:00Z</time></trkpt><trkpt lat="28.270796" lon="-16.617968"><ele>2765.85</ele><time>2012-09-09T07:58:08Z</time></trkpt><trkpt lat="28.270798" lon="-16.617886"><ele>2763.93</ele><time>2012-09-09T07:58:20Z</time></trkpt><trkpt lat="28.270813" lon="-16.617805"><ele>2762.97</ele><time>2012-09-09T07:58:28Z</time></trkpt><trkpt lat="28.270765" lon="-16.617781"><ele>2761.52</ele><time>2012-09-09T07:58:37Z</time></trkpt><trkpt lat="28.270737" lon="-16.617777"><ele>2760.56</ele><time>2012-09-09T07:58:39Z</time></trkpt><trkpt lat="28.270710" lon="-16.617748"><ele>2759.60</ele><time>2012-09-09T07:58:45Z</time></trkpt><trkpt lat="28.270655" lon="-16.617643"><ele>2757.68</ele><time>2012-09-09T07:58:59Z</time></trkpt><trkpt lat="28.270636" lon="-16.617624"><ele>2758.64</ele><time>2012-09-09T07:59:12Z</time></trkpt><trkpt lat="28.270615" lon="-16.617617"><ele>2755.76</ele><time>2012-09-09T07:59:24Z</time></trkpt><trkpt lat="28.270615" lon="-16.617617"><ele>2759.60</ele><time>2012-09-09T07:59:25Z</time></trkpt><trkpt lat="28.270615" lon="-16.617617"><ele>2756.72</ele><time>2012-09-09T07:59:27Z</time></trkpt><trkpt lat="28.270615" lon="-16.617617"><ele>2756.24</ele><time>2012-09-09T07:59:28Z</time></trkpt><trkpt lat="28.270615" lon="-16.617617"><ele>2756.24</ele><time>2012-09-09T07:59:51Z</time></trkpt><trkpt lat="28.270609" lon="-16.617615"><ele>2758.64</ele><time>2012-09-09T08:00:23Z</time></trkpt><trkpt lat="28.270607" lon="-16.617611"><ele>2756.72</ele><time>2012-09-09T08:00:59Z</time></trkpt><trkpt lat="28.270609" lon="-16.617605"><ele>2753.35</ele><time>2012-09-09T08:01:31Z</time></trkpt><trkpt lat="28.270609" lon="-16.617605"><ele>2755.28</ele><time>2012-09-09T08:01:42Z</time></trkpt><trkpt lat="28.270611" lon="-16.617599"><ele>2753.83</ele><time>2012-09-09T08:02:09Z</time></trkpt><trkpt lat="28.270611" lon="-16.617599"><ele>2756.24</ele><time>2012-09-09T08:02:39Z</time></trkpt><trkpt lat="28.270607" lon="-16.617594"><ele>2756.72</ele><time>2012-09-09T08:03:11Z</time></trkpt><trkpt lat="28.270603" lon="-16.617599"><ele>2755.76</ele><time>2012-09-09T08:03:35Z</time></trkpt><trkpt lat="28.270601" lon="-16.617598"><ele>2755.28</ele><time>2012-09-09T08:04:07Z</time></trkpt><trkpt lat="28.270601" lon="-16.617598"><ele>2754.31</ele><time>2012-09-09T08:04:38Z</time></trkpt><trkpt lat="28.270601" lon="-16.617598"><ele>2753.83</ele><time>2012-09-09T08:05:13Z</time></trkpt><trkpt lat="28.270599" lon="-16.617594"><ele>2753.35</ele><time>2012-09-09T08:05:52Z</time></trkpt><trkpt lat="28.270599" lon="-16.617594"><ele>2753.83</ele><time>2012-09-09T08:06:31Z</time></trkpt><trkpt lat="28.270601" lon="-16.617594"><ele>2755.28</ele><time>2012-09-09T08:06:51Z</time></trkpt><trkpt lat="28.270601" lon="-16.617594"><ele>2752.39</ele><time>2012-09-09T08:07:03Z</time></trkpt><trkpt lat="28.270601" lon="-16.617594"><ele>2751.91</ele><time>2012-09-09T08:07:13Z</time></trkpt><trkpt lat="28.270605" lon="-16.617592"><ele>2751.43</ele><time>2012-09-09T08:07:57Z</time></trkpt><trkpt lat="28.270609" lon="-16.617586"><ele>2752.87</ele><time>2012-09-09T08:08:04Z</time></trkpt><trkpt lat="28.270609" lon="-16.617584"><ele>2753.35</ele><time>2012-09-09T08:08:51Z</time></trkpt><trkpt lat="28.270611" lon="-16.617582"><ele>2752.87</ele><time>2012-09-09T08:09:29Z</time></trkpt><trkpt lat="28.270611" lon="-16.617580"><ele>2751.91</ele><time>2012-09-09T08:10:09Z</time></trkpt><trkpt lat="28.270611" lon="-16.617580"><ele>2753.35</ele><time>2012-09-09T08:10:30Z</time></trkpt><trkpt lat="28.270613" lon="-16.617582"><ele>2753.83</ele><time>2012-09-09T08:10:42Z</time></trkpt><trkpt lat="28.270613" lon="-16.617582"><ele>2753.83</ele><time>2012-09-09T08:11:01Z</time></trkpt><trkpt lat="28.270624" lon="-16.617577"><ele>2754.31</ele><time>2012-09-09T08:11:21Z</time></trkpt><trkpt lat="28.270641" lon="-16.617544"><ele>2754.80</ele><time>2012-09-09T08:11:26Z</time></trkpt><trkpt lat="28.270643" lon="-16.617523"><ele>2754.31</ele><time>2012-09-09T08:11:28Z</time></trkpt><trkpt lat="28.270662" lon="-16.617451"><ele>2752.87</ele><time>2012-09-09T08:11:36Z</time></trkpt><trkpt lat="28.270735" lon="-16.617332"><ele>2751.43</ele><time>2012-09-09T08:11:51Z</time></trkpt><trkpt lat="28.270746" lon="-16.617306"><ele>2751.43</ele><time>2012-09-09T08:11:54Z</time></trkpt><trkpt lat="28.270775" lon="-16.617290"><ele>2749.51</ele><time>2012-09-09T08:11:57Z</time></trkpt><trkpt lat="28.270781" lon="-16.617283"><ele>2749.51</ele><time>2012-09-09T08:11:58Z</time></trkpt><trkpt lat="28.270800" lon="-16.617260"><ele>2749.51</ele><time>2012-09-09T08:12:01Z</time></trkpt><trkpt lat="28.270859" lon="-16.617193"><ele>2749.99</ele><time>2012-09-09T08:12:10Z</time></trkpt><trkpt lat="28.270874" lon="-16.617163"><ele>2748.55</ele><time>2012-09-09T08:12:13Z</time></trkpt><trkpt lat="28.270887" lon="-16.617132"><ele>2749.03</ele><time>2012-09-09T08:12:16Z</time></trkpt><trkpt lat="28.270895" lon="-16.617081"><ele>2745.66</ele><time>2012-09-09T08:12:20Z</time></trkpt><trkpt lat="28.270897" lon="-16.617069"><ele>2746.62</ele><time>2012-09-09T08:12:21Z</time></trkpt><trkpt lat="28.270882" lon="-16.616949"><ele>2748.07</ele><time>2012-09-09T08:12:32Z</time></trkpt><trkpt lat="28.270870" lon="-16.616899"><ele>2748.07</ele><time>2012-09-09T08:12:37Z</time></trkpt><trkpt lat="28.270870" lon="-16.616821"><ele>2747.10</ele><time>2012-09-09T08:12:44Z</time></trkpt><trkpt lat="28.270893" lon="-16.616781"><ele>2744.70</ele><time>2012-09-09T08:12:48Z</time></trkpt><trkpt lat="28.270916" lon="-16.616737"><ele>2745.18</ele><time>2012-09-09T08:12:52Z</time></trkpt><trkpt lat="28.270958" lon="-16.616690"><ele>2749.51</ele><time>2012-09-09T08:12:57Z</time></trkpt><trkpt lat="28.270971" lon="-16.616669"><ele>2745.66</ele><time>2012-09-09T08:12:59Z</time></trkpt><trkpt lat="28.270990" lon="-16.616634"><ele>2745.66</ele><time>2012-09-09T08:13:02Z</time></trkpt><trkpt lat="28.271095" lon="-16.616493"><ele>2744.70</ele><time>2012-09-09T08:13:16Z</time></trkpt><trkpt lat="28.271149" lon="-16.616358"><ele>2744.70</ele><time>2012-09-09T08:13:27Z</time></trkpt><trkpt lat="28.271162" lon="-16.616144"><ele>2742.78</ele><time>2012-09-09T08:13:42Z</time></trkpt><trkpt lat="28.271177" lon="-16.615963"><ele>2741.82</ele><time>2012-09-09T08:13:56Z</time></trkpt><trkpt lat="28.271175" lon="-16.615923"><ele>2741.34</ele><time>2012-09-09T08:13:59Z</time></trkpt><trkpt lat="28.271200" lon="-16.615725"><ele>2739.41</ele><time>2012-09-09T08:14:14Z</time></trkpt><trkpt lat="28.271202" lon="-16.615690"><ele>2739.89</ele><time>2012-09-09T08:14:17Z</time></trkpt><trkpt lat="28.271229" lon="-16.615614"><ele>2735.09</ele><time>2012-09-09T08:14:23Z</time></trkpt><trkpt lat="28.271242" lon="-16.615557"><ele>2734.13</ele><time>2012-09-09T08:14:28Z</time></trkpt><trkpt lat="28.271248" lon="-16.615532"><ele>2733.17</ele><time>2012-09-09T08:14:30Z</time></trkpt><trkpt lat="28.271263" lon="-16.615496"><ele>2736.05</ele><time>2012-09-09T08:14:33Z</time></trkpt><trkpt lat="28.271282" lon="-16.615425"><ele>2735.09</ele><time>2012-09-09T08:14:39Z</time></trkpt><trkpt lat="28.271286" lon="-16.615412"><ele>2734.13</ele><time>2012-09-09T08:14:40Z</time></trkpt><trkpt lat="28.271328" lon="-16.615229"><ele>2729.32</ele><time>2012-09-09T08:14:53Z</time></trkpt><trkpt lat="28.271332" lon="-16.615217"><ele>2730.28</ele><time>2012-09-09T08:14:54Z</time></trkpt><trkpt lat="28.271345" lon="-16.615194"><ele>2734.13</ele><time>2012-09-09T08:14:56Z</time></trkpt><trkpt lat="28.271358" lon="-16.615149"><ele>2736.53</ele><time>2012-09-09T08:15:00Z</time></trkpt><trkpt lat="28.271400" lon="-16.614973"><ele>2733.65</ele><time>2012-09-09T08:15:13Z</time></trkpt><trkpt lat="28.271435" lon="-16.614841"><ele>2731.72</ele><time>2012-09-09T08:15:22Z</time></trkpt><trkpt lat="28.271458" lon="-16.614658"><ele>2731.72</ele><time>2012-09-09T08:15:36Z</time></trkpt><trkpt lat="28.271477" lon="-16.614590"><ele>2731.72</ele><time>2012-09-09T08:15:42Z</time></trkpt><trkpt lat="28.271477" lon="-16.614557"><ele>2731.72</ele><time>2012-09-09T08:15:45Z</time></trkpt><trkpt lat="28.271496" lon="-16.614511"><ele>2731.72</ele><time>2012-09-09T08:15:49Z</time></trkpt><trkpt lat="28.271505" lon="-16.614477"><ele>2729.32</ele><time>2012-09-09T08:15:52Z</time></trkpt><trkpt lat="28.271503" lon="-16.614445"><ele>2728.36</ele><time>2012-09-09T08:15:55Z</time></trkpt><trkpt lat="28.271545" lon="-16.614326"><ele>2727.88</ele><time>2012-09-09T08:16:05Z</time></trkpt><trkpt lat="28.271563" lon="-16.614279"><ele>2726.92</ele><time>2012-09-09T08:16:09Z</time></trkpt><trkpt lat="28.271582" lon="-16.614191"><ele>2723.07</ele><time>2012-09-09T08:16:16Z</time></trkpt><trkpt lat="28.271599" lon="-16.614140"><ele>2726.44</ele><time>2012-09-09T08:16:20Z</time></trkpt><trkpt lat="28.271601" lon="-16.614124"><ele>2726.44</ele><time>2012-09-09T08:16:21Z</time></trkpt><trkpt lat="28.271593" lon="-16.613993"><ele>2725.48</ele><time>2012-09-09T08:16:31Z</time></trkpt><trkpt lat="28.271584" lon="-16.613943"><ele>2726.44</ele><time>2012-09-09T08:16:35Z</time></trkpt><trkpt lat="28.271570" lon="-16.613750"><ele>2725.48</ele><time>2012-09-09T08:16:50Z</time></trkpt><trkpt lat="28.271568" lon="-16.613693"><ele>2724.99</ele><time>2012-09-09T08:16:54Z</time></trkpt><trkpt lat="28.271545" lon="-16.613613"><ele>2724.03</ele><time>2012-09-09T08:17:00Z</time></trkpt><trkpt lat="28.271490" lon="-16.613430"><ele>2722.11</ele><time>2012-09-09T08:17:15Z</time></trkpt><trkpt lat="28.271444" lon="-16.613380"><ele>2720.67</ele><time>2012-09-09T08:17:20Z</time></trkpt><trkpt lat="28.271414" lon="-16.613312"><ele>2719.23</ele><time>2012-09-09T08:17:26Z</time></trkpt><trkpt lat="28.271315" lon="-16.613171"><ele>2716.34</ele><time>2012-09-09T08:17:39Z</time></trkpt><trkpt lat="28.271257" lon="-16.613077"><ele>2715.38</ele><time>2012-09-09T08:17:47Z</time></trkpt><trkpt lat="28.271152" lon="-16.612997"><ele>2715.86</ele><time>2012-09-09T08:17:58Z</time></trkpt><trkpt lat="28.271112" lon="-16.612984"><ele>2714.90</ele><time>2012-09-09T08:18:03Z</time></trkpt><trkpt lat="28.271029" lon="-16.612932"><ele>2712.50</ele><time>2012-09-09T08:18:13Z</time></trkpt><trkpt lat="28.271002" lon="-16.612841"><ele>2711.06</ele><time>2012-09-09T08:18:20Z</time></trkpt><trkpt lat="28.271009" lon="-16.612818"><ele>2711.06</ele><time>2012-09-09T08:18:22Z</time></trkpt><trkpt lat="28.271021" lon="-16.612761"><ele>2711.54</ele><time>2012-09-09T08:18:26Z</time></trkpt><trkpt lat="28.271152" lon="-16.612597"><ele>2709.61</ele><time>2012-09-09T08:18:42Z</time></trkpt><trkpt lat="28.271309" lon="-16.612474"><ele>2707.21</ele><time>2012-09-09T08:18:57Z</time></trkpt><trkpt lat="28.271429" lon="-16.612452"><ele>2706.25</ele><time>2012-09-09T08:19:07Z</time></trkpt><trkpt lat="28.271479" lon="-16.612467"><ele>2706.73</ele><time>2012-09-09T08:19:15Z</time></trkpt><trkpt lat="28.271519" lon="-16.612484"><ele>2706.25</ele><time>2012-09-09T08:19:19Z</time></trkpt><trkpt lat="28.271587" lon="-16.612511"><ele>2704.81</ele><time>2012-09-09T08:19:35Z</time></trkpt><trkpt lat="28.271587" lon="-16.612511"><ele>2704.81</ele><time>2012-09-09T08:20:01Z</time></trkpt><trkpt lat="28.271587" lon="-16.612511"><ele>2703.85</ele><time>2012-09-09T08:20:20Z</time></trkpt><trkpt lat="28.271631" lon="-16.612532"><ele>2703.36</ele><time>2012-09-09T08:20:24Z</time></trkpt><trkpt lat="28.271761" lon="-16.612597"><ele>2700.96</ele><time>2012-09-09T08:20:34Z</time></trkpt><trkpt lat="28.271919" lon="-16.612751"><ele>2700.48</ele><time>2012-09-09T08:20:50Z</time></trkpt><trkpt lat="28.272018" lon="-16.612951"><ele>2698.56</ele><time>2012-09-09T08:21:05Z</time></trkpt><trkpt lat="28.272058" lon="-16.613100"><ele>2695.19</ele><time>2012-09-09T08:21:16Z</time></trkpt><trkpt lat="28.272118" lon="-16.613279"><ele>2694.71</ele><time>2012-09-09T08:21:29Z</time></trkpt><trkpt lat="28.272160" lon="-16.613461"><ele>2692.79</ele><time>2012-09-09T08:21:43Z</time></trkpt><trkpt lat="28.272202" lon="-16.613613"><ele>2691.35</ele><time>2012-09-09T08:21:54Z</time></trkpt><trkpt lat="28.272293" lon="-16.613810"><ele>2689.91</ele><time>2012-09-09T08:22:10Z</time></trkpt><trkpt lat="28.272371" lon="-16.613924"><ele>2687.98</ele><time>2012-09-09T08:22:20Z</time></trkpt><trkpt lat="28.272427" lon="-16.613983"><ele>2687.98</ele><time>2012-09-09T08:22:27Z</time></trkpt><trkpt lat="28.272570" lon="-16.614132"><ele>2686.06</ele><time>2012-09-09T08:22:44Z</time></trkpt><trkpt lat="28.272734" lon="-16.614223"><ele>2685.10</ele><time>2012-09-09T08:22:58Z</time></trkpt><trkpt lat="28.272745" lon="-16.614229"><ele>2684.62</ele><time>2012-09-09T08:22:59Z</time></trkpt><trkpt lat="28.272919" lon="-16.614332"><ele>2682.22</ele><time>2012-09-09T08:23:15Z</time></trkpt><trkpt lat="28.273117" lon="-16.614424"><ele>2679.81</ele><time>2012-09-09T08:23:31Z</time></trkpt><trkpt lat="28.273191" lon="-16.614468"><ele>2679.33</ele><time>2012-09-09T08:23:38Z</time></trkpt><trkpt lat="28.273378" lon="-16.614458"><ele>2676.93</ele><time>2012-09-09T08:23:55Z</time></trkpt><trkpt lat="28.273428" lon="-16.614304"><ele>2673.56</ele><time>2012-09-09T08:24:08Z</time></trkpt><trkpt lat="28.273424" lon="-16.614262"><ele>2673.08</ele><time>2012-09-09T08:24:11Z</time></trkpt><trkpt lat="28.273336" lon="-16.614140"><ele>2671.64</ele><time>2012-09-09T08:24:23Z</time></trkpt><trkpt lat="28.273273" lon="-16.614082"><ele>2670.20</ele><time>2012-09-09T08:24:31Z</time></trkpt><trkpt lat="28.273230" lon="-16.614023"><ele>2669.72</ele><time>2012-09-09T08:24:37Z</time></trkpt><trkpt lat="28.273113" lon="-16.613876"><ele>2666.83</ele><time>2012-09-09T08:24:51Z</time></trkpt><trkpt lat="28.273102" lon="-16.613859"><ele>2666.35</ele><time>2012-09-09T08:24:53Z</time></trkpt><trkpt lat="28.273090" lon="-16.613834"><ele>2665.87</ele><time>2012-09-09T08:24:55Z</time></trkpt><trkpt lat="28.273012" lon="-16.613762"><ele>2664.43</ele><time>2012-09-09T08:25:03Z</time></trkpt><trkpt lat="28.272970" lon="-16.613712"><ele>2664.43</ele><time>2012-09-09T08:25:09Z</time></trkpt><trkpt lat="28.272930" lon="-16.613678"><ele>2663.95</ele><time>2012-09-09T08:25:13Z</time></trkpt><trkpt lat="28.272871" lon="-16.613600"><ele>2663.47</ele><time>2012-09-09T08:25:21Z</time></trkpt><trkpt lat="28.272844" lon="-16.613567"><ele>2662.51</ele><time>2012-09-09T08:25:24Z</time></trkpt><trkpt lat="28.272789" lon="-16.613420"><ele>2662.03</ele><time>2012-09-09T08:25:35Z</time></trkpt><trkpt lat="28.272758" lon="-16.613241"><ele>2660.11</ele><time>2012-09-09T08:25:48Z</time></trkpt><trkpt lat="28.272751" lon="-16.613148"><ele>2659.62</ele><time>2012-09-09T08:25:55Z</time></trkpt><trkpt lat="28.272762" lon="-16.613079"><ele>2659.62</ele><time>2012-09-09T08:26:00Z</time></trkpt><trkpt lat="28.272789" lon="-16.613003"><ele>2659.14</ele><time>2012-09-09T08:26:05Z</time></trkpt><trkpt lat="28.272808" lon="-16.612989"><ele>2658.66</ele><time>2012-09-09T08:26:20Z</time></trkpt><trkpt lat="28.272808" lon="-16.612989"><ele>2658.66</ele><time>2012-09-09T08:26:44Z</time></trkpt><trkpt lat="28.272802" lon="-16.612984"><ele>2659.14</ele><time>2012-09-09T08:26:56Z</time></trkpt><trkpt lat="28.272810" lon="-16.612984"><ele>2658.18</ele><time>2012-09-09T08:27:07Z</time></trkpt><trkpt lat="28.272825" lon="-16.612957"><ele>2657.22</ele><time>2012-09-09T08:27:16Z</time></trkpt><trkpt lat="28.272835" lon="-16.612930"><ele>2657.22</ele><time>2012-09-09T08:27:24Z</time></trkpt><trkpt lat="28.272844" lon="-16.612881"><ele>2657.22</ele><time>2012-09-09T08:27:33Z</time></trkpt><trkpt lat="28.272867" lon="-16.612848"><ele>2656.26</ele><time>2012-09-09T08:27:52Z</time></trkpt><trkpt lat="28.272867" lon="-16.612848"><ele>2657.22</ele><time>2012-09-09T08:28:14Z</time></trkpt><trkpt lat="28.272882" lon="-16.612829"><ele>2656.74</ele><time>2012-09-09T08:28:21Z</time></trkpt><trkpt lat="28.272953" lon="-16.612749"><ele>2655.78</ele><time>2012-09-09T08:28:31Z</time></trkpt><trkpt lat="28.272993" lon="-16.612726"><ele>2655.30</ele><time>2012-09-09T08:28:35Z</time></trkpt><trkpt lat="28.273170" lon="-16.612738"><ele>2653.86</ele><time>2012-09-09T08:28:50Z</time></trkpt><trkpt lat="28.273365" lon="-16.612772"><ele>2650.97</ele><time>2012-09-09T08:29:06Z</time></trkpt><trkpt lat="28.273539" lon="-16.612827"><ele>2649.53</ele><time>2012-09-09T08:29:21Z</time></trkpt><trkpt lat="28.273743" lon="-16.612881"><ele>2647.13</ele><time>2012-09-09T08:29:37Z</time></trkpt><trkpt lat="28.273867" lon="-16.612810"><ele>2645.21</ele><time>2012-09-09T08:29:49Z</time></trkpt><trkpt lat="28.273876" lon="-16.612787"><ele>2644.72</ele><time>2012-09-09T08:29:51Z</time></trkpt><trkpt lat="28.273878" lon="-16.612762"><ele>2644.72</ele><time>2012-09-09T08:29:53Z</time></trkpt><trkpt lat="28.273886" lon="-16.612700"><ele>2644.24</ele><time>2012-09-09T08:29:58Z</time></trkpt><trkpt lat="28.273844" lon="-16.612505"><ele>2641.84</ele><time>2012-09-09T08:30:12Z</time></trkpt><trkpt lat="28.273817" lon="-16.612286"><ele>2639.92</ele><time>2012-09-09T08:30:27Z</time></trkpt><trkpt lat="28.273783" lon="-16.612104"><ele>2637.03</ele><time>2012-09-09T08:30:40Z</time></trkpt><trkpt lat="28.273745" lon="-16.611925"><ele>2635.11</ele><time>2012-09-09T08:30:52Z</time></trkpt><trkpt lat="28.273737" lon="-16.611763"><ele>2633.67</ele><time>2012-09-09T08:31:04Z</time></trkpt><trkpt lat="28.273764" lon="-16.611588"><ele>2631.75</ele><time>2012-09-09T08:31:16Z</time></trkpt><trkpt lat="28.273781" lon="-16.611380"><ele>2631.75</ele><time>2012-09-09T08:31:30Z</time></trkpt><trkpt lat="28.273800" lon="-16.611317"><ele>2630.79</ele><time>2012-09-09T08:31:34Z</time></trkpt><trkpt lat="28.273849" lon="-16.611240"><ele>2629.34</ele><time>2012-09-09T08:31:41Z</time></trkpt><trkpt lat="28.273960" lon="-16.611216"><ele>2628.38</ele><time>2012-09-09T08:31:50Z</time></trkpt><trkpt lat="28.274122" lon="-16.611334"><ele>2625.02</ele><time>2012-09-09T08:32:05Z</time></trkpt><trkpt lat="28.274237" lon="-16.611517"><ele>2623.58</ele><time>2012-09-09T08:32:21Z</time></trkpt><trkpt lat="28.274376" lon="-16.611687"><ele>2622.61</ele><time>2012-09-09T08:32:37Z</time></trkpt><trkpt lat="28.274403" lon="-16.611732"><ele>2622.13</ele><time>2012-09-09T08:32:41Z</time></trkpt><trkpt lat="28.274439" lon="-16.611784"><ele>2621.65</ele><time>2012-09-09T08:32:46Z</time></trkpt><trkpt lat="28.274569" lon="-16.611973"><ele>2619.73</ele><time>2012-09-09T08:33:03Z</time></trkpt><trkpt lat="28.274714" lon="-16.612150"><ele>2619.25</ele><time>2012-09-09T08:33:19Z</time></trkpt><trkpt lat="28.274818" lon="-16.612322"><ele>2616.85</ele><time>2012-09-09T08:33:33Z</time></trkpt><trkpt lat="28.274961" lon="-16.612381"><ele>2614.92</ele><time>2012-09-09T08:33:47Z</time></trkpt><trkpt lat="28.275047" lon="-16.612238"><ele>2613.00</ele><time>2012-09-09T08:33:59Z</time></trkpt><trkpt lat="28.275099" lon="-16.612036"><ele>2610.60</ele><time>2012-09-09T08:34:15Z</time></trkpt><trkpt lat="28.275087" lon="-16.611860"><ele>2608.67</ele><time>2012-09-09T08:34:28Z</time></trkpt><trkpt lat="28.275080" lon="-16.611769"><ele>2607.71</ele><time>2012-09-09T08:34:36Z</time></trkpt><trkpt lat="28.275074" lon="-16.611666"><ele>2607.23</ele><time>2012-09-09T08:34:44Z</time></trkpt><trkpt lat="28.275139" lon="-16.611546"><ele>2604.83</ele><time>2012-09-09T08:34:54Z</time></trkpt><trkpt lat="28.275181" lon="-16.611517"><ele>2604.83</ele><time>2012-09-09T08:34:58Z</time></trkpt><trkpt lat="28.275293" lon="-16.611485"><ele>2603.39</ele><time>2012-09-09T08:35:07Z</time></trkpt><trkpt lat="28.275444" lon="-16.611628"><ele>2600.50</ele><time>2012-09-09T08:35:23Z</time></trkpt><trkpt lat="28.275600" lon="-16.611816"><ele>2598.58</ele><time>2012-09-09T08:35:41Z</time></trkpt><trkpt lat="28.275770" lon="-16.611973"><ele>2597.14</ele><time>2012-09-09T08:35:58Z</time></trkpt><trkpt lat="28.275888" lon="-16.612154"><ele>2596.18</ele><time>2012-09-09T08:36:13Z</time></trkpt><trkpt lat="28.275915" lon="-16.612204"><ele>2596.18</ele><time>2012-09-09T08:36:17Z</time></trkpt><trkpt lat="28.275917" lon="-16.612335"><ele>2594.74</ele><time>2012-09-09T08:36:26Z</time></trkpt><trkpt lat="28.275921" lon="-16.612402"><ele>2593.29</ele><time>2012-09-09T08:36:31Z</time></trkpt><trkpt lat="28.275970" lon="-16.612604"><ele>2593.29</ele><time>2012-09-09T08:36:45Z</time></trkpt><trkpt lat="28.276028" lon="-16.612680"><ele>2593.77</ele><time>2012-09-09T08:36:52Z</time></trkpt><trkpt lat="28.276051" lon="-16.612720"><ele>2589.93</ele><time>2012-09-09T08:36:55Z</time></trkpt><trkpt lat="28.276142" lon="-16.612890"><ele>2587.53</ele><time>2012-09-09T08:37:09Z</time></trkpt><trkpt lat="28.276188" lon="-16.612982"><ele>2586.56</ele><time>2012-09-09T08:37:16Z</time></trkpt><trkpt lat="28.276234" lon="-16.613035"><ele>2586.56</ele><time>2012-09-09T08:37:21Z</time></trkpt><trkpt lat="28.276281" lon="-16.613129"><ele>2585.12</ele><time>2012-09-09T08:37:29Z</time></trkpt><trkpt lat="28.276318" lon="-16.613146"><ele>2584.16</ele><time>2012-09-09T08:37:32Z</time></trkpt><trkpt lat="28.276463" lon="-16.613106"><ele>2583.20</ele><time>2012-09-09T08:37:44Z</time></trkpt><trkpt lat="28.276466" lon="-16.613049"><ele>2582.24</ele><time>2012-09-09T08:37:49Z</time></trkpt><trkpt lat="28.276478" lon="-16.613008"><ele>2581.28</ele><time>2012-09-09T08:37:54Z</time></trkpt><trkpt lat="28.276464" lon="-16.612955"><ele>2581.28</ele><time>2012-09-09T08:37:58Z</time></trkpt><trkpt lat="28.276461" lon="-16.612911"><ele>2581.28</ele><time>2012-09-09T08:38:01Z</time></trkpt><trkpt lat="28.276451" lon="-16.612892"><ele>2581.28</ele><time>2012-09-09T08:38:03Z</time></trkpt><trkpt lat="28.276424" lon="-16.612720"><ele>2579.35</ele><time>2012-09-09T08:38:15Z</time></trkpt><trkpt lat="28.276421" lon="-16.612698"><ele>2576.47</ele><time>2012-09-09T08:38:17Z</time></trkpt><trkpt lat="28.276419" lon="-16.612686"><ele>2576.95</ele><time>2012-09-09T08:38:18Z</time></trkpt><trkpt lat="28.276411" lon="-16.612597"><ele>2576.47</ele><time>2012-09-09T08:38:24Z</time></trkpt><trkpt lat="28.276421" lon="-16.612526"><ele>2575.99</ele><time>2012-09-09T08:38:32Z</time></trkpt><trkpt lat="28.276417" lon="-16.612499"><ele>2575.51</ele><time>2012-09-09T08:38:35Z</time></trkpt><trkpt lat="28.276400" lon="-16.612297"><ele>2576.47</ele><time>2012-09-09T08:38:47Z</time></trkpt><trkpt lat="28.276396" lon="-16.612280"><ele>2575.03</ele><time>2012-09-09T08:38:49Z</time></trkpt><trkpt lat="28.276417" lon="-16.612246"><ele>2575.03</ele><time>2012-09-09T08:38:52Z</time></trkpt><trkpt lat="28.276426" lon="-16.612194"><ele>2573.59</ele><time>2012-09-09T08:38:55Z</time></trkpt><trkpt lat="28.276476" lon="-16.612007"><ele>2571.66</ele><time>2012-09-09T08:39:08Z</time></trkpt><trkpt lat="28.276525" lon="-16.611839"><ele>2571.18</ele><time>2012-09-09T08:39:21Z</time></trkpt><trkpt lat="28.276590" lon="-16.611713"><ele>2571.18</ele><time>2012-09-09T08:39:33Z</time></trkpt><trkpt lat="28.276640" lon="-16.611616"><ele>2571.18</ele><time>2012-09-09T08:39:41Z</time></trkpt><trkpt lat="28.276670" lon="-16.611563"><ele>2569.74</ele><time>2012-09-09T08:39:45Z</time></trkpt><trkpt lat="28.276691" lon="-16.611523"><ele>2569.74</ele><time>2012-09-09T08:39:48Z</time></trkpt><trkpt lat="28.276691" lon="-16.611320"><ele>2567.34</ele><time>2012-09-09T08:40:00Z</time></trkpt><trkpt lat="28.276695" lon="-16.611242"><ele>2566.86</ele><time>2012-09-09T08:40:05Z</time></trkpt><trkpt lat="28.276669" lon="-16.611193"><ele>2566.38</ele><time>2012-09-09T08:40:09Z</time></trkpt><trkpt lat="28.276651" lon="-16.611002"><ele>2564.93</ele><time>2012-09-09T08:40:23Z</time></trkpt><trkpt lat="28.276630" lon="-16.610853"><ele>2563.01</ele><time>2012-09-09T08:40:34Z</time></trkpt><trkpt lat="28.276567" lon="-16.610678"><ele>2561.09</ele><time>2012-09-09T08:40:48Z</time></trkpt><trkpt lat="28.276543" lon="-16.610584"><ele>2559.65</ele><time>2012-09-09T08:40:56Z</time></trkpt><trkpt lat="28.276485" lon="-16.610523"><ele>2559.17</ele><time>2012-09-09T08:41:03Z</time></trkpt><trkpt lat="28.276354" lon="-16.610411"><ele>2557.24</ele><time>2012-09-09T08:41:16Z</time></trkpt><trkpt lat="28.276224" lon="-16.610315"><ele>2556.28</ele><time>2012-09-09T08:41:28Z</time></trkpt><trkpt lat="28.276079" lon="-16.610229"><ele>2554.84</ele><time>2012-09-09T08:41:40Z</time></trkpt><trkpt lat="28.276011" lon="-16.610174"><ele>2553.88</ele><time>2012-09-09T08:41:46Z</time></trkpt><trkpt lat="28.275974" lon="-16.610136"><ele>2552.92</ele><time>2012-09-09T08:41:50Z</time></trkpt><trkpt lat="28.275923" lon="-16.610115"><ele>2552.92</ele><time>2012-09-09T08:41:54Z</time></trkpt><trkpt lat="28.275900" lon="-16.610096"><ele>2552.44</ele><time>2012-09-09T08:41:56Z</time></trkpt><trkpt lat="28.275850" lon="-16.609978"><ele>2551.96</ele><time>2012-09-09T08:42:05Z</time></trkpt><trkpt lat="28.275833" lon="-16.609886"><ele>2551.48</ele><time>2012-09-09T08:42:11Z</time></trkpt><trkpt lat="28.275789" lon="-16.609690"><ele>2550.03</ele><time>2012-09-09T08:42:25Z</time></trkpt><trkpt lat="28.275726" lon="-16.609512"><ele>2549.07</ele><time>2012-09-09T08:42:38Z</time></trkpt><trkpt lat="28.275688" lon="-16.609406"><ele>2547.63</ele><time>2012-09-09T08:42:46Z</time></trkpt><trkpt lat="28.275545" lon="-16.609215"><ele>2544.75</ele><time>2012-09-09T08:43:01Z</time></trkpt><trkpt lat="28.275480" lon="-16.609150"><ele>2544.27</ele><time>2012-09-09T08:43:08Z</time></trkpt><trkpt lat="28.275450" lon="-16.609098"><ele>2543.31</ele><time>2012-09-09T08:43:12Z</time></trkpt><trkpt lat="28.275316" lon="-16.608973"><ele>2542.34</ele><time>2012-09-09T08:43:25Z</time></trkpt><trkpt lat="28.275192" lon="-16.608870"><ele>2541.38</ele><time>2012-09-09T08:43:37Z</time></trkpt><trkpt lat="28.275181" lon="-16.608862"><ele>2540.90</ele><time>2012-09-09T08:43:38Z</time></trkpt><trkpt lat="28.275040" lon="-16.608725"><ele>2538.50</ele><time>2012-09-09T08:43:52Z</time></trkpt><trkpt lat="28.274933" lon="-16.608568"><ele>2536.10</ele><time>2012-09-09T08:44:05Z</time></trkpt><trkpt lat="28.274878" lon="-16.608477"><ele>2535.13</ele><time>2012-09-09T08:44:12Z</time></trkpt><trkpt lat="28.274786" lon="-16.608364"><ele>2533.21</ele><time>2012-09-09T08:44:22Z</time></trkpt><trkpt lat="28.274694" lon="-16.608215"><ele>2532.25</ele><time>2012-09-09T08:44:35Z</time></trkpt><trkpt lat="28.274660" lon="-16.608145"><ele>2531.77</ele><time>2012-09-09T08:44:40Z</time></trkpt><trkpt lat="28.274601" lon="-16.608080"><ele>2531.29</ele><time>2012-09-09T08:44:46Z</time></trkpt><trkpt lat="28.274580" lon="-16.608030"><ele>2530.81</ele><time>2012-09-09T08:44:50Z</time></trkpt><trkpt lat="28.274506" lon="-16.607929"><ele>2529.85</ele><time>2012-09-09T08:44:59Z</time></trkpt><trkpt lat="28.274412" lon="-16.607809"><ele>2529.37</ele><time>2012-09-09T08:45:09Z</time></trkpt><trkpt lat="28.274372" lon="-16.607727"><ele>2529.37</ele><time>2012-09-09T08:45:16Z</time></trkpt><trkpt lat="28.274355" lon="-16.607710"><ele>2528.89</ele><time>2012-09-09T08:45:18Z</time></trkpt><trkpt lat="28.274315" lon="-16.607601"><ele>2527.92</ele><time>2012-09-09T08:45:26Z</time></trkpt><trkpt lat="28.274248" lon="-16.607441"><ele>2526.48</ele><time>2012-09-09T08:45:39Z</time></trkpt><trkpt lat="28.274248" lon="-16.607416"><ele>2526.48</ele><time>2012-09-09T08:45:41Z</time></trkpt><trkpt lat="28.274164" lon="-16.607203"><ele>2524.56</ele><time>2012-09-09T08:45:56Z</time></trkpt><trkpt lat="28.274130" lon="-16.607132"><ele>2524.56</ele><time>2012-09-09T08:46:02Z</time></trkpt><trkpt lat="28.274101" lon="-16.607082"><ele>2524.08</ele><time>2012-09-09T08:46:06Z</time></trkpt><trkpt lat="28.274054" lon="-16.607035"><ele>2523.60</ele><time>2012-09-09T08:46:11Z</time></trkpt><trkpt lat="28.273888" lon="-16.606962"><ele>2521.68</ele><time>2012-09-09T08:46:24Z</time></trkpt><trkpt lat="28.273745" lon="-16.606941"><ele>2520.23</ele><time>2012-09-09T08:46:34Z</time></trkpt><trkpt lat="28.273672" lon="-16.606966"><ele>2519.75</ele><time>2012-09-09T08:46:39Z</time></trkpt><trkpt lat="28.273453" lon="-16.607033"><ele>2517.83</ele><time>2012-09-09T08:46:56Z</time></trkpt><trkpt lat="28.273268" lon="-16.607038"><ele>2516.39</ele><time>2012-09-09T08:47:10Z</time></trkpt><trkpt lat="28.273243" lon="-16.607027"><ele>2516.39</ele><time>2012-09-09T08:47:12Z</time></trkpt><trkpt lat="28.273188" lon="-16.607008"><ele>2515.91</ele><time>2012-09-09T08:47:17Z</time></trkpt><trkpt lat="28.273075" lon="-16.606833"><ele>2513.50</ele><time>2012-09-09T08:47:31Z</time></trkpt><trkpt lat="28.273003" lon="-16.606640"><ele>2511.58</ele><time>2012-09-09T08:47:45Z</time></trkpt><trkpt lat="28.272869" lon="-16.606495"><ele>2509.18</ele><time>2012-09-09T08:47:59Z</time></trkpt><trkpt lat="28.272842" lon="-16.606482"><ele>2508.70</ele><time>2012-09-09T08:48:01Z</time></trkpt><trkpt lat="28.272718" lon="-16.606411"><ele>2507.74</ele><time>2012-09-09T08:48:12Z</time></trkpt><trkpt lat="28.272600" lon="-16.606319"><ele>2506.77</ele><time>2012-09-09T08:48:24Z</time></trkpt><trkpt lat="28.272593" lon="-16.606308"><ele>2506.77</ele><time>2012-09-09T08:48:25Z</time></trkpt><trkpt lat="28.272552" lon="-16.606274"><ele>2506.29</ele><time>2012-09-09T08:48:29Z</time></trkpt><trkpt lat="28.272421" lon="-16.606188"><ele>2504.37</ele><time>2012-09-09T08:48:41Z</time></trkpt><trkpt lat="28.272396" lon="-16.606180"><ele>2504.37</ele><time>2012-09-09T08:48:43Z</time></trkpt><trkpt lat="28.272243" lon="-16.606060"><ele>2503.41</ele><time>2012-09-09T08:48:56Z</time></trkpt><trkpt lat="28.272186" lon="-16.606026"><ele>2501.97</ele><time>2012-09-09T08:49:01Z</time></trkpt><trkpt lat="28.272106" lon="-16.605928"><ele>2501.49</ele><time>2012-09-09T08:49:10Z</time></trkpt><trkpt lat="28.272024" lon="-16.605864"><ele>2500.53</ele><time>2012-09-09T08:49:18Z</time></trkpt><trkpt lat="28.271940" lon="-16.605808"><ele>2500.53</ele><time>2012-09-09T08:49:25Z</time></trkpt><trkpt lat="28.271786" lon="-16.605734"><ele>2498.60</ele><time>2012-09-09T08:49:38Z</time></trkpt><trkpt lat="28.271746" lon="-16.605726"><ele>2498.12</ele><time>2012-09-09T08:49:41Z</time></trkpt><trkpt lat="28.271561" lon="-16.605751"><ele>2496.20</ele><time>2012-09-09T08:49:56Z</time></trkpt><trkpt lat="28.271397" lon="-16.605806"><ele>2495.72</ele><time>2012-09-09T08:50:09Z</time></trkpt><trkpt lat="28.271238" lon="-16.605768"><ele>2494.76</ele><time>2012-09-09T08:50:22Z</time></trkpt><trkpt lat="28.271082" lon="-16.605675"><ele>2493.32</ele><time>2012-09-09T08:50:35Z</time></trkpt><trkpt lat="28.270910" lon="-16.605595"><ele>2492.84</ele><time>2012-09-09T08:50:49Z</time></trkpt><trkpt lat="28.270737" lon="-16.605549"><ele>2490.91</ele><time>2012-09-09T08:51:03Z</time></trkpt><trkpt lat="28.270655" lon="-16.605492"><ele>2490.43</ele><time>2012-09-09T08:51:10Z</time></trkpt><trkpt lat="28.270506" lon="-16.605431"><ele>2490.43</ele><time>2012-09-09T08:51:23Z</time></trkpt><trkpt lat="28.270483" lon="-16.605417"><ele>2489.47</ele><time>2012-09-09T08:51:25Z</time></trkpt><trkpt lat="28.270405" lon="-16.605331"><ele>2488.51</ele><time>2012-09-09T08:51:33Z</time></trkpt><trkpt lat="28.270315" lon="-16.605274"><ele>2485.15</ele><time>2012-09-09T08:51:41Z</time></trkpt><trkpt lat="28.270281" lon="-16.605221"><ele>2484.66</ele><time>2012-09-09T08:51:46Z</time></trkpt><trkpt lat="28.270170" lon="-16.605106"><ele>2484.18</ele><time>2012-09-09T08:51:58Z</time></trkpt><trkpt lat="28.270119" lon="-16.605078"><ele>2483.70</ele><time>2012-09-09T08:52:02Z</time></trkpt><trkpt lat="28.269957" lon="-16.604967"><ele>2483.70</ele><time>2012-09-09T08:52:17Z</time></trkpt><trkpt lat="28.269804" lon="-16.604919"><ele>2481.78</ele><time>2012-09-09T08:52:30Z</time></trkpt><trkpt lat="28.269714" lon="-16.604889"><ele>2480.82</ele><time>2012-09-09T08:52:38Z</time></trkpt><trkpt lat="28.269524" lon="-16.604834"><ele>2478.90</ele><time>2012-09-09T08:52:53Z</time></trkpt><trkpt lat="28.269348" lon="-16.604797"><ele>2477.45</ele><time>2012-09-09T08:53:06Z</time></trkpt><trkpt lat="28.269245" lon="-16.604765"><ele>2476.49</ele><time>2012-09-09T08:53:14Z</time></trkpt><trkpt lat="28.269127" lon="-16.604742"><ele>2476.01</ele><time>2012-09-09T08:53:24Z</time></trkpt><trkpt lat="28.269012" lon="-16.604706"><ele>2475.05</ele><time>2012-09-09T08:53:33Z</time></trkpt><trkpt lat="28.268843" lon="-16.604643"><ele>2473.13</ele><time>2012-09-09T08:53:48Z</time></trkpt><trkpt lat="28.268738" lon="-16.604616"><ele>2472.65</ele><time>2012-09-09T08:53:56Z</time></trkpt><trkpt lat="28.268557" lon="-16.604589"><ele>2470.73</ele><time>2012-09-09T08:54:11Z</time></trkpt><trkpt lat="28.268419" lon="-16.604557"><ele>2469.28</ele><time>2012-09-09T08:54:21Z</time></trkpt><trkpt lat="28.268299" lon="-16.604502"><ele>2469.28</ele><time>2012-09-09T08:54:31Z</time></trkpt><trkpt lat="28.268242" lon="-16.604475"><ele>2468.80</ele><time>2012-09-09T08:54:35Z</time></trkpt><trkpt lat="28.268162" lon="-16.604382"><ele>2467.84</ele><time>2012-09-09T08:54:44Z</time></trkpt><trkpt lat="28.268105" lon="-16.604364"><ele>2466.88</ele><time>2012-09-09T08:54:48Z</time></trkpt><trkpt lat="28.268049" lon="-16.604303"><ele>2466.40</ele><time>2012-09-09T08:54:54Z</time></trkpt><trkpt lat="28.267910" lon="-16.604176"><ele>2465.44</ele><time>2012-09-09T08:55:08Z</time></trkpt><trkpt lat="28.267841" lon="-16.604124"><ele>2465.44</ele><time>2012-09-09T08:55:14Z</time></trkpt><trkpt lat="28.267738" lon="-16.603979"><ele>2465.44</ele><time>2012-09-09T08:55:27Z</time></trkpt><trkpt lat="28.267675" lon="-16.603889"><ele>2464.96</ele><time>2012-09-09T08:55:35Z</time></trkpt><trkpt lat="28.267630" lon="-16.603825"><ele>2464.96</ele><time>2012-09-09T08:55:41Z</time></trkpt><trkpt lat="28.267601" lon="-16.603788"><ele>2464.48</ele><time>2012-09-09T08:55:45Z</time></trkpt><trkpt lat="28.267460" lon="-16.603651"><ele>2463.04</ele><time>2012-09-09T08:55:59Z</time></trkpt><trkpt lat="28.267273" lon="-16.603703"><ele>2461.11</ele><time>2012-09-09T08:56:13Z</time></trkpt><trkpt lat="28.267174" lon="-16.603729"><ele>2460.63</ele><time>2012-09-09T08:56:21Z</time></trkpt><trkpt lat="28.267023" lon="-16.603630"><ele>2459.67</ele><time>2012-09-09T08:56:37Z</time></trkpt><trkpt lat="28.266970" lon="-16.603548"><ele>2458.71</ele><time>2012-09-09T08:56:44Z</time></trkpt><trkpt lat="28.266872" lon="-16.603348"><ele>2457.75</ele><time>2012-09-09T08:57:00Z</time></trkpt><trkpt lat="28.266825" lon="-16.603233"><ele>2456.79</ele><time>2012-09-09T08:57:08Z</time></trkpt><trkpt lat="28.266718" lon="-16.603069"><ele>2456.79</ele><time>2012-09-09T08:57:22Z</time></trkpt><trkpt lat="28.266684" lon="-16.603018"><ele>2455.82</ele><time>2012-09-09T08:57:27Z</time></trkpt><trkpt lat="28.266626" lon="-16.602974"><ele>2455.34</ele><time>2012-09-09T08:57:32Z</time></trkpt><trkpt lat="28.266453" lon="-16.602892"><ele>2454.38</ele><time>2012-09-09T08:57:46Z</time></trkpt><trkpt lat="28.266417" lon="-16.602880"><ele>2454.38</ele><time>2012-09-09T08:57:49Z</time></trkpt><trkpt lat="28.266375" lon="-16.602835"><ele>2453.90</ele><time>2012-09-09T08:57:54Z</time></trkpt><trkpt lat="28.266315" lon="-16.602793"><ele>2453.42</ele><time>2012-09-09T08:58:00Z</time></trkpt><trkpt lat="28.266190" lon="-16.602615"><ele>2451.02</ele><time>2012-09-09T08:58:16Z</time></trkpt><trkpt lat="28.266140" lon="-16.602579"><ele>2450.54</ele><time>2012-09-09T08:58:20Z</time></trkpt><trkpt lat="28.266033" lon="-16.602444"><ele>2449.10</ele><time>2012-09-09T08:58:33Z</time></trkpt><trkpt lat="28.265905" lon="-16.602299"><ele>2447.65</ele><time>2012-09-09T08:58:48Z</time></trkpt><trkpt lat="28.265854" lon="-16.602259"><ele>2446.69</ele><time>2012-09-09T08:58:52Z</time></trkpt><trkpt lat="28.265776" lon="-16.602150"><ele>2446.21</ele><time>2012-09-09T08:59:02Z</time></trkpt><trkpt lat="28.265728" lon="-16.602100"><ele>2445.73</ele><time>2012-09-09T08:59:07Z</time></trkpt><trkpt lat="28.265644" lon="-16.602011"><ele>2445.25</ele><time>2012-09-09T08:59:16Z</time></trkpt><trkpt lat="28.265560" lon="-16.601933"><ele>2442.85</ele><time>2012-09-09T08:59:25Z</time></trkpt><trkpt lat="28.265446" lon="-16.601807"><ele>2441.89</ele><time>2012-09-09T08:59:37Z</time></trkpt><trkpt lat="28.265385" lon="-16.601734"><ele>2440.44</ele><time>2012-09-09T08:59:44Z</time></trkpt><trkpt lat="28.265282" lon="-16.601603"><ele>2440.92</ele><time>2012-09-09T08:59:56Z</time></trkpt><trkpt lat="28.265186" lon="-16.601479"><ele>2439.00</ele><time>2012-09-09T09:00:08Z</time></trkpt><trkpt lat="28.265173" lon="-16.601467"><ele>2439.00</ele><time>2012-09-09T09:00:09Z</time></trkpt><trkpt lat="28.265093" lon="-16.601353"><ele>2439.48</ele><time>2012-09-09T09:00:19Z</time></trkpt><trkpt lat="28.265055" lon="-16.601328"><ele>2437.08</ele><time>2012-09-09T09:00:22Z</time></trkpt><trkpt lat="28.265011" lon="-16.601294"><ele>2435.64</ele><time>2012-09-09T09:00:26Z</time></trkpt><trkpt lat="28.264959" lon="-16.601246"><ele>2437.56</ele><time>2012-09-09T09:00:31Z</time></trkpt><trkpt lat="28.264898" lon="-16.601185"><ele>2435.16</ele><time>2012-09-09T09:00:37Z</time></trkpt><trkpt lat="28.264864" lon="-16.601156"><ele>2433.71</ele><time>2012-09-09T09:00:40Z</time></trkpt><trkpt lat="28.264679" lon="-16.601068"><ele>2433.71</ele><time>2012-09-09T09:00:55Z</time></trkpt><trkpt lat="28.264656" lon="-16.601063"><ele>2433.71</ele><time>2012-09-09T09:00:57Z</time></trkpt><trkpt lat="28.264597" lon="-16.601030"><ele>2433.23</ele><time>2012-09-09T09:01:03Z</time></trkpt><trkpt lat="28.264549" lon="-16.601000"><ele>2434.20</ele><time>2012-09-09T09:01:08Z</time></trkpt><trkpt lat="28.264395" lon="-16.600981"><ele>2431.31</ele><time>2012-09-09T09:01:19Z</time></trkpt><trkpt lat="28.264305" lon="-16.600990"><ele>2431.79</ele><time>2012-09-09T09:01:26Z</time></trkpt><trkpt lat="28.264135" lon="-16.601070"><ele>2430.83</ele><time>2012-09-09T09:01:41Z</time></trkpt><trkpt lat="28.264011" lon="-16.601131"><ele>2431.31</ele><time>2012-09-09T09:01:51Z</time></trkpt><trkpt lat="28.263939" lon="-16.601187"><ele>2430.35</ele><time>2012-09-09T09:01:57Z</time></trkpt><trkpt lat="28.263910" lon="-16.601217"><ele>2430.83</ele><time>2012-09-09T09:02:01Z</time></trkpt><trkpt lat="28.263895" lon="-16.601225"><ele>2430.83</ele><time>2012-09-09T09:02:03Z</time></trkpt><trkpt lat="28.263737" lon="-16.601360"><ele>2429.39</ele><time>2012-09-09T09:02:19Z</time></trkpt><trkpt lat="28.263563" lon="-16.601479"><ele>2430.35</ele><time>2012-09-09T09:02:35Z</time></trkpt><trkpt lat="28.263395" lon="-16.601597"><ele>2431.31</ele><time>2012-09-09T09:02:51Z</time></trkpt><trkpt lat="28.263380" lon="-16.601608"><ele>2431.31</ele><time>2012-09-09T09:02:53Z</time></trkpt><trkpt lat="28.263330" lon="-16.601648"><ele>2431.31</ele><time>2012-09-09T09:02:58Z</time></trkpt><trkpt lat="28.263300" lon="-16.601665"><ele>2431.31</ele><time>2012-09-09T09:03:01Z</time></trkpt><trkpt lat="28.263264" lon="-16.601698"><ele>2431.31</ele><time>2012-09-09T09:03:05Z</time></trkpt><trkpt lat="28.263144" lon="-16.601791"><ele>2429.87</ele><time>2012-09-09T09:03:17Z</time></trkpt><trkpt lat="28.263100" lon="-16.601839"><ele>2428.91</ele><time>2012-09-09T09:03:22Z</time></trkpt><trkpt lat="28.263023" lon="-16.601929"><ele>2427.47</ele><time>2012-09-09T09:03:31Z</time></trkpt><trkpt lat="28.262949" lon="-16.602015"><ele>2425.06</ele><time>2012-09-09T09:03:40Z</time></trkpt><trkpt lat="28.262817" lon="-16.602154"><ele>2423.62</ele><time>2012-09-09T09:03:54Z</time></trkpt><trkpt lat="28.262657" lon="-16.602308"><ele>2421.70</ele><time>2012-09-09T09:04:10Z</time></trkpt><trkpt lat="28.262634" lon="-16.602322"><ele>2421.70</ele><time>2012-09-09T09:04:12Z</time></trkpt><trkpt lat="28.262501" lon="-16.602491"><ele>2419.78</ele><time>2012-09-09T09:04:29Z</time></trkpt><trkpt lat="28.262365" lon="-16.602570"><ele>2418.81</ele><time>2012-09-09T09:04:41Z</time></trkpt><trkpt lat="28.262218" lon="-16.602568"><ele>2417.37</ele><time>2012-09-09T09:04:52Z</time></trkpt><trkpt lat="28.262157" lon="-16.602581"><ele>2416.89</ele><time>2012-09-09T09:04:57Z</time></trkpt><trkpt lat="28.262033" lon="-16.602606"><ele>2415.45</ele><time>2012-09-09T09:05:06Z</time></trkpt><trkpt lat="28.261854" lon="-16.602684"><ele>2413.05</ele><time>2012-09-09T09:05:20Z</time></trkpt><trkpt lat="28.261698" lon="-16.602747"><ele>2411.12</ele><time>2012-09-09T09:05:32Z</time></trkpt><trkpt lat="28.261671" lon="-16.602751"><ele>2410.64</ele><time>2012-09-09T09:05:34Z</time></trkpt><trkpt lat="28.261518" lon="-16.602833"><ele>2409.20</ele><time>2012-09-09T09:05:47Z</time></trkpt><trkpt lat="28.261459" lon="-16.602890"><ele>2408.24</ele><time>2012-09-09T09:05:53Z</time></trkpt><trkpt lat="28.261375" lon="-16.602900"><ele>2406.80</ele><time>2012-09-09T09:06:00Z</time></trkpt><trkpt lat="28.261246" lon="-16.602932"><ele>2404.88</ele><time>2012-09-09T09:06:11Z</time></trkpt><trkpt lat="28.261150" lon="-16.602930"><ele>2404.39</ele><time>2012-09-09T09:06:19Z</time></trkpt><trkpt lat="28.260998" lon="-16.602886"><ele>2403.43</ele><time>2012-09-09T09:06:32Z</time></trkpt><trkpt lat="28.260767" lon="-16.602877"><ele>2400.55</ele><time>2012-09-09T09:06:48Z</time></trkpt><trkpt lat="28.260685" lon="-16.603020"><ele>2398.63</ele><time>2012-09-09T09:06:59Z</time></trkpt><trkpt lat="28.260622" lon="-16.603138"><ele>2396.70</ele><time>2012-09-09T09:07:09Z</time></trkpt><trkpt lat="28.260574" lon="-16.603163"><ele>2397.18</ele><time>2012-09-09T09:07:13Z</time></trkpt><trkpt lat="28.260509" lon="-16.603130"><ele>2396.22</ele><time>2012-09-09T09:07:19Z</time></trkpt><trkpt lat="28.260410" lon="-16.603058"><ele>2393.82</ele><time>2012-09-09T09:07:29Z</time></trkpt><trkpt lat="28.260340" lon="-16.602982"><ele>2391.90</ele><time>2012-09-09T09:07:37Z</time></trkpt><trkpt lat="28.260267" lon="-16.602795"><ele>2389.97</ele><time>2012-09-09T09:07:51Z</time></trkpt><trkpt lat="28.260242" lon="-16.602640"><ele>2388.53</ele><time>2012-09-09T09:08:01Z</time></trkpt><trkpt lat="28.260241" lon="-16.602541"><ele>2388.05</ele><time>2012-09-09T09:08:08Z</time></trkpt><trkpt lat="28.260212" lon="-16.602474"><ele>2387.09</ele><time>2012-09-09T09:08:14Z</time></trkpt><trkpt lat="28.260180" lon="-16.602423"><ele>2386.13</ele><time>2012-09-09T09:08:20Z</time></trkpt><trkpt lat="28.260017" lon="-16.602472"><ele>2386.13</ele><time>2012-09-09T09:08:35Z</time></trkpt><trkpt lat="28.259956" lon="-16.602617"><ele>2384.21</ele><time>2012-09-09T09:08:47Z</time></trkpt><trkpt lat="28.259909" lon="-16.602823"><ele>2381.80</ele><time>2012-09-09T09:09:02Z</time></trkpt><trkpt lat="28.259884" lon="-16.602957"><ele>2379.88</ele><time>2012-09-09T09:09:12Z</time></trkpt><trkpt lat="28.259859" lon="-16.603058"><ele>2379.40</ele><time>2012-09-09T09:09:19Z</time></trkpt><trkpt lat="28.259815" lon="-16.603134"><ele>2378.44</ele><time>2012-09-09T09:09:25Z</time></trkpt><trkpt lat="28.259792" lon="-16.603230"><ele>2377.00</ele><time>2012-09-09T09:09:31Z</time></trkpt><trkpt lat="28.259727" lon="-16.603308"><ele>2375.55</ele><time>2012-09-09T09:09:39Z</time></trkpt><trkpt lat="28.259676" lon="-16.603367"><ele>2375.07</ele><time>2012-09-09T09:09:45Z</time></trkpt><trkpt lat="28.259535" lon="-16.603407"><ele>2375.07</ele><time>2012-09-09T09:10:00Z</time></trkpt><trkpt lat="28.259521" lon="-16.603420"><ele>2374.11</ele><time>2012-09-09T09:10:02Z</time></trkpt><trkpt lat="28.259462" lon="-16.603437"><ele>2374.59</ele><time>2012-09-09T09:10:09Z</time></trkpt><trkpt lat="28.259453" lon="-16.603455"><ele>2375.55</ele><time>2012-09-09T09:10:11Z</time></trkpt><trkpt lat="28.259441" lon="-16.603523"><ele>2376.52</ele><time>2012-09-09T09:10:16Z</time></trkpt><trkpt lat="28.259411" lon="-16.603575"><ele>2375.07</ele><time>2012-09-09T09:10:21Z</time></trkpt><trkpt lat="28.259371" lon="-16.603615"><ele>2375.55</ele><time>2012-09-09T09:10:25Z</time></trkpt><trkpt lat="28.259336" lon="-16.603800"><ele>2376.04</ele><time>2012-09-09T09:10:40Z</time></trkpt><trkpt lat="28.259317" lon="-16.603888"><ele>2374.11</ele><time>2012-09-09T09:10:47Z</time></trkpt><trkpt lat="28.259277" lon="-16.603979"><ele>2375.55</ele><time>2012-09-09T09:10:59Z</time></trkpt><trkpt lat="28.259277" lon="-16.603979"><ele>2375.07</ele><time>2012-09-09T09:11:08Z</time></trkpt><trkpt lat="28.259277" lon="-16.603979"><ele>2372.67</ele><time>2012-09-09T09:11:25Z</time></trkpt><trkpt lat="28.259277" lon="-16.603979"><ele>2372.19</ele><time>2012-09-09T09:11:52Z</time></trkpt><trkpt lat="28.259277" lon="-16.603979"><ele>2373.15</ele><time>2012-09-09T09:12:12Z</time></trkpt><trkpt lat="28.259275" lon="-16.603979"><ele>2372.19</ele><time>2012-09-09T09:12:31Z</time></trkpt><trkpt lat="28.259275" lon="-16.603979"><ele>2372.19</ele><time>2012-09-09T09:12:52Z</time></trkpt><trkpt lat="28.259275" lon="-16.603979"><ele>2371.71</ele><time>2012-09-09T09:13:08Z</time></trkpt><trkpt lat="28.259275" lon="-16.603979"><ele>2372.67</ele><time>2012-09-09T09:13:37Z</time></trkpt><trkpt lat="28.259274" lon="-16.603979"><ele>2373.15</ele><time>2012-09-09T09:14:09Z</time></trkpt><trkpt lat="28.259274" lon="-16.603985"><ele>2372.67</ele><time>2012-09-09T09:14:43Z</time></trkpt><trkpt lat="28.259279" lon="-16.603989"><ele>2375.07</ele><time>2012-09-09T09:14:52Z</time></trkpt></trkseg></trk></gpx>